<?xml version="1.0" encoding="UTF-8" standalone="no" ?>
<gpx xmlns="http://www.topografix.com/GPX/1/1" xmlns:xsi="http://www.w3.org/2001/XMLSchema-instance" xsi:schemaLocation="http://www.topografix.com/GPX/1/1 http://www.topografix.com/GPX/1/1/gpx.xsd" version="1.1" creator="VisuGPX - https://www.visugpx.com">
  <metadata>
    <name>VTT ENDURO / LAMALOU</name>
    <desc><![CDATA[Sortie typée enduro au départ de Lamalou les bains. Avec une nouvelle ligne de DH en cours d'aménagement  et une jolie descente avec murets à sauter.]]></desc>
  </metadata>
  <trk>
    <name><![CDATA[VTT ENDURO / LAMALOU_1]]></name>
    <trkseg>
      <trkpt lat="43.58819" lon="3.08077">
        <ele>241.7</ele>
        <time>2017-06-18T05:45:37Z</time>
      </trkpt>
      <trkpt lat="43.58819" lon="3.08077">
        <ele>241.7</ele>
        <time>2017-06-18T05:51:45Z</time>
      </trkpt>
      <trkpt lat="43.58815" lon="3.08083">
        <ele>242.2</ele>
        <time>2017-06-18T05:51:52Z</time>
      </trkpt>
      <trkpt lat="43.58811" lon="3.08092">
        <ele>242.3</ele>
        <time>2017-06-18T05:51:56Z</time>
      </trkpt>
      <trkpt lat="43.5881" lon="3.08101">
        <ele>242.1</ele>
        <time>2017-06-18T05:52:00Z</time>
      </trkpt>
      <trkpt lat="43.58806" lon="3.08113">
        <ele>241.7</ele>
        <time>2017-06-18T05:52:05Z</time>
      </trkpt>
      <trkpt lat="43.58804" lon="3.08126">
        <ele>241.4</ele>
        <time>2017-06-18T05:52:09Z</time>
      </trkpt>
      <trkpt lat="43.58812" lon="3.08135">
        <ele>241</ele>
        <time>2017-06-18T05:52:12Z</time>
      </trkpt>
      <trkpt lat="43.58818" lon="3.08144">
        <ele>240.7</ele>
        <time>2017-06-18T05:52:15Z</time>
      </trkpt>
      <trkpt lat="43.58818" lon="3.08156">
        <ele>240.3</ele>
        <time>2017-06-18T05:52:21Z</time>
      </trkpt>
      <trkpt lat="43.5882" lon="3.08167">
        <ele>240.1</ele>
        <time>2017-06-18T05:52:25Z</time>
      </trkpt>
      <trkpt lat="43.58821" lon="3.08176">
        <ele>239.9</ele>
        <time>2017-06-18T05:52:29Z</time>
      </trkpt>
      <trkpt lat="43.58828" lon="3.08182">
        <ele>239.8</ele>
        <time>2017-06-18T05:52:35Z</time>
      </trkpt>
      <trkpt lat="43.58836" lon="3.08184">
        <ele>239.8</ele>
        <time>2017-06-18T05:52:41Z</time>
      </trkpt>
      <trkpt lat="43.58843" lon="3.08188">
        <ele>240</ele>
        <time>2017-06-18T05:52:46Z</time>
      </trkpt>
      <trkpt lat="43.5885" lon="3.08192">
        <ele>240.2</ele>
        <time>2017-06-18T05:52:50Z</time>
      </trkpt>
      <trkpt lat="43.58857" lon="3.08197">
        <ele>240.5</ele>
        <time>2017-06-18T05:52:55Z</time>
      </trkpt>
      <trkpt lat="43.58864" lon="3.08202">
        <ele>240.9</ele>
        <time>2017-06-18T05:52:59Z</time>
      </trkpt>
      <trkpt lat="43.5887" lon="3.08208">
        <ele>240.8</ele>
        <time>2017-06-18T05:53:03Z</time>
      </trkpt>
      <trkpt lat="43.58877" lon="3.08214">
        <ele>241</ele>
        <time>2017-06-18T05:53:08Z</time>
      </trkpt>
      <trkpt lat="43.58882" lon="3.08221">
        <ele>241.2</ele>
        <time>2017-06-18T05:53:12Z</time>
      </trkpt>
      <trkpt lat="43.58887" lon="3.08229">
        <ele>241.7</ele>
        <time>2017-06-18T05:53:17Z</time>
      </trkpt>
      <trkpt lat="43.58894" lon="3.08236">
        <ele>242.1</ele>
        <time>2017-06-18T05:53:22Z</time>
      </trkpt>
      <trkpt lat="43.58899" lon="3.08244">
        <ele>242.5</ele>
        <time>2017-06-18T05:53:27Z</time>
      </trkpt>
      <trkpt lat="43.58908" lon="3.08241">
        <ele>242.7</ele>
        <time>2017-06-18T05:53:32Z</time>
      </trkpt>
      <trkpt lat="43.58914" lon="3.08235">
        <ele>243.1</ele>
        <time>2017-06-18T05:53:36Z</time>
      </trkpt>
      <trkpt lat="43.5892" lon="3.08225">
        <ele>243.7</ele>
        <time>2017-06-18T05:53:40Z</time>
      </trkpt>
      <trkpt lat="43.58926" lon="3.08216">
        <ele>244.6</ele>
        <time>2017-06-18T05:53:45Z</time>
      </trkpt>
      <trkpt lat="43.5893" lon="3.08205">
        <ele>245.5</ele>
        <time>2017-06-18T05:53:50Z</time>
      </trkpt>
      <trkpt lat="43.58934" lon="3.08194">
        <ele>246.3</ele>
        <time>2017-06-18T05:53:55Z</time>
      </trkpt>
      <trkpt lat="43.58936" lon="3.08182">
        <ele>247</ele>
        <time>2017-06-18T05:54:00Z</time>
      </trkpt>
      <trkpt lat="43.58938" lon="3.08171">
        <ele>248.4</ele>
        <time>2017-06-18T05:54:06Z</time>
      </trkpt>
      <trkpt lat="43.58935" lon="3.08162">
        <ele>249.3</ele>
        <time>2017-06-18T05:54:10Z</time>
      </trkpt>
      <trkpt lat="43.58935" lon="3.0815">
        <ele>250.2</ele>
        <time>2017-06-18T05:54:14Z</time>
      </trkpt>
      <trkpt lat="43.58937" lon="3.08139">
        <ele>251.4</ele>
        <time>2017-06-18T05:54:18Z</time>
      </trkpt>
      <trkpt lat="43.58939" lon="3.08127">
        <ele>252.8</ele>
        <time>2017-06-18T05:54:25Z</time>
      </trkpt>
      <trkpt lat="43.58944" lon="3.08118">
        <ele>253.6</ele>
        <time>2017-06-18T05:54:28Z</time>
      </trkpt>
      <trkpt lat="43.58949" lon="3.08109">
        <ele>254.3</ele>
        <time>2017-06-18T05:54:34Z</time>
      </trkpt>
      <trkpt lat="43.58957" lon="3.08104">
        <ele>255.1</ele>
        <time>2017-06-18T05:54:39Z</time>
      </trkpt>
      <trkpt lat="43.58966" lon="3.08103">
        <ele>255.7</ele>
        <time>2017-06-18T05:54:44Z</time>
      </trkpt>
      <trkpt lat="43.58973" lon="3.08102">
        <ele>256.7</ele>
        <time>2017-06-18T05:54:49Z</time>
      </trkpt>
      <trkpt lat="43.5898" lon="3.08101">
        <ele>257.6</ele>
        <time>2017-06-18T05:54:53Z</time>
      </trkpt>
      <trkpt lat="43.58988" lon="3.08093">
        <ele>258.2</ele>
        <time>2017-06-18T05:54:57Z</time>
      </trkpt>
      <trkpt lat="43.58992" lon="3.08084">
        <ele>258.8</ele>
        <time>2017-06-18T05:55:01Z</time>
      </trkpt>
      <trkpt lat="43.58994" lon="3.08074">
        <ele>259.4</ele>
        <time>2017-06-18T05:55:05Z</time>
      </trkpt>
      <trkpt lat="43.58997" lon="3.08064">
        <ele>260</ele>
        <time>2017-06-18T05:55:09Z</time>
      </trkpt>
      <trkpt lat="43.59001" lon="3.08054">
        <ele>260.7</ele>
        <time>2017-06-18T05:55:13Z</time>
      </trkpt>
      <trkpt lat="43.59003" lon="3.08044">
        <ele>261.7</ele>
        <time>2017-06-18T05:55:17Z</time>
      </trkpt>
      <trkpt lat="43.59006" lon="3.08033">
        <ele>262.8</ele>
        <time>2017-06-18T05:55:22Z</time>
      </trkpt>
      <trkpt lat="43.59009" lon="3.08024">
        <ele>263.6</ele>
        <time>2017-06-18T05:55:27Z</time>
      </trkpt>
      <trkpt lat="43.59011" lon="3.08013">
        <ele>264.1</ele>
        <time>2017-06-18T05:55:31Z</time>
      </trkpt>
      <trkpt lat="43.59011" lon="3.08001">
        <ele>264.7</ele>
        <time>2017-06-18T05:55:36Z</time>
      </trkpt>
      <trkpt lat="43.59009" lon="3.07989">
        <ele>265.4</ele>
        <time>2017-06-18T05:55:41Z</time>
      </trkpt>
      <trkpt lat="43.59008" lon="3.07977">
        <ele>265.9</ele>
        <time>2017-06-18T05:55:45Z</time>
      </trkpt>
      <trkpt lat="43.59005" lon="3.07967">
        <ele>266.8</ele>
        <time>2017-06-18T05:55:50Z</time>
      </trkpt>
      <trkpt lat="43.59004" lon="3.07955">
        <ele>267.7</ele>
        <time>2017-06-18T05:55:55Z</time>
      </trkpt>
      <trkpt lat="43.59004" lon="3.07946">
        <ele>268.3</ele>
        <time>2017-06-18T05:55:59Z</time>
      </trkpt>
      <trkpt lat="43.59002" lon="3.07933">
        <ele>269</ele>
        <time>2017-06-18T05:56:04Z</time>
      </trkpt>
      <trkpt lat="43.59" lon="3.07922">
        <ele>269.8</ele>
        <time>2017-06-18T05:56:09Z</time>
      </trkpt>
      <trkpt lat="43.58997" lon="3.07911">
        <ele>270.6</ele>
        <time>2017-06-18T05:56:13Z</time>
      </trkpt>
      <trkpt lat="43.58997" lon="3.079">
        <ele>271.8</ele>
        <time>2017-06-18T05:56:18Z</time>
      </trkpt>
      <trkpt lat="43.58997" lon="3.07888">
        <ele>272.5</ele>
        <time>2017-06-18T05:56:22Z</time>
      </trkpt>
      <trkpt lat="43.58999" lon="3.07876">
        <ele>273.2</ele>
        <time>2017-06-18T05:56:27Z</time>
      </trkpt>
      <trkpt lat="43.59" lon="3.07865">
        <ele>273.8</ele>
        <time>2017-06-18T05:56:31Z</time>
      </trkpt>
      <trkpt lat="43.59001" lon="3.07855">
        <ele>274.2</ele>
        <time>2017-06-18T05:56:34Z</time>
      </trkpt>
      <trkpt lat="43.59001" lon="3.07844">
        <ele>274.9</ele>
        <time>2017-06-18T05:56:39Z</time>
      </trkpt>
      <trkpt lat="43.58999" lon="3.07834">
        <ele>275.4</ele>
        <time>2017-06-18T05:56:43Z</time>
      </trkpt>
      <trkpt lat="43.58994" lon="3.07827">
        <ele>276.2</ele>
        <time>2017-06-18T05:56:48Z</time>
      </trkpt>
      <trkpt lat="43.58986" lon="3.07819">
        <ele>276.9</ele>
        <time>2017-06-18T05:56:53Z</time>
      </trkpt>
      <trkpt lat="43.58979" lon="3.07812">
        <ele>277.3</ele>
        <time>2017-06-18T05:56:57Z</time>
      </trkpt>
      <trkpt lat="43.58971" lon="3.07805">
        <ele>277.6</ele>
        <time>2017-06-18T05:57:00Z</time>
      </trkpt>
      <trkpt lat="43.58964" lon="3.07797">
        <ele>279.2</ele>
        <time>2017-06-18T05:57:02Z</time>
      </trkpt>
      <trkpt lat="43.58958" lon="3.0779">
        <ele>279.7</ele>
        <time>2017-06-18T05:57:04Z</time>
      </trkpt>
      <trkpt lat="43.5895" lon="3.07779">
        <ele>279.1</ele>
        <time>2017-06-18T05:57:06Z</time>
      </trkpt>
      <trkpt lat="43.58946" lon="3.0777">
        <ele>279.1</ele>
        <time>2017-06-18T05:57:08Z</time>
      </trkpt>
      <trkpt lat="43.58942" lon="3.07757">
        <ele>279.2</ele>
        <time>2017-06-18T05:57:11Z</time>
      </trkpt>
      <trkpt lat="43.5894" lon="3.07745">
        <ele>279.4</ele>
        <time>2017-06-18T05:57:14Z</time>
      </trkpt>
      <trkpt lat="43.58939" lon="3.07734">
        <ele>279.7</ele>
        <time>2017-06-18T05:57:17Z</time>
      </trkpt>
      <trkpt lat="43.58937" lon="3.07723">
        <ele>279.9</ele>
        <time>2017-06-18T05:57:21Z</time>
      </trkpt>
      <trkpt lat="43.58936" lon="3.07709">
        <ele>280.2</ele>
        <time>2017-06-18T05:57:25Z</time>
      </trkpt>
      <trkpt lat="43.58937" lon="3.07697">
        <ele>280.6</ele>
        <time>2017-06-18T05:57:29Z</time>
      </trkpt>
      <trkpt lat="43.58938" lon="3.07685">
        <ele>280.7</ele>
        <time>2017-06-18T05:57:33Z</time>
      </trkpt>
      <trkpt lat="43.5894" lon="3.07674">
        <ele>281</ele>
        <time>2017-06-18T05:57:38Z</time>
      </trkpt>
      <trkpt lat="43.5894" lon="3.07664">
        <ele>281.5</ele>
        <time>2017-06-18T05:57:43Z</time>
      </trkpt>
      <trkpt lat="43.58943" lon="3.07652">
        <ele>282.1</ele>
        <time>2017-06-18T05:57:48Z</time>
      </trkpt>
      <trkpt lat="43.58945" lon="3.07642">
        <ele>282.9</ele>
        <time>2017-06-18T05:57:53Z</time>
      </trkpt>
      <trkpt lat="43.58947" lon="3.07631">
        <ele>283.6</ele>
        <time>2017-06-18T05:57:57Z</time>
      </trkpt>
      <trkpt lat="43.58954" lon="3.07626">
        <ele>285</ele>
        <time>2017-06-18T05:58:04Z</time>
      </trkpt>
      <trkpt lat="43.58962" lon="3.07626">
        <ele>286.1</ele>
        <time>2017-06-18T05:58:09Z</time>
      </trkpt>
      <trkpt lat="43.58968" lon="3.07633">
        <ele>287.2</ele>
        <time>2017-06-18T05:58:14Z</time>
      </trkpt>
      <trkpt lat="43.5897" lon="3.07644">
        <ele>288.7</ele>
        <time>2017-06-18T05:58:19Z</time>
      </trkpt>
      <trkpt lat="43.58969" lon="3.07655">
        <ele>290.1</ele>
        <time>2017-06-18T05:58:24Z</time>
      </trkpt>
      <trkpt lat="43.58967" lon="3.07665">
        <ele>291</ele>
        <time>2017-06-18T05:58:29Z</time>
      </trkpt>
      <trkpt lat="43.58966" lon="3.07676">
        <ele>291.8</ele>
        <time>2017-06-18T05:58:34Z</time>
      </trkpt>
      <trkpt lat="43.58967" lon="3.07686">
        <ele>292.4</ele>
        <time>2017-06-18T05:58:37Z</time>
      </trkpt>
      <trkpt lat="43.5897" lon="3.07697">
        <ele>293.1</ele>
        <time>2017-06-18T05:58:41Z</time>
      </trkpt>
      <trkpt lat="43.58975" lon="3.07706">
        <ele>293.6</ele>
        <time>2017-06-18T05:58:45Z</time>
      </trkpt>
      <trkpt lat="43.5898" lon="3.07715">
        <ele>293.9</ele>
        <time>2017-06-18T05:58:49Z</time>
      </trkpt>
      <trkpt lat="43.58987" lon="3.07722">
        <ele>294</ele>
        <time>2017-06-18T05:58:52Z</time>
      </trkpt>
      <trkpt lat="43.58993" lon="3.0773">
        <ele>294.1</ele>
        <time>2017-06-18T05:58:56Z</time>
      </trkpt>
      <trkpt lat="43.58997" lon="3.07738">
        <ele>294.1</ele>
        <time>2017-06-18T05:58:59Z</time>
      </trkpt>
      <trkpt lat="43.59003" lon="3.07746">
        <ele>294.1</ele>
        <time>2017-06-18T05:59:03Z</time>
      </trkpt>
      <trkpt lat="43.59008" lon="3.07754">
        <ele>294.1</ele>
        <time>2017-06-18T05:59:06Z</time>
      </trkpt>
      <trkpt lat="43.59014" lon="3.07762">
        <ele>294.4</ele>
        <time>2017-06-18T05:59:09Z</time>
      </trkpt>
      <trkpt lat="43.5902" lon="3.07769">
        <ele>294.8</ele>
        <time>2017-06-18T05:59:12Z</time>
      </trkpt>
      <trkpt lat="43.59024" lon="3.07779">
        <ele>295.3</ele>
        <time>2017-06-18T05:59:16Z</time>
      </trkpt>
      <trkpt lat="43.59029" lon="3.07787">
        <ele>295.6</ele>
        <time>2017-06-18T05:59:19Z</time>
      </trkpt>
      <trkpt lat="43.59034" lon="3.07798">
        <ele>295.9</ele>
        <time>2017-06-18T05:59:22Z</time>
      </trkpt>
      <trkpt lat="43.59038" lon="3.07809">
        <ele>296.1</ele>
        <time>2017-06-18T05:59:25Z</time>
      </trkpt>
      <trkpt lat="43.5904" lon="3.0782">
        <ele>296.4</ele>
        <time>2017-06-18T05:59:28Z</time>
      </trkpt>
      <trkpt lat="43.59042" lon="3.07831">
        <ele>296.6</ele>
        <time>2017-06-18T05:59:31Z</time>
      </trkpt>
      <trkpt lat="43.59046" lon="3.07843">
        <ele>296.9</ele>
        <time>2017-06-18T05:59:34Z</time>
      </trkpt>
      <trkpt lat="43.59049" lon="3.07852">
        <ele>297.1</ele>
        <time>2017-06-18T05:59:38Z</time>
      </trkpt>
      <trkpt lat="43.59055" lon="3.07861">
        <ele>297.2</ele>
        <time>2017-06-18T05:59:41Z</time>
      </trkpt>
      <trkpt lat="43.5906" lon="3.07871">
        <ele>297.4</ele>
        <time>2017-06-18T05:59:44Z</time>
      </trkpt>
      <trkpt lat="43.59064" lon="3.07881">
        <ele>298.1</ele>
        <time>2017-06-18T05:59:49Z</time>
      </trkpt>
      <trkpt lat="43.5907" lon="3.07889">
        <ele>298.4</ele>
        <time>2017-06-18T05:59:52Z</time>
      </trkpt>
      <trkpt lat="43.59075" lon="3.07897">
        <ele>298.3</ele>
        <time>2017-06-18T05:59:56Z</time>
      </trkpt>
      <trkpt lat="43.5908" lon="3.07905">
        <ele>298.6</ele>
        <time>2017-06-18T06:00:01Z</time>
      </trkpt>
      <trkpt lat="43.59088" lon="3.079">
        <ele>299.2</ele>
        <time>2017-06-18T06:00:07Z</time>
      </trkpt>
      <trkpt lat="43.59089" lon="3.0789">
        <ele>300.5</ele>
        <time>2017-06-18T06:00:13Z</time>
      </trkpt>
      <trkpt lat="43.59089" lon="3.0788">
        <ele>301.2</ele>
        <time>2017-06-18T06:00:16Z</time>
      </trkpt>
      <trkpt lat="43.59087" lon="3.0787">
        <ele>302.1</ele>
        <time>2017-06-18T06:00:20Z</time>
      </trkpt>
      <trkpt lat="43.59084" lon="3.0786">
        <ele>302.9</ele>
        <time>2017-06-18T06:00:23Z</time>
      </trkpt>
      <trkpt lat="43.59081" lon="3.0785">
        <ele>303.8</ele>
        <time>2017-06-18T06:00:28Z</time>
      </trkpt>
      <trkpt lat="43.5908" lon="3.07839">
        <ele>304.7</ele>
        <time>2017-06-18T06:00:33Z</time>
      </trkpt>
      <trkpt lat="43.5908" lon="3.07828">
        <ele>305.3</ele>
        <time>2017-06-18T06:00:37Z</time>
      </trkpt>
      <trkpt lat="43.5908" lon="3.07817">
        <ele>305.9</ele>
        <time>2017-06-18T06:00:41Z</time>
      </trkpt>
      <trkpt lat="43.59078" lon="3.07807">
        <ele>306.5</ele>
        <time>2017-06-18T06:00:45Z</time>
      </trkpt>
      <trkpt lat="43.59077" lon="3.07797">
        <ele>307.6</ele>
        <time>2017-06-18T06:00:50Z</time>
      </trkpt>
      <trkpt lat="43.59075" lon="3.07786">
        <ele>309.1</ele>
        <time>2017-06-18T06:00:56Z</time>
      </trkpt>
      <trkpt lat="43.59071" lon="3.07774">
        <ele>310.3</ele>
        <time>2017-06-18T06:01:01Z</time>
      </trkpt>
      <trkpt lat="43.59068" lon="3.07765">
        <ele>311.3</ele>
        <time>2017-06-18T06:01:05Z</time>
      </trkpt>
      <trkpt lat="43.59066" lon="3.07754">
        <ele>312.2</ele>
        <time>2017-06-18T06:01:09Z</time>
      </trkpt>
      <trkpt lat="43.59062" lon="3.07743">
        <ele>313</ele>
        <time>2017-06-18T06:01:13Z</time>
      </trkpt>
      <trkpt lat="43.59059" lon="3.07732">
        <ele>313.6</ele>
        <time>2017-06-18T06:01:17Z</time>
      </trkpt>
      <trkpt lat="43.59058" lon="3.07722">
        <ele>314</ele>
        <time>2017-06-18T06:01:20Z</time>
      </trkpt>
      <trkpt lat="43.59058" lon="3.0771">
        <ele>314.2</ele>
        <time>2017-06-18T06:01:24Z</time>
      </trkpt>
      <trkpt lat="43.59057" lon="3.077">
        <ele>314.5</ele>
        <time>2017-06-18T06:01:28Z</time>
      </trkpt>
      <trkpt lat="43.59054" lon="3.0769">
        <ele>314.7</ele>
        <time>2017-06-18T06:01:31Z</time>
      </trkpt>
      <trkpt lat="43.59051" lon="3.07678">
        <ele>315.2</ele>
        <time>2017-06-18T06:01:35Z</time>
      </trkpt>
      <trkpt lat="43.59052" lon="3.07667">
        <ele>315.7</ele>
        <time>2017-06-18T06:01:39Z</time>
      </trkpt>
      <trkpt lat="43.59058" lon="3.07661">
        <ele>316.4</ele>
        <time>2017-06-18T06:01:43Z</time>
      </trkpt>
      <trkpt lat="43.59064" lon="3.07668">
        <ele>316.9</ele>
        <time>2017-06-18T06:01:48Z</time>
      </trkpt>
      <trkpt lat="43.5907" lon="3.07676">
        <ele>317.5</ele>
        <time>2017-06-18T06:01:53Z</time>
      </trkpt>
      <trkpt lat="43.59076" lon="3.07683">
        <ele>318.2</ele>
        <time>2017-06-18T06:01:57Z</time>
      </trkpt>
      <trkpt lat="43.59081" lon="3.0769">
        <ele>319.2</ele>
        <time>2017-06-18T06:02:02Z</time>
      </trkpt>
      <trkpt lat="43.59086" lon="3.07699">
        <ele>320.2</ele>
        <time>2017-06-18T06:02:07Z</time>
      </trkpt>
      <trkpt lat="43.5909" lon="3.07709">
        <ele>321.1</ele>
        <time>2017-06-18T06:02:11Z</time>
      </trkpt>
      <trkpt lat="43.59096" lon="3.07718">
        <ele>322.8</ele>
        <time>2017-06-18T06:02:17Z</time>
      </trkpt>
      <trkpt lat="43.59099" lon="3.07727">
        <ele>324</ele>
        <time>2017-06-18T06:02:21Z</time>
      </trkpt>
      <trkpt lat="43.59105" lon="3.07731">
        <ele>325.8</ele>
        <time>2017-06-18T06:02:28Z</time>
      </trkpt>
      <trkpt lat="43.59112" lon="3.07725">
        <ele>326.5</ele>
        <time>2017-06-18T06:02:32Z</time>
      </trkpt>
      <trkpt lat="43.59116" lon="3.07716">
        <ele>327.9</ele>
        <time>2017-06-18T06:02:39Z</time>
      </trkpt>
      <trkpt lat="43.59115" lon="3.07705">
        <ele>329.4</ele>
        <time>2017-06-18T06:02:44Z</time>
      </trkpt>
      <trkpt lat="43.5912" lon="3.07695">
        <ele>331.6</ele>
        <time>2017-06-18T06:02:49Z</time>
      </trkpt>
      <trkpt lat="43.59127" lon="3.0769">
        <ele>332.9</ele>
        <time>2017-06-18T06:02:53Z</time>
      </trkpt>
      <trkpt lat="43.59132" lon="3.07682">
        <ele>334.3</ele>
        <time>2017-06-18T06:02:58Z</time>
      </trkpt>
      <trkpt lat="43.59139" lon="3.07677">
        <ele>336.2</ele>
        <time>2017-06-18T06:03:04Z</time>
      </trkpt>
      <trkpt lat="43.59143" lon="3.07673">
        <ele>338.7</ele>
        <time>2017-06-18T06:03:11Z</time>
      </trkpt>
      <trkpt lat="43.5915" lon="3.07666">
        <ele>340.7</ele>
        <time>2017-06-18T06:03:18Z</time>
      </trkpt>
      <trkpt lat="43.59158" lon="3.07661">
        <ele>342.2</ele>
        <time>2017-06-18T06:03:23Z</time>
      </trkpt>
      <trkpt lat="43.59163" lon="3.07656">
        <ele>343.3</ele>
        <time>2017-06-18T06:03:28Z</time>
      </trkpt>
      <trkpt lat="43.59172" lon="3.07651">
        <ele>344.2</ele>
        <time>2017-06-18T06:03:33Z</time>
      </trkpt>
      <trkpt lat="43.59179" lon="3.0765">
        <ele>344.9</ele>
        <time>2017-06-18T06:03:37Z</time>
      </trkpt>
      <trkpt lat="43.59186" lon="3.07646">
        <ele>345.9</ele>
        <time>2017-06-18T06:03:42Z</time>
      </trkpt>
      <trkpt lat="43.59193" lon="3.0764">
        <ele>346.2</ele>
        <time>2017-06-18T06:03:46Z</time>
      </trkpt>
      <trkpt lat="43.59203" lon="3.07636">
        <ele>346.7</ele>
        <time>2017-06-18T06:03:51Z</time>
      </trkpt>
      <trkpt lat="43.59213" lon="3.0763">
        <ele>347</ele>
        <time>2017-06-18T06:03:54Z</time>
      </trkpt>
      <trkpt lat="43.59223" lon="3.07627">
        <ele>347.4</ele>
        <time>2017-06-18T06:03:57Z</time>
      </trkpt>
      <trkpt lat="43.59234" lon="3.07625">
        <ele>347</ele>
        <time>2017-06-18T06:04:00Z</time>
      </trkpt>
      <trkpt lat="43.59246" lon="3.07621">
        <ele>346.9</ele>
        <time>2017-06-18T06:04:02Z</time>
      </trkpt>
      <trkpt lat="43.59257" lon="3.07617">
        <ele>345.8</ele>
        <time>2017-06-18T06:04:04Z</time>
      </trkpt>
      <trkpt lat="43.59269" lon="3.0761">
        <ele>344.9</ele>
        <time>2017-06-18T06:04:06Z</time>
      </trkpt>
      <trkpt lat="43.59281" lon="3.07607">
        <ele>343.3</ele>
        <time>2017-06-18T06:04:08Z</time>
      </trkpt>
      <trkpt lat="43.59289" lon="3.07601">
        <ele>343.3</ele>
        <time>2017-06-18T06:04:10Z</time>
      </trkpt>
      <trkpt lat="43.59296" lon="3.07597">
        <ele>343.4</ele>
        <time>2017-06-18T06:04:15Z</time>
      </trkpt>
      <trkpt lat="43.59302" lon="3.07586">
        <ele>343.4</ele>
        <time>2017-06-18T06:04:19Z</time>
      </trkpt>
      <trkpt lat="43.59306" lon="3.07576">
        <ele>343.3</ele>
        <time>2017-06-18T06:04:25Z</time>
      </trkpt>
      <trkpt lat="43.5931" lon="3.07567">
        <ele>343.4</ele>
        <time>2017-06-18T06:04:28Z</time>
      </trkpt>
      <trkpt lat="43.59316" lon="3.07557">
        <ele>343.5</ele>
        <time>2017-06-18T06:04:31Z</time>
      </trkpt>
      <trkpt lat="43.59319" lon="3.07543">
        <ele>342.8</ele>
        <time>2017-06-18T06:04:34Z</time>
      </trkpt>
      <trkpt lat="43.59318" lon="3.07531">
        <ele>342.7</ele>
        <time>2017-06-18T06:04:36Z</time>
      </trkpt>
      <trkpt lat="43.59314" lon="3.07523">
        <ele>342.7</ele>
        <time>2017-06-18T06:04:38Z</time>
      </trkpt>
      <trkpt lat="43.59309" lon="3.07515">
        <ele>342.7</ele>
        <time>2017-06-18T06:04:41Z</time>
      </trkpt>
      <trkpt lat="43.59302" lon="3.07508">
        <ele>342.6</ele>
        <time>2017-06-18T06:04:45Z</time>
      </trkpt>
      <trkpt lat="43.59295" lon="3.07501">
        <ele>342.7</ele>
        <time>2017-06-18T06:04:49Z</time>
      </trkpt>
      <trkpt lat="43.59293" lon="3.07489">
        <ele>342.8</ele>
        <time>2017-06-18T06:04:53Z</time>
      </trkpt>
      <trkpt lat="43.59291" lon="3.0748">
        <ele>342.8</ele>
        <time>2017-06-18T06:04:56Z</time>
      </trkpt>
      <trkpt lat="43.59291" lon="3.07468">
        <ele>342.8</ele>
        <time>2017-06-18T06:05:00Z</time>
      </trkpt>
      <trkpt lat="43.59291" lon="3.07455">
        <ele>342.8</ele>
        <time>2017-06-18T06:05:04Z</time>
      </trkpt>
      <trkpt lat="43.59294" lon="3.07446">
        <ele>342.8</ele>
        <time>2017-06-18T06:05:08Z</time>
      </trkpt>
      <trkpt lat="43.59299" lon="3.07435">
        <ele>342.6</ele>
        <time>2017-06-18T06:05:12Z</time>
      </trkpt>
      <trkpt lat="43.59304" lon="3.07427">
        <ele>342.5</ele>
        <time>2017-06-18T06:05:16Z</time>
      </trkpt>
      <trkpt lat="43.59309" lon="3.07419">
        <ele>342.5</ele>
        <time>2017-06-18T06:05:20Z</time>
      </trkpt>
      <trkpt lat="43.59316" lon="3.0741">
        <ele>342.2</ele>
        <time>2017-06-18T06:05:24Z</time>
      </trkpt>
      <trkpt lat="43.59322" lon="3.07402">
        <ele>341.9</ele>
        <time>2017-06-18T06:05:28Z</time>
      </trkpt>
      <trkpt lat="43.59327" lon="3.07394">
        <ele>341.9</ele>
        <time>2017-06-18T06:05:32Z</time>
      </trkpt>
      <trkpt lat="43.59334" lon="3.07386">
        <ele>341.8</ele>
        <time>2017-06-18T06:05:37Z</time>
      </trkpt>
      <trkpt lat="43.5934" lon="3.07379">
        <ele>341.8</ele>
        <time>2017-06-18T06:05:42Z</time>
      </trkpt>
      <trkpt lat="43.59346" lon="3.07371">
        <ele>342.1</ele>
        <time>2017-06-18T06:05:47Z</time>
      </trkpt>
      <trkpt lat="43.59352" lon="3.07361">
        <ele>342.4</ele>
        <time>2017-06-18T06:05:52Z</time>
      </trkpt>
      <trkpt lat="43.59355" lon="3.07353">
        <ele>342.8</ele>
        <time>2017-06-18T06:05:57Z</time>
      </trkpt>
      <trkpt lat="43.59359" lon="3.07342">
        <ele>343.1</ele>
        <time>2017-06-18T06:06:02Z</time>
      </trkpt>
      <trkpt lat="43.59363" lon="3.07332">
        <ele>343.6</ele>
        <time>2017-06-18T06:06:07Z</time>
      </trkpt>
      <trkpt lat="43.59368" lon="3.07323">
        <ele>344.1</ele>
        <time>2017-06-18T06:06:13Z</time>
      </trkpt>
      <trkpt lat="43.59372" lon="3.07315">
        <ele>344.7</ele>
        <time>2017-06-18T06:06:18Z</time>
      </trkpt>
      <trkpt lat="43.59377" lon="3.07306">
        <ele>345.4</ele>
        <time>2017-06-18T06:06:23Z</time>
      </trkpt>
      <trkpt lat="43.59382" lon="3.07297">
        <ele>346.1</ele>
        <time>2017-06-18T06:06:28Z</time>
      </trkpt>
      <trkpt lat="43.59385" lon="3.07288">
        <ele>346.6</ele>
        <time>2017-06-18T06:06:33Z</time>
      </trkpt>
      <trkpt lat="43.5939" lon="3.0728">
        <ele>347</ele>
        <time>2017-06-18T06:06:37Z</time>
      </trkpt>
      <trkpt lat="43.59396" lon="3.07274">
        <ele>348</ele>
        <time>2017-06-18T06:06:43Z</time>
      </trkpt>
      <trkpt lat="43.59402" lon="3.07266">
        <ele>348.9</ele>
        <time>2017-06-18T06:06:48Z</time>
      </trkpt>
      <trkpt lat="43.59408" lon="3.07258">
        <ele>349.7</ele>
        <time>2017-06-18T06:06:53Z</time>
      </trkpt>
      <trkpt lat="43.59413" lon="3.0725">
        <ele>350.5</ele>
        <time>2017-06-18T06:06:59Z</time>
      </trkpt>
      <trkpt lat="43.59418" lon="3.07242">
        <ele>351.7</ele>
        <time>2017-06-18T06:07:05Z</time>
      </trkpt>
      <trkpt lat="43.59426" lon="3.07234">
        <ele>352.6</ele>
        <time>2017-06-18T06:07:11Z</time>
      </trkpt>
      <trkpt lat="43.59433" lon="3.0723">
        <ele>353.3</ele>
        <time>2017-06-18T06:07:16Z</time>
      </trkpt>
      <trkpt lat="43.5944" lon="3.07225">
        <ele>354</ele>
        <time>2017-06-18T06:07:21Z</time>
      </trkpt>
      <trkpt lat="43.59447" lon="3.0722">
        <ele>354.6</ele>
        <time>2017-06-18T06:07:27Z</time>
      </trkpt>
      <trkpt lat="43.59453" lon="3.07214">
        <ele>355.4</ele>
        <time>2017-06-18T06:07:33Z</time>
      </trkpt>
      <trkpt lat="43.59459" lon="3.07209">
        <ele>356.5</ele>
        <time>2017-06-18T06:07:38Z</time>
      </trkpt>
      <trkpt lat="43.59465" lon="3.07201">
        <ele>357.5</ele>
        <time>2017-06-18T06:07:43Z</time>
      </trkpt>
      <trkpt lat="43.59469" lon="3.07192">
        <ele>358.6</ele>
        <time>2017-06-18T06:07:49Z</time>
      </trkpt>
      <trkpt lat="43.59473" lon="3.07183">
        <ele>359.6</ele>
        <time>2017-06-18T06:07:54Z</time>
      </trkpt>
      <trkpt lat="43.59476" lon="3.07171">
        <ele>360.9</ele>
        <time>2017-06-18T06:07:59Z</time>
      </trkpt>
      <trkpt lat="43.59481" lon="3.0716">
        <ele>361.9</ele>
        <time>2017-06-18T06:08:04Z</time>
      </trkpt>
      <trkpt lat="43.59481" lon="3.07149">
        <ele>362.8</ele>
        <time>2017-06-18T06:08:09Z</time>
      </trkpt>
      <trkpt lat="43.59483" lon="3.07138">
        <ele>363.7</ele>
        <time>2017-06-18T06:08:13Z</time>
      </trkpt>
      <trkpt lat="43.59484" lon="3.07128">
        <ele>364.5</ele>
        <time>2017-06-18T06:08:17Z</time>
      </trkpt>
      <trkpt lat="43.59485" lon="3.07118">
        <ele>365.5</ele>
        <time>2017-06-18T06:08:23Z</time>
      </trkpt>
      <trkpt lat="43.59489" lon="3.07108">
        <ele>366.4</ele>
        <time>2017-06-18T06:08:28Z</time>
      </trkpt>
      <trkpt lat="43.59492" lon="3.07096">
        <ele>367.3</ele>
        <time>2017-06-18T06:08:33Z</time>
      </trkpt>
      <trkpt lat="43.59494" lon="3.07086">
        <ele>368.8</ele>
        <time>2017-06-18T06:08:39Z</time>
      </trkpt>
      <trkpt lat="43.59497" lon="3.07075">
        <ele>370.2</ele>
        <time>2017-06-18T06:08:45Z</time>
      </trkpt>
      <trkpt lat="43.59498" lon="3.07064">
        <ele>371.6</ele>
        <time>2017-06-18T06:08:51Z</time>
      </trkpt>
      <trkpt lat="43.59498" lon="3.07052">
        <ele>373</ele>
        <time>2017-06-18T06:08:58Z</time>
      </trkpt>
      <trkpt lat="43.59502" lon="3.07043">
        <ele>373.9</ele>
        <time>2017-06-18T06:09:02Z</time>
      </trkpt>
      <trkpt lat="43.59505" lon="3.07034">
        <ele>375.3</ele>
        <time>2017-06-18T06:09:08Z</time>
      </trkpt>
      <trkpt lat="43.59509" lon="3.07023">
        <ele>376.6</ele>
        <time>2017-06-18T06:09:14Z</time>
      </trkpt>
      <trkpt lat="43.59514" lon="3.07014">
        <ele>377.6</ele>
        <time>2017-06-18T06:09:20Z</time>
      </trkpt>
      <trkpt lat="43.59515" lon="3.07002">
        <ele>379.1</ele>
        <time>2017-06-18T06:09:27Z</time>
      </trkpt>
      <trkpt lat="43.59514" lon="3.06992">
        <ele>380</ele>
        <time>2017-06-18T06:09:32Z</time>
      </trkpt>
      <trkpt lat="43.59515" lon="3.06982">
        <ele>380.5</ele>
        <time>2017-06-18T06:09:35Z</time>
      </trkpt>
      <trkpt lat="43.59518" lon="3.06971">
        <ele>381.1</ele>
        <time>2017-06-18T06:09:39Z</time>
      </trkpt>
      <trkpt lat="43.59521" lon="3.06962">
        <ele>381.9</ele>
        <time>2017-06-18T06:09:43Z</time>
      </trkpt>
      <trkpt lat="43.59528" lon="3.06954">
        <ele>382.9</ele>
        <time>2017-06-18T06:09:48Z</time>
      </trkpt>
      <trkpt lat="43.59531" lon="3.06945">
        <ele>384</ele>
        <time>2017-06-18T06:09:52Z</time>
      </trkpt>
      <trkpt lat="43.59534" lon="3.06936">
        <ele>385.2</ele>
        <time>2017-06-18T06:09:57Z</time>
      </trkpt>
      <trkpt lat="43.59539" lon="3.06924">
        <ele>386.5</ele>
        <time>2017-06-18T06:10:02Z</time>
      </trkpt>
      <trkpt lat="43.59542" lon="3.06915">
        <ele>387.2</ele>
        <time>2017-06-18T06:10:06Z</time>
      </trkpt>
      <trkpt lat="43.59542" lon="3.06902">
        <ele>388.3</ele>
        <time>2017-06-18T06:10:12Z</time>
      </trkpt>
      <trkpt lat="43.59541" lon="3.0689">
        <ele>388.8</ele>
        <time>2017-06-18T06:10:16Z</time>
      </trkpt>
      <trkpt lat="43.59541" lon="3.06878">
        <ele>389.9</ele>
        <time>2017-06-18T06:10:21Z</time>
      </trkpt>
      <trkpt lat="43.59542" lon="3.06867">
        <ele>390.2</ele>
        <time>2017-06-18T06:10:25Z</time>
      </trkpt>
      <trkpt lat="43.5954" lon="3.06857">
        <ele>391.1</ele>
        <time>2017-06-18T06:10:30Z</time>
      </trkpt>
      <trkpt lat="43.59539" lon="3.06846">
        <ele>392.4</ele>
        <time>2017-06-18T06:10:35Z</time>
      </trkpt>
      <trkpt lat="43.59537" lon="3.06836">
        <ele>393.5</ele>
        <time>2017-06-18T06:10:40Z</time>
      </trkpt>
      <trkpt lat="43.59535" lon="3.06826">
        <ele>394.2</ele>
        <time>2017-06-18T06:10:44Z</time>
      </trkpt>
      <trkpt lat="43.59529" lon="3.06816">
        <ele>395.1</ele>
        <time>2017-06-18T06:10:49Z</time>
      </trkpt>
      <trkpt lat="43.59522" lon="3.06809">
        <ele>396.3</ele>
        <time>2017-06-18T06:10:54Z</time>
      </trkpt>
      <trkpt lat="43.59517" lon="3.06802">
        <ele>397.5</ele>
        <time>2017-06-18T06:10:59Z</time>
      </trkpt>
      <trkpt lat="43.59511" lon="3.06794">
        <ele>398.4</ele>
        <time>2017-06-18T06:11:03Z</time>
      </trkpt>
      <trkpt lat="43.59515" lon="3.06786">
        <ele>402.1</ele>
        <time>2017-06-18T06:11:17Z</time>
      </trkpt>
      <trkpt lat="43.59522" lon="3.06784">
        <ele>403.4</ele>
        <time>2017-06-18T06:11:23Z</time>
      </trkpt>
      <trkpt lat="43.59531" lon="3.06783">
        <ele>404.5</ele>
        <time>2017-06-18T06:11:29Z</time>
      </trkpt>
      <trkpt lat="43.59539" lon="3.06781">
        <ele>405.7</ele>
        <time>2017-06-18T06:11:35Z</time>
      </trkpt>
      <trkpt lat="43.59547" lon="3.0678">
        <ele>406.4</ele>
        <time>2017-06-18T06:11:41Z</time>
      </trkpt>
      <trkpt lat="43.59555" lon="3.0678">
        <ele>406.7</ele>
        <time>2017-06-18T06:11:46Z</time>
      </trkpt>
      <trkpt lat="43.59562" lon="3.06777">
        <ele>407.2</ele>
        <time>2017-06-18T06:11:51Z</time>
      </trkpt>
      <trkpt lat="43.59571" lon="3.06778">
        <ele>407.4</ele>
        <time>2017-06-18T06:11:58Z</time>
      </trkpt>
      <trkpt lat="43.59578" lon="3.0678">
        <ele>408</ele>
        <time>2017-06-18T06:12:04Z</time>
      </trkpt>
      <trkpt lat="43.59588" lon="3.06776">
        <ele>408.5</ele>
        <time>2017-06-18T06:12:09Z</time>
      </trkpt>
      <trkpt lat="43.59593" lon="3.06775">
        <ele>409.3</ele>
        <time>2017-06-18T06:12:16Z</time>
      </trkpt>
      <trkpt lat="43.59601" lon="3.06773">
        <ele>410.4</ele>
        <time>2017-06-18T06:12:21Z</time>
      </trkpt>
      <trkpt lat="43.59609" lon="3.06771">
        <ele>411.9</ele>
        <time>2017-06-18T06:12:26Z</time>
      </trkpt>
      <trkpt lat="43.59617" lon="3.06766">
        <ele>413.4</ele>
        <time>2017-06-18T06:12:31Z</time>
      </trkpt>
      <trkpt lat="43.59624" lon="3.06759">
        <ele>414.9</ele>
        <time>2017-06-18T06:12:36Z</time>
      </trkpt>
      <trkpt lat="43.59631" lon="3.06755">
        <ele>415.6</ele>
        <time>2017-06-18T06:12:41Z</time>
      </trkpt>
      <trkpt lat="43.59637" lon="3.0675">
        <ele>416.5</ele>
        <time>2017-06-18T06:12:46Z</time>
      </trkpt>
      <trkpt lat="43.59644" lon="3.06743">
        <ele>418</ele>
        <time>2017-06-18T06:12:53Z</time>
      </trkpt>
      <trkpt lat="43.59652" lon="3.06739">
        <ele>418.9</ele>
        <time>2017-06-18T06:12:58Z</time>
      </trkpt>
      <trkpt lat="43.5966" lon="3.06734">
        <ele>419.5</ele>
        <time>2017-06-18T06:13:03Z</time>
      </trkpt>
      <trkpt lat="43.59667" lon="3.06729">
        <ele>420.3</ele>
        <time>2017-06-18T06:13:10Z</time>
      </trkpt>
      <trkpt lat="43.59674" lon="3.06722">
        <ele>421</ele>
        <time>2017-06-18T06:13:15Z</time>
      </trkpt>
      <trkpt lat="43.59681" lon="3.06715">
        <ele>421.5</ele>
        <time>2017-06-18T06:13:18Z</time>
      </trkpt>
      <trkpt lat="43.59689" lon="3.06712">
        <ele>421.8</ele>
        <time>2017-06-18T06:13:23Z</time>
      </trkpt>
      <trkpt lat="43.59696" lon="3.06708">
        <ele>423.1</ele>
        <time>2017-06-18T06:13:29Z</time>
      </trkpt>
      <trkpt lat="43.59703" lon="3.06702">
        <ele>424</ele>
        <time>2017-06-18T06:13:34Z</time>
      </trkpt>
      <trkpt lat="43.59711" lon="3.06695">
        <ele>425</ele>
        <time>2017-06-18T06:13:39Z</time>
      </trkpt>
      <trkpt lat="43.59718" lon="3.0669">
        <ele>425.5</ele>
        <time>2017-06-18T06:13:44Z</time>
      </trkpt>
      <trkpt lat="43.59726" lon="3.06685">
        <ele>425.9</ele>
        <time>2017-06-18T06:13:48Z</time>
      </trkpt>
      <trkpt lat="43.59734" lon="3.06682">
        <ele>426.2</ele>
        <time>2017-06-18T06:13:52Z</time>
      </trkpt>
      <trkpt lat="43.59741" lon="3.06678">
        <ele>426</ele>
        <time>2017-06-18T06:13:56Z</time>
      </trkpt>
      <trkpt lat="43.59749" lon="3.06676">
        <ele>425.5</ele>
        <time>2017-06-18T06:14:00Z</time>
      </trkpt>
      <trkpt lat="43.59755" lon="3.0667">
        <ele>425.1</ele>
        <time>2017-06-18T06:14:05Z</time>
      </trkpt>
      <trkpt lat="43.59763" lon="3.06665">
        <ele>425.1</ele>
        <time>2017-06-18T06:14:09Z</time>
      </trkpt>
      <trkpt lat="43.59771" lon="3.06658">
        <ele>425.3</ele>
        <time>2017-06-18T06:14:13Z</time>
      </trkpt>
      <trkpt lat="43.59778" lon="3.06651">
        <ele>425.8</ele>
        <time>2017-06-18T06:14:19Z</time>
      </trkpt>
      <trkpt lat="43.59785" lon="3.06646">
        <ele>426.3</ele>
        <time>2017-06-18T06:14:23Z</time>
      </trkpt>
      <trkpt lat="43.59791" lon="3.06639">
        <ele>426.9</ele>
        <time>2017-06-18T06:14:28Z</time>
      </trkpt>
      <trkpt lat="43.59798" lon="3.06634">
        <ele>427.8</ele>
        <time>2017-06-18T06:14:33Z</time>
      </trkpt>
      <trkpt lat="43.59805" lon="3.06628">
        <ele>429.2</ele>
        <time>2017-06-18T06:14:39Z</time>
      </trkpt>
      <trkpt lat="43.59812" lon="3.06623">
        <ele>429.7</ele>
        <time>2017-06-18T06:14:43Z</time>
      </trkpt>
      <trkpt lat="43.59821" lon="3.06619">
        <ele>430.3</ele>
        <time>2017-06-18T06:14:47Z</time>
      </trkpt>
      <trkpt lat="43.59827" lon="3.06615">
        <ele>431.1</ele>
        <time>2017-06-18T06:14:51Z</time>
      </trkpt>
      <trkpt lat="43.59835" lon="3.0661">
        <ele>431.7</ele>
        <time>2017-06-18T06:14:55Z</time>
      </trkpt>
      <trkpt lat="43.59841" lon="3.06604">
        <ele>432.3</ele>
        <time>2017-06-18T06:15:00Z</time>
      </trkpt>
      <trkpt lat="43.59848" lon="3.06596">
        <ele>432.6</ele>
        <time>2017-06-18T06:15:04Z</time>
      </trkpt>
      <trkpt lat="43.59854" lon="3.0659">
        <ele>433</ele>
        <time>2017-06-18T06:15:08Z</time>
      </trkpt>
      <trkpt lat="43.59859" lon="3.06583">
        <ele>433.4</ele>
        <time>2017-06-18T06:15:12Z</time>
      </trkpt>
      <trkpt lat="43.59865" lon="3.06576">
        <ele>433.7</ele>
        <time>2017-06-18T06:15:15Z</time>
      </trkpt>
      <trkpt lat="43.5987" lon="3.06566">
        <ele>434.5</ele>
        <time>2017-06-18T06:15:20Z</time>
      </trkpt>
      <trkpt lat="43.59875" lon="3.06557">
        <ele>435.1</ele>
        <time>2017-06-18T06:15:24Z</time>
      </trkpt>
      <trkpt lat="43.5988" lon="3.06546">
        <ele>435.5</ele>
        <time>2017-06-18T06:15:28Z</time>
      </trkpt>
      <trkpt lat="43.59883" lon="3.06535">
        <ele>436.3</ele>
        <time>2017-06-18T06:15:33Z</time>
      </trkpt>
      <trkpt lat="43.59888" lon="3.06526">
        <ele>437.2</ele>
        <time>2017-06-18T06:15:37Z</time>
      </trkpt>
      <trkpt lat="43.59893" lon="3.06519">
        <ele>437.9</ele>
        <time>2017-06-18T06:15:40Z</time>
      </trkpt>
      <trkpt lat="43.59897" lon="3.0651">
        <ele>438.5</ele>
        <time>2017-06-18T06:15:43Z</time>
      </trkpt>
      <trkpt lat="43.59901" lon="3.065">
        <ele>439</ele>
        <time>2017-06-18T06:15:46Z</time>
      </trkpt>
      <trkpt lat="43.59904" lon="3.06489">
        <ele>439.6</ele>
        <time>2017-06-18T06:15:50Z</time>
      </trkpt>
      <trkpt lat="43.59904" lon="3.06478">
        <ele>440.4</ele>
        <time>2017-06-18T06:15:54Z</time>
      </trkpt>
      <trkpt lat="43.59906" lon="3.06464">
        <ele>441.1</ele>
        <time>2017-06-18T06:15:57Z</time>
      </trkpt>
      <trkpt lat="43.59905" lon="3.06454">
        <ele>442</ele>
        <time>2017-06-18T06:16:01Z</time>
      </trkpt>
      <trkpt lat="43.59906" lon="3.06443">
        <ele>443.2</ele>
        <time>2017-06-18T06:16:05Z</time>
      </trkpt>
      <trkpt lat="43.59907" lon="3.06432">
        <ele>444.8</ele>
        <time>2017-06-18T06:16:10Z</time>
      </trkpt>
      <trkpt lat="43.59908" lon="3.06422">
        <ele>445.7</ele>
        <time>2017-06-18T06:16:16Z</time>
      </trkpt>
      <trkpt lat="43.59907" lon="3.06411">
        <ele>447</ele>
        <time>2017-06-18T06:16:22Z</time>
      </trkpt>
      <trkpt lat="43.59909" lon="3.06402">
        <ele>447.7</ele>
        <time>2017-06-18T06:16:27Z</time>
      </trkpt>
      <trkpt lat="43.59911" lon="3.0639">
        <ele>448.7</ele>
        <time>2017-06-18T06:16:34Z</time>
      </trkpt>
      <trkpt lat="43.59913" lon="3.0638">
        <ele>449.7</ele>
        <time>2017-06-18T06:16:40Z</time>
      </trkpt>
      <trkpt lat="43.59913" lon="3.06369">
        <ele>450.5</ele>
        <time>2017-06-18T06:16:46Z</time>
      </trkpt>
      <trkpt lat="43.59913" lon="3.06356">
        <ele>451.6</ele>
        <time>2017-06-18T06:16:51Z</time>
      </trkpt>
      <trkpt lat="43.59912" lon="3.06346">
        <ele>452.8</ele>
        <time>2017-06-18T06:16:56Z</time>
      </trkpt>
      <trkpt lat="43.5991" lon="3.06335">
        <ele>454</ele>
        <time>2017-06-18T06:17:02Z</time>
      </trkpt>
      <trkpt lat="43.59902" lon="3.06329">
        <ele>455.1</ele>
        <time>2017-06-18T06:17:07Z</time>
      </trkpt>
      <trkpt lat="43.59893" lon="3.06328">
        <ele>456</ele>
        <time>2017-06-18T06:17:11Z</time>
      </trkpt>
      <trkpt lat="43.59887" lon="3.06334">
        <ele>457.6</ele>
        <time>2017-06-18T06:17:18Z</time>
      </trkpt>
      <trkpt lat="43.5988" lon="3.06337">
        <ele>459</ele>
        <time>2017-06-18T06:17:23Z</time>
      </trkpt>
      <trkpt lat="43.59873" lon="3.06343">
        <ele>459.7</ele>
        <time>2017-06-18T06:17:26Z</time>
      </trkpt>
      <trkpt lat="43.59866" lon="3.0635">
        <ele>460.7</ele>
        <time>2017-06-18T06:17:30Z</time>
      </trkpt>
      <trkpt lat="43.59861" lon="3.06357">
        <ele>461.4</ele>
        <time>2017-06-18T06:17:34Z</time>
      </trkpt>
      <trkpt lat="43.59854" lon="3.06365">
        <ele>462</ele>
        <time>2017-06-18T06:17:38Z</time>
      </trkpt>
      <trkpt lat="43.59848" lon="3.06373">
        <ele>462.4</ele>
        <time>2017-06-18T06:17:42Z</time>
      </trkpt>
      <trkpt lat="43.59841" lon="3.06378">
        <ele>462.9</ele>
        <time>2017-06-18T06:17:46Z</time>
      </trkpt>
      <trkpt lat="43.59833" lon="3.06383">
        <ele>463.3</ele>
        <time>2017-06-18T06:17:51Z</time>
      </trkpt>
      <trkpt lat="43.59825" lon="3.06388">
        <ele>463.8</ele>
        <time>2017-06-18T06:17:55Z</time>
      </trkpt>
      <trkpt lat="43.59817" lon="3.06391">
        <ele>464.3</ele>
        <time>2017-06-18T06:17:59Z</time>
      </trkpt>
      <trkpt lat="43.5981" lon="3.06394">
        <ele>464.7</ele>
        <time>2017-06-18T06:18:03Z</time>
      </trkpt>
      <trkpt lat="43.59801" lon="3.06395">
        <ele>465</ele>
        <time>2017-06-18T06:18:07Z</time>
      </trkpt>
      <trkpt lat="43.59792" lon="3.06394">
        <ele>465.7</ele>
        <time>2017-06-18T06:18:12Z</time>
      </trkpt>
      <trkpt lat="43.59785" lon="3.06394">
        <ele>466</ele>
        <time>2017-06-18T06:18:15Z</time>
      </trkpt>
      <trkpt lat="43.59776" lon="3.06395">
        <ele>466.8</ele>
        <time>2017-06-18T06:18:20Z</time>
      </trkpt>
      <trkpt lat="43.59768" lon="3.06394">
        <ele>467.7</ele>
        <time>2017-06-18T06:18:24Z</time>
      </trkpt>
      <trkpt lat="43.5976" lon="3.06392">
        <ele>468.2</ele>
        <time>2017-06-18T06:18:27Z</time>
      </trkpt>
      <trkpt lat="43.59753" lon="3.06389">
        <ele>468.8</ele>
        <time>2017-06-18T06:18:31Z</time>
      </trkpt>
      <trkpt lat="43.59745" lon="3.06387">
        <ele>469.2</ele>
        <time>2017-06-18T06:18:35Z</time>
      </trkpt>
      <trkpt lat="43.59738" lon="3.06381">
        <ele>469.7</ele>
        <time>2017-06-18T06:18:40Z</time>
      </trkpt>
      <trkpt lat="43.59732" lon="3.06371">
        <ele>470.3</ele>
        <time>2017-06-18T06:18:44Z</time>
      </trkpt>
      <trkpt lat="43.59725" lon="3.06363">
        <ele>470.9</ele>
        <time>2017-06-18T06:18:49Z</time>
      </trkpt>
      <trkpt lat="43.5972" lon="3.06355">
        <ele>471.5</ele>
        <time>2017-06-18T06:18:53Z</time>
      </trkpt>
      <trkpt lat="43.59716" lon="3.06344">
        <ele>472.3</ele>
        <time>2017-06-18T06:18:58Z</time>
      </trkpt>
      <trkpt lat="43.59712" lon="3.06335">
        <ele>473.1</ele>
        <time>2017-06-18T06:19:03Z</time>
      </trkpt>
      <trkpt lat="43.59708" lon="3.06325">
        <ele>473.7</ele>
        <time>2017-06-18T06:19:07Z</time>
      </trkpt>
      <trkpt lat="43.59705" lon="3.06313">
        <ele>474.8</ele>
        <time>2017-06-18T06:19:12Z</time>
      </trkpt>
      <trkpt lat="43.59699" lon="3.06309">
        <ele>475.8</ele>
        <time>2017-06-18T06:19:19Z</time>
      </trkpt>
      <trkpt lat="43.59697" lon="3.06303">
        <ele>477.9</ele>
        <time>2017-06-18T06:19:37Z</time>
      </trkpt>
      <trkpt lat="43.59693" lon="3.06294">
        <ele>479</ele>
        <time>2017-06-18T06:19:44Z</time>
      </trkpt>
      <trkpt lat="43.59688" lon="3.06284">
        <ele>479.6</ele>
        <time>2017-06-18T06:19:49Z</time>
      </trkpt>
      <trkpt lat="43.59684" lon="3.06275">
        <ele>480.2</ele>
        <time>2017-06-18T06:19:53Z</time>
      </trkpt>
      <trkpt lat="43.5968" lon="3.06265">
        <ele>480.7</ele>
        <time>2017-06-18T06:19:57Z</time>
      </trkpt>
      <trkpt lat="43.59675" lon="3.06256">
        <ele>481.4</ele>
        <time>2017-06-18T06:20:01Z</time>
      </trkpt>
      <trkpt lat="43.5967" lon="3.06247">
        <ele>482</ele>
        <time>2017-06-18T06:20:05Z</time>
      </trkpt>
      <trkpt lat="43.59667" lon="3.06238">
        <ele>482.5</ele>
        <time>2017-06-18T06:20:09Z</time>
      </trkpt>
      <trkpt lat="43.59662" lon="3.06229">
        <ele>482.9</ele>
        <time>2017-06-18T06:20:13Z</time>
      </trkpt>
      <trkpt lat="43.59659" lon="3.06219">
        <ele>483.6</ele>
        <time>2017-06-18T06:20:19Z</time>
      </trkpt>
      <trkpt lat="43.59657" lon="3.06209">
        <ele>484.1</ele>
        <time>2017-06-18T06:20:23Z</time>
      </trkpt>
      <trkpt lat="43.59655" lon="3.06198">
        <ele>484.6</ele>
        <time>2017-06-18T06:20:27Z</time>
      </trkpt>
      <trkpt lat="43.59653" lon="3.06186">
        <ele>485.2</ele>
        <time>2017-06-18T06:20:31Z</time>
      </trkpt>
      <trkpt lat="43.59655" lon="3.06174">
        <ele>486.1</ele>
        <time>2017-06-18T06:20:36Z</time>
      </trkpt>
      <trkpt lat="43.5966" lon="3.06164">
        <ele>486.9</ele>
        <time>2017-06-18T06:20:40Z</time>
      </trkpt>
      <trkpt lat="43.59665" lon="3.06157">
        <ele>487.5</ele>
        <time>2017-06-18T06:20:44Z</time>
      </trkpt>
      <trkpt lat="43.59672" lon="3.06158">
        <ele>488.5</ele>
        <time>2017-06-18T06:20:49Z</time>
      </trkpt>
      <trkpt lat="43.5968" lon="3.06161">
        <ele>489.4</ele>
        <time>2017-06-18T06:20:53Z</time>
      </trkpt>
      <trkpt lat="43.59687" lon="3.06167">
        <ele>490.6</ele>
        <time>2017-06-18T06:20:59Z</time>
      </trkpt>
      <trkpt lat="43.59692" lon="3.06175">
        <ele>491.4</ele>
        <time>2017-06-18T06:21:03Z</time>
      </trkpt>
      <trkpt lat="43.59699" lon="3.06182">
        <ele>492.3</ele>
        <time>2017-06-18T06:21:08Z</time>
      </trkpt>
      <trkpt lat="43.59705" lon="3.06189">
        <ele>493.4</ele>
        <time>2017-06-18T06:21:12Z</time>
      </trkpt>
      <trkpt lat="43.59709" lon="3.06195">
        <ele>494</ele>
        <time>2017-06-18T06:21:16Z</time>
      </trkpt>
      <trkpt lat="43.59716" lon="3.06202">
        <ele>494.6</ele>
        <time>2017-06-18T06:21:21Z</time>
      </trkpt>
      <trkpt lat="43.59722" lon="3.0621">
        <ele>495</ele>
        <time>2017-06-18T06:21:26Z</time>
      </trkpt>
      <trkpt lat="43.59729" lon="3.06216">
        <ele>495.3</ele>
        <time>2017-06-18T06:21:31Z</time>
      </trkpt>
      <trkpt lat="43.59734" lon="3.06224">
        <ele>495.7</ele>
        <time>2017-06-18T06:21:35Z</time>
      </trkpt>
      <trkpt lat="43.59739" lon="3.06232">
        <ele>496.2</ele>
        <time>2017-06-18T06:21:39Z</time>
      </trkpt>
      <trkpt lat="43.59745" lon="3.06238">
        <ele>496.6</ele>
        <time>2017-06-18T06:21:43Z</time>
      </trkpt>
      <trkpt lat="43.59753" lon="3.06241">
        <ele>496.9</ele>
        <time>2017-06-18T06:21:47Z</time>
      </trkpt>
      <trkpt lat="43.59762" lon="3.0624">
        <ele>497.2</ele>
        <time>2017-06-18T06:21:51Z</time>
      </trkpt>
      <trkpt lat="43.59769" lon="3.06238">
        <ele>497.7</ele>
        <time>2017-06-18T06:21:54Z</time>
      </trkpt>
      <trkpt lat="43.59777" lon="3.06236">
        <ele>498.8</ele>
        <time>2017-06-18T06:21:59Z</time>
      </trkpt>
      <trkpt lat="43.59785" lon="3.0623">
        <ele>499.7</ele>
        <time>2017-06-18T06:22:03Z</time>
      </trkpt>
      <trkpt lat="43.59791" lon="3.06225">
        <ele>500.4</ele>
        <time>2017-06-18T06:22:06Z</time>
      </trkpt>
      <trkpt lat="43.59797" lon="3.06218">
        <ele>501.7</ele>
        <time>2017-06-18T06:22:11Z</time>
      </trkpt>
      <trkpt lat="43.59804" lon="3.06209">
        <ele>502.8</ele>
        <time>2017-06-18T06:22:15Z</time>
      </trkpt>
      <trkpt lat="43.59807" lon="3.062">
        <ele>503.4</ele>
        <time>2017-06-18T06:22:18Z</time>
      </trkpt>
      <trkpt lat="43.59812" lon="3.0619">
        <ele>504.2</ele>
        <time>2017-06-18T06:22:22Z</time>
      </trkpt>
      <trkpt lat="43.59816" lon="3.06178">
        <ele>505.1</ele>
        <time>2017-06-18T06:22:26Z</time>
      </trkpt>
      <trkpt lat="43.59819" lon="3.06168">
        <ele>505.6</ele>
        <time>2017-06-18T06:22:30Z</time>
      </trkpt>
      <trkpt lat="43.5982" lon="3.06155">
        <ele>505.8</ele>
        <time>2017-06-18T06:22:34Z</time>
      </trkpt>
      <trkpt lat="43.59819" lon="3.06145">
        <ele>506.3</ele>
        <time>2017-06-18T06:22:38Z</time>
      </trkpt>
      <trkpt lat="43.59817" lon="3.06135">
        <ele>507</ele>
        <time>2017-06-18T06:22:43Z</time>
      </trkpt>
      <trkpt lat="43.59823" lon="3.06128">
        <ele>507.8</ele>
        <time>2017-06-18T06:22:49Z</time>
      </trkpt>
      <trkpt lat="43.5983" lon="3.06127">
        <ele>508.7</ele>
        <time>2017-06-18T06:22:53Z</time>
      </trkpt>
      <trkpt lat="43.59837" lon="3.06131">
        <ele>510</ele>
        <time>2017-06-18T06:22:58Z</time>
      </trkpt>
      <trkpt lat="43.59845" lon="3.06132">
        <ele>511.7</ele>
        <time>2017-06-18T06:23:04Z</time>
      </trkpt>
      <trkpt lat="43.59854" lon="3.06133">
        <ele>513.1</ele>
        <time>2017-06-18T06:23:09Z</time>
      </trkpt>
      <trkpt lat="43.59864" lon="3.06135">
        <ele>514.6</ele>
        <time>2017-06-18T06:23:14Z</time>
      </trkpt>
      <trkpt lat="43.59872" lon="3.06136">
        <ele>515.9</ele>
        <time>2017-06-18T06:23:19Z</time>
      </trkpt>
      <trkpt lat="43.59881" lon="3.06138">
        <ele>516.7</ele>
        <time>2017-06-18T06:23:24Z</time>
      </trkpt>
      <trkpt lat="43.5989" lon="3.0614">
        <ele>517.7</ele>
        <time>2017-06-18T06:23:29Z</time>
      </trkpt>
      <trkpt lat="43.59897" lon="3.06141">
        <ele>518.2</ele>
        <time>2017-06-18T06:23:32Z</time>
      </trkpt>
      <trkpt lat="43.59906" lon="3.06141">
        <ele>518.5</ele>
        <time>2017-06-18T06:23:36Z</time>
      </trkpt>
      <trkpt lat="43.59915" lon="3.06141">
        <ele>518.9</ele>
        <time>2017-06-18T06:23:40Z</time>
      </trkpt>
      <trkpt lat="43.59924" lon="3.0614">
        <ele>519.3</ele>
        <time>2017-06-18T06:23:45Z</time>
      </trkpt>
      <trkpt lat="43.59932" lon="3.06137">
        <ele>519.6</ele>
        <time>2017-06-18T06:23:49Z</time>
      </trkpt>
      <trkpt lat="43.5994" lon="3.06135">
        <ele>519.8</ele>
        <time>2017-06-18T06:23:53Z</time>
      </trkpt>
      <trkpt lat="43.59949" lon="3.06134">
        <ele>520.1</ele>
        <time>2017-06-18T06:23:58Z</time>
      </trkpt>
      <trkpt lat="43.59958" lon="3.06136">
        <ele>520.4</ele>
        <time>2017-06-18T06:24:03Z</time>
      </trkpt>
      <trkpt lat="43.59966" lon="3.06138">
        <ele>520.7</ele>
        <time>2017-06-18T06:24:07Z</time>
      </trkpt>
      <trkpt lat="43.59975" lon="3.0614">
        <ele>521.3</ele>
        <time>2017-06-18T06:24:12Z</time>
      </trkpt>
      <trkpt lat="43.59982" lon="3.06143">
        <ele>521.8</ele>
        <time>2017-06-18T06:24:16Z</time>
      </trkpt>
      <trkpt lat="43.59991" lon="3.06146">
        <ele>522.3</ele>
        <time>2017-06-18T06:24:20Z</time>
      </trkpt>
      <trkpt lat="43.59999" lon="3.06147">
        <ele>522.4</ele>
        <time>2017-06-18T06:24:24Z</time>
      </trkpt>
      <trkpt lat="43.60003" lon="3.06138">
        <ele>522.6</ele>
        <time>2017-06-18T06:24:29Z</time>
      </trkpt>
      <trkpt lat="43.59996" lon="3.06129">
        <ele>523</ele>
        <time>2017-06-18T06:24:34Z</time>
      </trkpt>
      <trkpt lat="43.59988" lon="3.06125">
        <ele>523.5</ele>
        <time>2017-06-18T06:24:38Z</time>
      </trkpt>
      <trkpt lat="43.5998" lon="3.0612">
        <ele>524.3</ele>
        <time>2017-06-18T06:24:43Z</time>
      </trkpt>
      <trkpt lat="43.59973" lon="3.06114">
        <ele>525.1</ele>
        <time>2017-06-18T06:24:48Z</time>
      </trkpt>
      <trkpt lat="43.59966" lon="3.06109">
        <ele>525.8</ele>
        <time>2017-06-18T06:24:52Z</time>
      </trkpt>
      <trkpt lat="43.5996" lon="3.06103">
        <ele>526.3</ele>
        <time>2017-06-18T06:24:56Z</time>
      </trkpt>
      <trkpt lat="43.59953" lon="3.06098">
        <ele>526.9</ele>
        <time>2017-06-18T06:25:00Z</time>
      </trkpt>
      <trkpt lat="43.59946" lon="3.06093">
        <ele>527.5</ele>
        <time>2017-06-18T06:25:04Z</time>
      </trkpt>
      <trkpt lat="43.59941" lon="3.06086">
        <ele>528.2</ele>
        <time>2017-06-18T06:25:08Z</time>
      </trkpt>
      <trkpt lat="43.59934" lon="3.0608">
        <ele>529.1</ele>
        <time>2017-06-18T06:25:13Z</time>
      </trkpt>
      <trkpt lat="43.59926" lon="3.06073">
        <ele>530</ele>
        <time>2017-06-18T06:25:18Z</time>
      </trkpt>
      <trkpt lat="43.5992" lon="3.06067">
        <ele>531.1</ele>
        <time>2017-06-18T06:25:24Z</time>
      </trkpt>
      <trkpt lat="43.59914" lon="3.06059">
        <ele>532.1</ele>
        <time>2017-06-18T06:25:29Z</time>
      </trkpt>
      <trkpt lat="43.59912" lon="3.06049">
        <ele>533.4</ele>
        <time>2017-06-18T06:25:35Z</time>
      </trkpt>
      <trkpt lat="43.59917" lon="3.06049">
        <ele>534.8</ele>
        <time>2017-06-18T06:25:42Z</time>
      </trkpt>
      <trkpt lat="43.59925" lon="3.0605">
        <ele>536.1</ele>
        <time>2017-06-18T06:25:48Z</time>
      </trkpt>
      <trkpt lat="43.59934" lon="3.06053">
        <ele>537</ele>
        <time>2017-06-18T06:25:53Z</time>
      </trkpt>
      <trkpt lat="43.59942" lon="3.06056">
        <ele>538</ele>
        <time>2017-06-18T06:25:58Z</time>
      </trkpt>
      <trkpt lat="43.59951" lon="3.06056">
        <ele>538.9</ele>
        <time>2017-06-18T06:26:03Z</time>
      </trkpt>
      <trkpt lat="43.59958" lon="3.06054">
        <ele>539.4</ele>
        <time>2017-06-18T06:26:07Z</time>
      </trkpt>
      <trkpt lat="43.59965" lon="3.06053">
        <ele>540.1</ele>
        <time>2017-06-18T06:26:11Z</time>
      </trkpt>
      <trkpt lat="43.59974" lon="3.06052">
        <ele>540.9</ele>
        <time>2017-06-18T06:26:16Z</time>
      </trkpt>
      <trkpt lat="43.59982" lon="3.06049">
        <ele>541.9</ele>
        <time>2017-06-18T06:26:22Z</time>
      </trkpt>
      <trkpt lat="43.59989" lon="3.06045">
        <ele>542.4</ele>
        <time>2017-06-18T06:26:26Z</time>
      </trkpt>
      <trkpt lat="43.59996" lon="3.06041">
        <ele>543</ele>
        <time>2017-06-18T06:26:30Z</time>
      </trkpt>
      <trkpt lat="43.60003" lon="3.06037">
        <ele>543.5</ele>
        <time>2017-06-18T06:26:34Z</time>
      </trkpt>
      <trkpt lat="43.60011" lon="3.06032">
        <ele>543.8</ele>
        <time>2017-06-18T06:26:38Z</time>
      </trkpt>
      <trkpt lat="43.60018" lon="3.06028">
        <ele>544.1</ele>
        <time>2017-06-18T06:26:43Z</time>
      </trkpt>
      <trkpt lat="43.60025" lon="3.06023">
        <ele>544.4</ele>
        <time>2017-06-18T06:26:48Z</time>
      </trkpt>
      <trkpt lat="43.60031" lon="3.06016">
        <ele>544.9</ele>
        <time>2017-06-18T06:26:53Z</time>
      </trkpt>
      <trkpt lat="43.60037" lon="3.0601">
        <ele>545.4</ele>
        <time>2017-06-18T06:26:58Z</time>
      </trkpt>
      <trkpt lat="43.60043" lon="3.06003">
        <ele>546.6</ele>
        <time>2017-06-18T06:27:04Z</time>
      </trkpt>
      <trkpt lat="43.60051" lon="3.06">
        <ele>547.5</ele>
        <time>2017-06-18T06:27:09Z</time>
      </trkpt>
      <trkpt lat="43.60059" lon="3.05996">
        <ele>548.3</ele>
        <time>2017-06-18T06:27:14Z</time>
      </trkpt>
      <trkpt lat="43.60067" lon="3.05995">
        <ele>549.2</ele>
        <time>2017-06-18T06:27:19Z</time>
      </trkpt>
      <trkpt lat="43.60074" lon="3.05992">
        <ele>550.2</ele>
        <time>2017-06-18T06:27:25Z</time>
      </trkpt>
      <trkpt lat="43.60083" lon="3.0599">
        <ele>550.9</ele>
        <time>2017-06-18T06:27:30Z</time>
      </trkpt>
      <trkpt lat="43.6009" lon="3.05987">
        <ele>551.5</ele>
        <time>2017-06-18T06:27:34Z</time>
      </trkpt>
      <trkpt lat="43.60096" lon="3.05982">
        <ele>552.6</ele>
        <time>2017-06-18T06:27:39Z</time>
      </trkpt>
      <trkpt lat="43.60103" lon="3.05977">
        <ele>553.7</ele>
        <time>2017-06-18T06:27:44Z</time>
      </trkpt>
      <trkpt lat="43.60111" lon="3.05972">
        <ele>555</ele>
        <time>2017-06-18T06:27:50Z</time>
      </trkpt>
      <trkpt lat="43.60119" lon="3.0597">
        <ele>556.7</ele>
        <time>2017-06-18T06:27:56Z</time>
      </trkpt>
      <trkpt lat="43.60127" lon="3.05968">
        <ele>558.4</ele>
        <time>2017-06-18T06:28:02Z</time>
      </trkpt>
      <trkpt lat="43.60134" lon="3.05968">
        <ele>559.7</ele>
        <time>2017-06-18T06:28:08Z</time>
      </trkpt>
      <trkpt lat="43.60143" lon="3.0597">
        <ele>560.8</ele>
        <time>2017-06-18T06:28:13Z</time>
      </trkpt>
      <trkpt lat="43.60152" lon="3.05972">
        <ele>561.6</ele>
        <time>2017-06-18T06:28:18Z</time>
      </trkpt>
      <trkpt lat="43.6016" lon="3.05975">
        <ele>563</ele>
        <time>2017-06-18T06:28:23Z</time>
      </trkpt>
      <trkpt lat="43.60167" lon="3.05978">
        <ele>564.2</ele>
        <time>2017-06-18T06:28:28Z</time>
      </trkpt>
      <trkpt lat="43.60175" lon="3.0598">
        <ele>565.6</ele>
        <time>2017-06-18T06:28:35Z</time>
      </trkpt>
      <trkpt lat="43.60183" lon="3.05983">
        <ele>567.1</ele>
        <time>2017-06-18T06:28:40Z</time>
      </trkpt>
      <trkpt lat="43.60192" lon="3.05987">
        <ele>568.5</ele>
        <time>2017-06-18T06:28:45Z</time>
      </trkpt>
      <trkpt lat="43.60198" lon="3.05992">
        <ele>569.4</ele>
        <time>2017-06-18T06:28:50Z</time>
      </trkpt>
      <trkpt lat="43.60206" lon="3.05998">
        <ele>570.6</ele>
        <time>2017-06-18T06:28:54Z</time>
      </trkpt>
      <trkpt lat="43.60212" lon="3.06005">
        <ele>571.7</ele>
        <time>2017-06-18T06:28:59Z</time>
      </trkpt>
      <trkpt lat="43.60218" lon="3.06012">
        <ele>572.7</ele>
        <time>2017-06-18T06:29:04Z</time>
      </trkpt>
      <trkpt lat="43.60225" lon="3.06017">
        <ele>573.5</ele>
        <time>2017-06-18T06:29:08Z</time>
      </trkpt>
      <trkpt lat="43.6023" lon="3.06025">
        <ele>574.3</ele>
        <time>2017-06-18T06:29:12Z</time>
      </trkpt>
      <trkpt lat="43.60237" lon="3.06032">
        <ele>575.1</ele>
        <time>2017-06-18T06:29:17Z</time>
      </trkpt>
      <trkpt lat="43.60243" lon="3.06039">
        <ele>575.6</ele>
        <time>2017-06-18T06:29:22Z</time>
      </trkpt>
      <trkpt lat="43.6025" lon="3.06044">
        <ele>576.3</ele>
        <time>2017-06-18T06:29:28Z</time>
      </trkpt>
      <trkpt lat="43.60258" lon="3.06048">
        <ele>576.6</ele>
        <time>2017-06-18T06:29:33Z</time>
      </trkpt>
      <trkpt lat="43.60264" lon="3.06054">
        <ele>577.2</ele>
        <time>2017-06-18T06:29:38Z</time>
      </trkpt>
      <trkpt lat="43.60271" lon="3.06059">
        <ele>577.8</ele>
        <time>2017-06-18T06:29:42Z</time>
      </trkpt>
      <trkpt lat="43.60278" lon="3.06062">
        <ele>578.4</ele>
        <time>2017-06-18T06:29:47Z</time>
      </trkpt>
      <trkpt lat="43.60286" lon="3.06064">
        <ele>578.8</ele>
        <time>2017-06-18T06:29:53Z</time>
      </trkpt>
      <trkpt lat="43.60294" lon="3.06066">
        <ele>579.1</ele>
        <time>2017-06-18T06:29:58Z</time>
      </trkpt>
      <trkpt lat="43.60301" lon="3.06066">
        <ele>579.6</ele>
        <time>2017-06-18T06:30:03Z</time>
      </trkpt>
      <trkpt lat="43.6031" lon="3.06068">
        <ele>580.7</ele>
        <time>2017-06-18T06:30:08Z</time>
      </trkpt>
      <trkpt lat="43.60317" lon="3.06072">
        <ele>581.7</ele>
        <time>2017-06-18T06:30:12Z</time>
      </trkpt>
      <trkpt lat="43.60324" lon="3.06077">
        <ele>582.4</ele>
        <time>2017-06-18T06:30:17Z</time>
      </trkpt>
      <trkpt lat="43.60333" lon="3.06079">
        <ele>582.9</ele>
        <time>2017-06-18T06:30:22Z</time>
      </trkpt>
      <trkpt lat="43.60342" lon="3.06085">
        <ele>583.2</ele>
        <time>2017-06-18T06:30:26Z</time>
      </trkpt>
      <trkpt lat="43.60349" lon="3.06087">
        <ele>583.2</ele>
        <time>2017-06-18T06:30:30Z</time>
      </trkpt>
      <trkpt lat="43.60357" lon="3.06089">
        <ele>583.3</ele>
        <time>2017-06-18T06:30:34Z</time>
      </trkpt>
      <trkpt lat="43.60364" lon="3.06092">
        <ele>583.2</ele>
        <time>2017-06-18T06:30:38Z</time>
      </trkpt>
      <trkpt lat="43.60372" lon="3.06094">
        <ele>583.4</ele>
        <time>2017-06-18T06:30:42Z</time>
      </trkpt>
      <trkpt lat="43.6038" lon="3.06095">
        <ele>583.7</ele>
        <time>2017-06-18T06:30:46Z</time>
      </trkpt>
      <trkpt lat="43.60388" lon="3.06097">
        <ele>584</ele>
        <time>2017-06-18T06:30:50Z</time>
      </trkpt>
      <trkpt lat="43.60395" lon="3.06097">
        <ele>584.2</ele>
        <time>2017-06-18T06:30:54Z</time>
      </trkpt>
      <trkpt lat="43.60403" lon="3.06097">
        <ele>584.3</ele>
        <time>2017-06-18T06:30:58Z</time>
      </trkpt>
      <trkpt lat="43.6041" lon="3.06097">
        <ele>584.5</ele>
        <time>2017-06-18T06:31:02Z</time>
      </trkpt>
      <trkpt lat="43.60419" lon="3.06095">
        <ele>584.6</ele>
        <time>2017-06-18T06:31:07Z</time>
      </trkpt>
      <trkpt lat="43.60427" lon="3.06093">
        <ele>584.6</ele>
        <time>2017-06-18T06:31:11Z</time>
      </trkpt>
      <trkpt lat="43.60434" lon="3.06091">
        <ele>584.6</ele>
        <time>2017-06-18T06:31:15Z</time>
      </trkpt>
      <trkpt lat="43.60441" lon="3.06087">
        <ele>585.1</ele>
        <time>2017-06-18T06:31:19Z</time>
      </trkpt>
      <trkpt lat="43.60448" lon="3.06082">
        <ele>585.7</ele>
        <time>2017-06-18T06:31:24Z</time>
      </trkpt>
      <trkpt lat="43.60455" lon="3.06077">
        <ele>586.5</ele>
        <time>2017-06-18T06:31:28Z</time>
      </trkpt>
      <trkpt lat="43.60463" lon="3.06068">
        <ele>586.9</ele>
        <time>2017-06-18T06:31:32Z</time>
      </trkpt>
      <trkpt lat="43.60469" lon="3.06062">
        <ele>587.4</ele>
        <time>2017-06-18T06:31:37Z</time>
      </trkpt>
      <trkpt lat="43.60475" lon="3.06052">
        <ele>588</ele>
        <time>2017-06-18T06:31:42Z</time>
      </trkpt>
      <trkpt lat="43.60481" lon="3.06045">
        <ele>588.4</ele>
        <time>2017-06-18T06:31:46Z</time>
      </trkpt>
      <trkpt lat="43.60486" lon="3.06035">
        <ele>589</ele>
        <time>2017-06-18T06:31:51Z</time>
      </trkpt>
      <trkpt lat="43.6049" lon="3.06025">
        <ele>589.5</ele>
        <time>2017-06-18T06:31:55Z</time>
      </trkpt>
      <trkpt lat="43.60495" lon="3.06017">
        <ele>590.4</ele>
        <time>2017-06-18T06:32:00Z</time>
      </trkpt>
      <trkpt lat="43.605" lon="3.06008">
        <ele>591.1</ele>
        <time>2017-06-18T06:32:04Z</time>
      </trkpt>
      <trkpt lat="43.60507" lon="3.06002">
        <ele>592.4</ele>
        <time>2017-06-18T06:32:10Z</time>
      </trkpt>
      <trkpt lat="43.60516" lon="3.05999">
        <ele>593.7</ele>
        <time>2017-06-18T06:32:15Z</time>
      </trkpt>
      <trkpt lat="43.60524" lon="3.05995">
        <ele>594.7</ele>
        <time>2017-06-18T06:32:19Z</time>
      </trkpt>
      <trkpt lat="43.60531" lon="3.05991">
        <ele>595.9</ele>
        <time>2017-06-18T06:32:24Z</time>
      </trkpt>
      <trkpt lat="43.60539" lon="3.05987">
        <ele>596.9</ele>
        <time>2017-06-18T06:32:28Z</time>
      </trkpt>
      <trkpt lat="43.60546" lon="3.05979">
        <ele>598.3</ele>
        <time>2017-06-18T06:32:33Z</time>
      </trkpt>
      <trkpt lat="43.60554" lon="3.05974">
        <ele>599.4</ele>
        <time>2017-06-18T06:32:38Z</time>
      </trkpt>
      <trkpt lat="43.60559" lon="3.05967">
        <ele>600.7</ele>
        <time>2017-06-18T06:32:42Z</time>
      </trkpt>
      <trkpt lat="43.60564" lon="3.05957">
        <ele>602.2</ele>
        <time>2017-06-18T06:32:47Z</time>
      </trkpt>
      <trkpt lat="43.60567" lon="3.05948">
        <ele>602.9</ele>
        <time>2017-06-18T06:32:51Z</time>
      </trkpt>
      <trkpt lat="43.60569" lon="3.05936">
        <ele>603.5</ele>
        <time>2017-06-18T06:32:56Z</time>
      </trkpt>
      <trkpt lat="43.60573" lon="3.05925">
        <ele>604.3</ele>
        <time>2017-06-18T06:33:01Z</time>
      </trkpt>
      <trkpt lat="43.60578" lon="3.05916">
        <ele>604.9</ele>
        <time>2017-06-18T06:33:06Z</time>
      </trkpt>
      <trkpt lat="43.6058" lon="3.05907">
        <ele>605.3</ele>
        <time>2017-06-18T06:33:10Z</time>
      </trkpt>
      <trkpt lat="43.60585" lon="3.05898">
        <ele>606.3</ele>
        <time>2017-06-18T06:33:15Z</time>
      </trkpt>
      <trkpt lat="43.6059" lon="3.05888">
        <ele>607.1</ele>
        <time>2017-06-18T06:33:19Z</time>
      </trkpt>
      <trkpt lat="43.60593" lon="3.05877">
        <ele>608.7</ele>
        <time>2017-06-18T06:33:25Z</time>
      </trkpt>
      <trkpt lat="43.60593" lon="3.05865">
        <ele>609.3</ele>
        <time>2017-06-18T06:33:29Z</time>
      </trkpt>
      <trkpt lat="43.60594" lon="3.05854">
        <ele>609.7</ele>
        <time>2017-06-18T06:33:34Z</time>
      </trkpt>
      <trkpt lat="43.60598" lon="3.05843">
        <ele>610.6</ele>
        <time>2017-06-18T06:33:39Z</time>
      </trkpt>
      <trkpt lat="43.606" lon="3.05833">
        <ele>611.5</ele>
        <time>2017-06-18T06:33:44Z</time>
      </trkpt>
      <trkpt lat="43.60603" lon="3.05822">
        <ele>612.3</ele>
        <time>2017-06-18T06:33:48Z</time>
      </trkpt>
      <trkpt lat="43.60606" lon="3.05813">
        <ele>613.4</ele>
        <time>2017-06-18T06:33:53Z</time>
      </trkpt>
      <trkpt lat="43.60609" lon="3.05803">
        <ele>614.2</ele>
        <time>2017-06-18T06:33:56Z</time>
      </trkpt>
      <trkpt lat="43.60612" lon="3.05793">
        <ele>615</ele>
        <time>2017-06-18T06:34:00Z</time>
      </trkpt>
      <trkpt lat="43.60616" lon="3.05783">
        <ele>615.8</ele>
        <time>2017-06-18T06:34:04Z</time>
      </trkpt>
      <trkpt lat="43.6062" lon="3.05774">
        <ele>616.4</ele>
        <time>2017-06-18T06:34:07Z</time>
      </trkpt>
      <trkpt lat="43.60622" lon="3.05763">
        <ele>616.5</ele>
        <time>2017-06-18T06:34:11Z</time>
      </trkpt>
      <trkpt lat="43.60625" lon="3.05753">
        <ele>617</ele>
        <time>2017-06-18T06:34:16Z</time>
      </trkpt>
      <trkpt lat="43.60627" lon="3.05744">
        <ele>617.3</ele>
        <time>2017-06-18T06:34:19Z</time>
      </trkpt>
      <trkpt lat="43.60631" lon="3.05734">
        <ele>618.4</ele>
        <time>2017-06-18T06:34:25Z</time>
      </trkpt>
      <trkpt lat="43.60634" lon="3.05724">
        <ele>618.8</ele>
        <time>2017-06-18T06:34:28Z</time>
      </trkpt>
      <trkpt lat="43.60636" lon="3.05714">
        <ele>619.6</ele>
        <time>2017-06-18T06:34:33Z</time>
      </trkpt>
      <trkpt lat="43.60639" lon="3.05703">
        <ele>620.7</ele>
        <time>2017-06-18T06:34:39Z</time>
      </trkpt>
      <trkpt lat="43.60641" lon="3.05692">
        <ele>621.9</ele>
        <time>2017-06-18T06:34:44Z</time>
      </trkpt>
      <trkpt lat="43.60641" lon="3.05682">
        <ele>623</ele>
        <time>2017-06-18T06:34:48Z</time>
      </trkpt>
      <trkpt lat="43.60641" lon="3.05671">
        <ele>624</ele>
        <time>2017-06-18T06:34:52Z</time>
      </trkpt>
      <trkpt lat="43.60642" lon="3.05658">
        <ele>625.3</ele>
        <time>2017-06-18T06:34:57Z</time>
      </trkpt>
      <trkpt lat="43.60643" lon="3.05648">
        <ele>626.7</ele>
        <time>2017-06-18T06:35:02Z</time>
      </trkpt>
      <trkpt lat="43.60644" lon="3.05637">
        <ele>627.9</ele>
        <time>2017-06-18T06:35:06Z</time>
      </trkpt>
      <trkpt lat="43.60645" lon="3.05626">
        <ele>629</ele>
        <time>2017-06-18T06:35:10Z</time>
      </trkpt>
      <trkpt lat="43.60645" lon="3.05614">
        <ele>629.8</ele>
        <time>2017-06-18T06:35:13Z</time>
      </trkpt>
      <trkpt lat="43.60645" lon="3.05603">
        <ele>630.7</ele>
        <time>2017-06-18T06:35:17Z</time>
      </trkpt>
      <trkpt lat="43.60646" lon="3.05593">
        <ele>632.2</ele>
        <time>2017-06-18T06:35:22Z</time>
      </trkpt>
      <trkpt lat="43.60647" lon="3.05582">
        <ele>633.9</ele>
        <time>2017-06-18T06:35:28Z</time>
      </trkpt>
      <trkpt lat="43.60649" lon="3.05569">
        <ele>634.8</ele>
        <time>2017-06-18T06:35:32Z</time>
      </trkpt>
      <trkpt lat="43.60651" lon="3.05558">
        <ele>635.3</ele>
        <time>2017-06-18T06:35:35Z</time>
      </trkpt>
      <trkpt lat="43.60654" lon="3.05547">
        <ele>635.7</ele>
        <time>2017-06-18T06:35:40Z</time>
      </trkpt>
      <trkpt lat="43.60659" lon="3.05538">
        <ele>636.1</ele>
        <time>2017-06-18T06:35:45Z</time>
      </trkpt>
      <trkpt lat="43.60663" lon="3.05529">
        <ele>636.9</ele>
        <time>2017-06-18T06:35:49Z</time>
      </trkpt>
      <trkpt lat="43.6067" lon="3.05521">
        <ele>637.7</ele>
        <time>2017-06-18T06:35:54Z</time>
      </trkpt>
      <trkpt lat="43.60678" lon="3.05517">
        <ele>637.8</ele>
        <time>2017-06-18T06:35:58Z</time>
      </trkpt>
      <trkpt lat="43.60686" lon="3.05512">
        <ele>637.8</ele>
        <time>2017-06-18T06:36:03Z</time>
      </trkpt>
      <trkpt lat="43.60694" lon="3.05507">
        <ele>637.8</ele>
        <time>2017-06-18T06:36:08Z</time>
      </trkpt>
      <trkpt lat="43.607" lon="3.05501">
        <ele>638.1</ele>
        <time>2017-06-18T06:36:11Z</time>
      </trkpt>
      <trkpt lat="43.60705" lon="3.05495">
        <ele>638.3</ele>
        <time>2017-06-18T06:36:14Z</time>
      </trkpt>
      <trkpt lat="43.60711" lon="3.05487">
        <ele>638.3</ele>
        <time>2017-06-18T06:36:18Z</time>
      </trkpt>
      <trkpt lat="43.60715" lon="3.05479">
        <ele>638</ele>
        <time>2017-06-18T06:36:23Z</time>
      </trkpt>
      <trkpt lat="43.60721" lon="3.05472">
        <ele>638.1</ele>
        <time>2017-06-18T06:36:27Z</time>
      </trkpt>
      <trkpt lat="43.60725" lon="3.05463">
        <ele>638.4</ele>
        <time>2017-06-18T06:36:31Z</time>
      </trkpt>
      <trkpt lat="43.60732" lon="3.05455">
        <ele>639</ele>
        <time>2017-06-18T06:36:35Z</time>
      </trkpt>
      <trkpt lat="43.60739" lon="3.05444">
        <ele>639.7</ele>
        <time>2017-06-18T06:36:40Z</time>
      </trkpt>
      <trkpt lat="43.60744" lon="3.05438">
        <ele>639.9</ele>
        <time>2017-06-18T06:36:44Z</time>
      </trkpt>
      <trkpt lat="43.6075" lon="3.0543">
        <ele>640</ele>
        <time>2017-06-18T06:36:49Z</time>
      </trkpt>
      <trkpt lat="43.60754" lon="3.05423">
        <ele>640.5</ele>
        <time>2017-06-18T06:36:54Z</time>
      </trkpt>
      <trkpt lat="43.60761" lon="3.05412">
        <ele>640.6</ele>
        <time>2017-06-18T06:36:59Z</time>
      </trkpt>
      <trkpt lat="43.60767" lon="3.05404">
        <ele>640.5</ele>
        <time>2017-06-18T06:37:03Z</time>
      </trkpt>
      <trkpt lat="43.60773" lon="3.05394">
        <ele>640.2</ele>
        <time>2017-06-18T06:37:08Z</time>
      </trkpt>
      <trkpt lat="43.60779" lon="3.05387">
        <ele>639.8</ele>
        <time>2017-06-18T06:37:12Z</time>
      </trkpt>
      <trkpt lat="43.60785" lon="3.05382">
        <ele>639.7</ele>
        <time>2017-06-18T06:37:16Z</time>
      </trkpt>
      <trkpt lat="43.60791" lon="3.05375">
        <ele>639.8</ele>
        <time>2017-06-18T06:37:20Z</time>
      </trkpt>
      <trkpt lat="43.60798" lon="3.05367">
        <ele>640.1</ele>
        <time>2017-06-18T06:37:25Z</time>
      </trkpt>
      <trkpt lat="43.60803" lon="3.05359">
        <ele>640.1</ele>
        <time>2017-06-18T06:37:28Z</time>
      </trkpt>
      <trkpt lat="43.60808" lon="3.05349">
        <ele>639.8</ele>
        <time>2017-06-18T06:37:33Z</time>
      </trkpt>
      <trkpt lat="43.60814" lon="3.05341">
        <ele>639.6</ele>
        <time>2017-06-18T06:37:37Z</time>
      </trkpt>
      <trkpt lat="43.6082" lon="3.05336">
        <ele>639.9</ele>
        <time>2017-06-18T06:37:41Z</time>
      </trkpt>
      <trkpt lat="43.60827" lon="3.05328">
        <ele>640.3</ele>
        <time>2017-06-18T06:37:45Z</time>
      </trkpt>
      <trkpt lat="43.60831" lon="3.05319">
        <ele>640.5</ele>
        <time>2017-06-18T06:37:49Z</time>
      </trkpt>
      <trkpt lat="43.60836" lon="3.0531">
        <ele>640.5</ele>
        <time>2017-06-18T06:37:53Z</time>
      </trkpt>
      <trkpt lat="43.60841" lon="3.05299">
        <ele>640.7</ele>
        <time>2017-06-18T06:37:58Z</time>
      </trkpt>
      <trkpt lat="43.60844" lon="3.05288">
        <ele>640.6</ele>
        <time>2017-06-18T06:38:03Z</time>
      </trkpt>
      <trkpt lat="43.60848" lon="3.05279">
        <ele>640.5</ele>
        <time>2017-06-18T06:38:08Z</time>
      </trkpt>
      <trkpt lat="43.60852" lon="3.05271">
        <ele>640.5</ele>
        <time>2017-06-18T06:38:12Z</time>
      </trkpt>
      <trkpt lat="43.60856" lon="3.05261">
        <ele>640.4</ele>
        <time>2017-06-18T06:38:15Z</time>
      </trkpt>
      <trkpt lat="43.6086" lon="3.05252">
        <ele>640.3</ele>
        <time>2017-06-18T06:38:20Z</time>
      </trkpt>
      <trkpt lat="43.60867" lon="3.05245">
        <ele>640</ele>
        <time>2017-06-18T06:38:25Z</time>
      </trkpt>
      <trkpt lat="43.60875" lon="3.05239">
        <ele>640</ele>
        <time>2017-06-18T06:38:29Z</time>
      </trkpt>
      <trkpt lat="43.60882" lon="3.05233">
        <ele>639.9</ele>
        <time>2017-06-18T06:38:34Z</time>
      </trkpt>
      <trkpt lat="43.60889" lon="3.05225">
        <ele>639.8</ele>
        <time>2017-06-18T06:38:38Z</time>
      </trkpt>
      <trkpt lat="43.60896" lon="3.05217">
        <ele>639.5</ele>
        <time>2017-06-18T06:38:43Z</time>
      </trkpt>
      <trkpt lat="43.60897" lon="3.05217">
        <ele>639.5</ele>
        <time>2017-06-18T06:38:50Z</time>
      </trkpt>
      <trkpt lat="43.6089" lon="3.0522">
        <ele>639.4</ele>
        <time>2017-06-18T06:38:57Z</time>
      </trkpt>
      <trkpt lat="43.60891" lon="3.05222">
        <ele>638.7</ele>
        <time>2017-06-18T06:39:04Z</time>
      </trkpt>
      <trkpt lat="43.60896" lon="3.05214">
        <ele>638.5</ele>
        <time>2017-06-18T06:39:10Z</time>
      </trkpt>
      <trkpt lat="43.60897" lon="3.05216">
        <ele>638.8</ele>
        <time>2017-06-18T06:39:17Z</time>
      </trkpt>
      <trkpt lat="43.60898" lon="3.05214">
        <ele>639</ele>
        <time>2017-06-18T06:39:24Z</time>
      </trkpt>
      <trkpt lat="43.60903" lon="3.05213">
        <ele>639.1</ele>
        <time>2017-06-18T06:39:31Z</time>
      </trkpt>
      <trkpt lat="43.60905" lon="3.05207">
        <ele>639.1</ele>
        <time>2017-06-18T06:39:38Z</time>
      </trkpt>
      <trkpt lat="43.60902" lon="3.05202">
        <ele>639</ele>
        <time>2017-06-18T06:39:45Z</time>
      </trkpt>
      <trkpt lat="43.60898" lon="3.05211">
        <ele>639</ele>
        <time>2017-06-18T06:39:51Z</time>
      </trkpt>
      <trkpt lat="43.60897" lon="3.05222">
        <ele>639.1</ele>
        <time>2017-06-18T06:39:57Z</time>
      </trkpt>
      <trkpt lat="43.60897" lon="3.05228">
        <ele>639.5</ele>
        <time>2017-06-18T06:40:04Z</time>
      </trkpt>
      <trkpt lat="43.60898" lon="3.05225">
        <ele>640.3</ele>
        <time>2017-06-18T06:40:16Z</time>
      </trkpt>
      <trkpt lat="43.609" lon="3.05224">
        <ele>640.8</ele>
        <time>2017-06-18T06:40:26Z</time>
      </trkpt>
      <trkpt lat="43.60905" lon="3.05224">
        <ele>641</ele>
        <time>2017-06-18T06:40:33Z</time>
      </trkpt>
      <trkpt lat="43.60905" lon="3.05223">
        <ele>641.7</ele>
        <time>2017-06-18T06:41:11Z</time>
      </trkpt>
      <trkpt lat="43.609" lon="3.0522">
        <ele>642.3</ele>
        <time>2017-06-18T06:41:41Z</time>
      </trkpt>
      <trkpt lat="43.609" lon="3.05208">
        <ele>642.7</ele>
        <time>2017-06-18T06:41:45Z</time>
      </trkpt>
      <trkpt lat="43.60905" lon="3.05201">
        <ele>642.7</ele>
        <time>2017-06-18T06:41:49Z</time>
      </trkpt>
      <trkpt lat="43.60912" lon="3.05196">
        <ele>642.4</ele>
        <time>2017-06-18T06:41:54Z</time>
      </trkpt>
      <trkpt lat="43.60919" lon="3.05191">
        <ele>642.6</ele>
        <time>2017-06-18T06:41:58Z</time>
      </trkpt>
      <trkpt lat="43.60926" lon="3.05186">
        <ele>642.9</ele>
        <time>2017-06-18T06:42:01Z</time>
      </trkpt>
      <trkpt lat="43.60934" lon="3.05182">
        <ele>643.1</ele>
        <time>2017-06-18T06:42:04Z</time>
      </trkpt>
      <trkpt lat="43.60943" lon="3.05176">
        <ele>643.5</ele>
        <time>2017-06-18T06:42:08Z</time>
      </trkpt>
      <trkpt lat="43.60952" lon="3.05171">
        <ele>643.6</ele>
        <time>2017-06-18T06:42:12Z</time>
      </trkpt>
      <trkpt lat="43.60958" lon="3.05166">
        <ele>643.5</ele>
        <time>2017-06-18T06:42:15Z</time>
      </trkpt>
      <trkpt lat="43.60966" lon="3.0516">
        <ele>643.3</ele>
        <time>2017-06-18T06:42:18Z</time>
      </trkpt>
      <trkpt lat="43.60973" lon="3.05154">
        <ele>643.1</ele>
        <time>2017-06-18T06:42:21Z</time>
      </trkpt>
      <trkpt lat="43.60981" lon="3.05147">
        <ele>643</ele>
        <time>2017-06-18T06:42:24Z</time>
      </trkpt>
      <trkpt lat="43.60988" lon="3.05139">
        <ele>642.8</ele>
        <time>2017-06-18T06:42:27Z</time>
      </trkpt>
      <trkpt lat="43.60995" lon="3.0513">
        <ele>642.5</ele>
        <time>2017-06-18T06:42:30Z</time>
      </trkpt>
      <trkpt lat="43.61" lon="3.05122">
        <ele>642.2</ele>
        <time>2017-06-18T06:42:33Z</time>
      </trkpt>
      <trkpt lat="43.61005" lon="3.05113">
        <ele>642</ele>
        <time>2017-06-18T06:42:36Z</time>
      </trkpt>
      <trkpt lat="43.61008" lon="3.05104">
        <ele>642</ele>
        <time>2017-06-18T06:42:39Z</time>
      </trkpt>
      <trkpt lat="43.61009" lon="3.05094">
        <ele>642.1</ele>
        <time>2017-06-18T06:42:42Z</time>
      </trkpt>
      <trkpt lat="43.6101" lon="3.05082">
        <ele>642.2</ele>
        <time>2017-06-18T06:42:45Z</time>
      </trkpt>
      <trkpt lat="43.61011" lon="3.05072">
        <ele>642.5</ele>
        <time>2017-06-18T06:42:48Z</time>
      </trkpt>
      <trkpt lat="43.61011" lon="3.05061">
        <ele>642.7</ele>
        <time>2017-06-18T06:42:51Z</time>
      </trkpt>
      <trkpt lat="43.61012" lon="3.05048">
        <ele>642.8</ele>
        <time>2017-06-18T06:42:54Z</time>
      </trkpt>
      <trkpt lat="43.61015" lon="3.05036">
        <ele>643</ele>
        <time>2017-06-18T06:42:57Z</time>
      </trkpt>
      <trkpt lat="43.61022" lon="3.05023">
        <ele>643.1</ele>
        <time>2017-06-18T06:43:00Z</time>
      </trkpt>
      <trkpt lat="43.61028" lon="3.0501">
        <ele>643.2</ele>
        <time>2017-06-18T06:43:03Z</time>
      </trkpt>
      <trkpt lat="43.61035" lon="3.05003">
        <ele>643.4</ele>
        <time>2017-06-18T06:43:06Z</time>
      </trkpt>
      <trkpt lat="43.61043" lon="3.04997">
        <ele>643.5</ele>
        <time>2017-06-18T06:43:09Z</time>
      </trkpt>
      <trkpt lat="43.61051" lon="3.04992">
        <ele>643.6</ele>
        <time>2017-06-18T06:43:12Z</time>
      </trkpt>
      <trkpt lat="43.61059" lon="3.04993">
        <ele>643.6</ele>
        <time>2017-06-18T06:43:15Z</time>
      </trkpt>
      <trkpt lat="43.61067" lon="3.04998">
        <ele>643.9</ele>
        <time>2017-06-18T06:43:19Z</time>
      </trkpt>
      <trkpt lat="43.6107" lon="3.0501">
        <ele>644</ele>
        <time>2017-06-18T06:43:23Z</time>
      </trkpt>
      <trkpt lat="43.61073" lon="3.05021">
        <ele>644</ele>
        <time>2017-06-18T06:43:26Z</time>
      </trkpt>
      <trkpt lat="43.61078" lon="3.05032">
        <ele>644.1</ele>
        <time>2017-06-18T06:43:29Z</time>
      </trkpt>
      <trkpt lat="43.61085" lon="3.05039">
        <ele>644.2</ele>
        <time>2017-06-18T06:43:33Z</time>
      </trkpt>
      <trkpt lat="43.61092" lon="3.05047">
        <ele>644</ele>
        <time>2017-06-18T06:43:37Z</time>
      </trkpt>
      <trkpt lat="43.611" lon="3.05054">
        <ele>643.6</ele>
        <time>2017-06-18T06:43:40Z</time>
      </trkpt>
      <trkpt lat="43.61108" lon="3.0506">
        <ele>643.3</ele>
        <time>2017-06-18T06:43:42Z</time>
      </trkpt>
      <trkpt lat="43.61114" lon="3.05064">
        <ele>642.9</ele>
        <time>2017-06-18T06:43:45Z</time>
      </trkpt>
      <trkpt lat="43.61121" lon="3.0507">
        <ele>642.5</ele>
        <time>2017-06-18T06:43:50Z</time>
      </trkpt>
      <trkpt lat="43.61127" lon="3.05075">
        <ele>642.3</ele>
        <time>2017-06-18T06:43:57Z</time>
      </trkpt>
      <trkpt lat="43.61129" lon="3.05081">
        <ele>641.8</ele>
        <time>2017-06-18T06:44:04Z</time>
      </trkpt>
      <trkpt lat="43.61126" lon="3.05088">
        <ele>641.8</ele>
        <time>2017-06-18T06:44:11Z</time>
      </trkpt>
      <trkpt lat="43.61128" lon="3.05096">
        <ele>638.9</ele>
        <time>2017-06-18T06:44:39Z</time>
      </trkpt>
      <trkpt lat="43.61131" lon="3.05095">
        <ele>638.8</ele>
        <time>2017-06-18T06:44:46Z</time>
      </trkpt>
      <trkpt lat="43.61134" lon="3.05098">
        <ele>637.7</ele>
        <time>2017-06-18T06:45:00Z</time>
      </trkpt>
      <trkpt lat="43.61135" lon="3.05111">
        <ele>637</ele>
        <time>2017-06-18T06:45:07Z</time>
      </trkpt>
      <trkpt lat="43.61135" lon="3.05121">
        <ele>636.6</ele>
        <time>2017-06-18T06:45:10Z</time>
      </trkpt>
      <trkpt lat="43.61138" lon="3.05134">
        <ele>636.1</ele>
        <time>2017-06-18T06:45:13Z</time>
      </trkpt>
      <trkpt lat="43.6114" lon="3.05144">
        <ele>635.9</ele>
        <time>2017-06-18T06:45:15Z</time>
      </trkpt>
      <trkpt lat="43.61146" lon="3.05153">
        <ele>635.6</ele>
        <time>2017-06-18T06:45:18Z</time>
      </trkpt>
      <trkpt lat="43.61153" lon="3.0516">
        <ele>635.1</ele>
        <time>2017-06-18T06:45:21Z</time>
      </trkpt>
      <trkpt lat="43.61159" lon="3.05153">
        <ele>633.7</ele>
        <time>2017-06-18T06:45:28Z</time>
      </trkpt>
      <trkpt lat="43.61159" lon="3.05148">
        <ele>633.6</ele>
        <time>2017-06-18T06:46:15Z</time>
      </trkpt>
      <trkpt lat="43.61155" lon="3.05138">
        <ele>633.4</ele>
        <time>2017-06-18T06:46:18Z</time>
      </trkpt>
      <trkpt lat="43.61152" lon="3.05129">
        <ele>633.3</ele>
        <time>2017-06-18T06:46:21Z</time>
      </trkpt>
      <trkpt lat="43.61147" lon="3.05118">
        <ele>632.8</ele>
        <time>2017-06-18T06:46:26Z</time>
      </trkpt>
      <trkpt lat="43.61142" lon="3.05109">
        <ele>632.8</ele>
        <time>2017-06-18T06:46:30Z</time>
      </trkpt>
      <trkpt lat="43.61138" lon="3.05099">
        <ele>632.8</ele>
        <time>2017-06-18T06:46:34Z</time>
      </trkpt>
      <trkpt lat="43.61133" lon="3.05089">
        <ele>633</ele>
        <time>2017-06-18T06:46:40Z</time>
      </trkpt>
      <trkpt lat="43.61131" lon="3.05078">
        <ele>633.6</ele>
        <time>2017-06-18T06:46:45Z</time>
      </trkpt>
      <trkpt lat="43.61126" lon="3.0507">
        <ele>634.2</ele>
        <time>2017-06-18T06:46:50Z</time>
      </trkpt>
      <trkpt lat="43.61119" lon="3.05065">
        <ele>634.6</ele>
        <time>2017-06-18T06:46:54Z</time>
      </trkpt>
      <trkpt lat="43.61113" lon="3.05061">
        <ele>635.4</ele>
        <time>2017-06-18T06:46:59Z</time>
      </trkpt>
      <trkpt lat="43.61105" lon="3.05055">
        <ele>636.1</ele>
        <time>2017-06-18T06:47:04Z</time>
      </trkpt>
      <trkpt lat="43.61098" lon="3.05051">
        <ele>636.7</ele>
        <time>2017-06-18T06:47:09Z</time>
      </trkpt>
      <trkpt lat="43.61093" lon="3.05045">
        <ele>637.2</ele>
        <time>2017-06-18T06:47:14Z</time>
      </trkpt>
      <trkpt lat="43.61086" lon="3.05037">
        <ele>637.3</ele>
        <time>2017-06-18T06:47:19Z</time>
      </trkpt>
      <trkpt lat="43.61081" lon="3.05032">
        <ele>637.4</ele>
        <time>2017-06-18T06:47:23Z</time>
      </trkpt>
      <trkpt lat="43.61075" lon="3.05024">
        <ele>637.9</ele>
        <time>2017-06-18T06:47:28Z</time>
      </trkpt>
      <trkpt lat="43.61072" lon="3.05013">
        <ele>639.1</ele>
        <time>2017-06-18T06:47:34Z</time>
      </trkpt>
      <trkpt lat="43.6107" lon="3.05003">
        <ele>640</ele>
        <time>2017-06-18T06:47:38Z</time>
      </trkpt>
      <trkpt lat="43.61063" lon="3.04995">
        <ele>640.8</ele>
        <time>2017-06-18T06:47:44Z</time>
      </trkpt>
      <trkpt lat="43.61056" lon="3.04994">
        <ele>641.4</ele>
        <time>2017-06-18T06:47:47Z</time>
      </trkpt>
      <trkpt lat="43.61046" lon="3.04995">
        <ele>642.3</ele>
        <time>2017-06-18T06:47:52Z</time>
      </trkpt>
      <trkpt lat="43.61038" lon="3.05001">
        <ele>642.6</ele>
        <time>2017-06-18T06:47:55Z</time>
      </trkpt>
      <trkpt lat="43.61032" lon="3.05008">
        <ele>642.9</ele>
        <time>2017-06-18T06:47:58Z</time>
      </trkpt>
      <trkpt lat="43.61026" lon="3.05015">
        <ele>643.2</ele>
        <time>2017-06-18T06:48:00Z</time>
      </trkpt>
      <trkpt lat="43.61019" lon="3.05024">
        <ele>643.5</ele>
        <time>2017-06-18T06:48:03Z</time>
      </trkpt>
      <trkpt lat="43.61015" lon="3.05033">
        <ele>643.6</ele>
        <time>2017-06-18T06:48:05Z</time>
      </trkpt>
      <trkpt lat="43.61011" lon="3.05045">
        <ele>643.7</ele>
        <time>2017-06-18T06:48:08Z</time>
      </trkpt>
      <trkpt lat="43.61009" lon="3.05056">
        <ele>643.8</ele>
        <time>2017-06-18T06:48:10Z</time>
      </trkpt>
      <trkpt lat="43.61009" lon="3.05066">
        <ele>643.9</ele>
        <time>2017-06-18T06:48:12Z</time>
      </trkpt>
      <trkpt lat="43.61008" lon="3.0508">
        <ele>643.9</ele>
        <time>2017-06-18T06:48:15Z</time>
      </trkpt>
      <trkpt lat="43.61007" lon="3.05092">
        <ele>644</ele>
        <time>2017-06-18T06:48:17Z</time>
      </trkpt>
      <trkpt lat="43.61003" lon="3.05105">
        <ele>644.2</ele>
        <time>2017-06-18T06:48:19Z</time>
      </trkpt>
      <trkpt lat="43.60999" lon="3.05114">
        <ele>644.1</ele>
        <time>2017-06-18T06:48:21Z</time>
      </trkpt>
      <trkpt lat="43.60993" lon="3.05124">
        <ele>643.7</ele>
        <time>2017-06-18T06:48:23Z</time>
      </trkpt>
      <trkpt lat="43.60988" lon="3.05133">
        <ele>642.7</ele>
        <time>2017-06-18T06:48:25Z</time>
      </trkpt>
      <trkpt lat="43.60981" lon="3.05142">
        <ele>641.8</ele>
        <time>2017-06-18T06:48:27Z</time>
      </trkpt>
      <trkpt lat="43.60975" lon="3.05149">
        <ele>641.2</ele>
        <time>2017-06-18T06:48:29Z</time>
      </trkpt>
      <trkpt lat="43.60967" lon="3.05156">
        <ele>639.9</ele>
        <time>2017-06-18T06:48:31Z</time>
      </trkpt>
      <trkpt lat="43.60961" lon="3.05161">
        <ele>639.2</ele>
        <time>2017-06-18T06:48:33Z</time>
      </trkpt>
      <trkpt lat="43.60954" lon="3.05166">
        <ele>639.1</ele>
        <time>2017-06-18T06:48:35Z</time>
      </trkpt>
      <trkpt lat="43.60943" lon="3.05172">
        <ele>639.6</ele>
        <time>2017-06-18T06:48:38Z</time>
      </trkpt>
      <trkpt lat="43.60936" lon="3.05176">
        <ele>639.6</ele>
        <time>2017-06-18T06:48:40Z</time>
      </trkpt>
      <trkpt lat="43.60929" lon="3.0518">
        <ele>639.7</ele>
        <time>2017-06-18T06:48:42Z</time>
      </trkpt>
      <trkpt lat="43.60922" lon="3.05185">
        <ele>640</ele>
        <time>2017-06-18T06:48:44Z</time>
      </trkpt>
      <trkpt lat="43.60914" lon="3.0519">
        <ele>642.8</ele>
        <time>2017-06-18T06:48:46Z</time>
      </trkpt>
      <trkpt lat="43.60907" lon="3.05196">
        <ele>643.3</ele>
        <time>2017-06-18T06:48:48Z</time>
      </trkpt>
      <trkpt lat="43.60899" lon="3.05202">
        <ele>643.7</ele>
        <time>2017-06-18T06:48:50Z</time>
      </trkpt>
      <trkpt lat="43.60892" lon="3.05211">
        <ele>644.7</ele>
        <time>2017-06-18T06:48:52Z</time>
      </trkpt>
      <trkpt lat="43.60887" lon="3.05218">
        <ele>644.3</ele>
        <time>2017-06-18T06:48:54Z</time>
      </trkpt>
      <trkpt lat="43.60878" lon="3.0523">
        <ele>644.4</ele>
        <time>2017-06-18T06:48:57Z</time>
      </trkpt>
      <trkpt lat="43.60872" lon="3.05235">
        <ele>644.4</ele>
        <time>2017-06-18T06:48:59Z</time>
      </trkpt>
      <trkpt lat="43.60866" lon="3.05242">
        <ele>644.4</ele>
        <time>2017-06-18T06:49:01Z</time>
      </trkpt>
      <trkpt lat="43.60859" lon="3.05249">
        <ele>644</ele>
        <time>2017-06-18T06:49:03Z</time>
      </trkpt>
      <trkpt lat="43.60853" lon="3.05256">
        <ele>644</ele>
        <time>2017-06-18T06:49:05Z</time>
      </trkpt>
      <trkpt lat="43.60846" lon="3.05264">
        <ele>644</ele>
        <time>2017-06-18T06:49:08Z</time>
      </trkpt>
      <trkpt lat="43.60839" lon="3.05272">
        <ele>644</ele>
        <time>2017-06-18T06:49:10Z</time>
      </trkpt>
      <trkpt lat="43.60833" lon="3.05279">
        <ele>644.1</ele>
        <time>2017-06-18T06:49:12Z</time>
      </trkpt>
      <trkpt lat="43.60828" lon="3.05287">
        <ele>644</ele>
        <time>2017-06-18T06:49:15Z</time>
      </trkpt>
      <trkpt lat="43.60822" lon="3.05294">
        <ele>643.6</ele>
        <time>2017-06-18T06:49:18Z</time>
      </trkpt>
      <trkpt lat="43.60817" lon="3.05304">
        <ele>643.4</ele>
        <time>2017-06-18T06:49:21Z</time>
      </trkpt>
      <trkpt lat="43.60811" lon="3.05313">
        <ele>643.2</ele>
        <time>2017-06-18T06:49:25Z</time>
      </trkpt>
      <trkpt lat="43.60806" lon="3.0532">
        <ele>643.1</ele>
        <time>2017-06-18T06:49:29Z</time>
      </trkpt>
      <trkpt lat="43.60798" lon="3.05329">
        <ele>643.1</ele>
        <time>2017-06-18T06:49:33Z</time>
      </trkpt>
      <trkpt lat="43.60791" lon="3.05337">
        <ele>643</ele>
        <time>2017-06-18T06:49:37Z</time>
      </trkpt>
      <trkpt lat="43.60784" lon="3.05344">
        <ele>642.9</ele>
        <time>2017-06-18T06:49:41Z</time>
      </trkpt>
      <trkpt lat="43.60777" lon="3.05351">
        <ele>642.8</ele>
        <time>2017-06-18T06:49:44Z</time>
      </trkpt>
      <trkpt lat="43.6077" lon="3.05357">
        <ele>642.6</ele>
        <time>2017-06-18T06:49:47Z</time>
      </trkpt>
      <trkpt lat="43.60763" lon="3.05363">
        <ele>642.5</ele>
        <time>2017-06-18T06:49:50Z</time>
      </trkpt>
      <trkpt lat="43.60756" lon="3.05369">
        <ele>642.3</ele>
        <time>2017-06-18T06:49:53Z</time>
      </trkpt>
      <trkpt lat="43.60748" lon="3.05377">
        <ele>642.2</ele>
        <time>2017-06-18T06:49:56Z</time>
      </trkpt>
      <trkpt lat="43.60741" lon="3.05384">
        <ele>642</ele>
        <time>2017-06-18T06:49:59Z</time>
      </trkpt>
      <trkpt lat="43.60734" lon="3.0539">
        <ele>641.8</ele>
        <time>2017-06-18T06:50:02Z</time>
      </trkpt>
      <trkpt lat="43.60726" lon="3.05396">
        <ele>641.7</ele>
        <time>2017-06-18T06:50:05Z</time>
      </trkpt>
      <trkpt lat="43.60717" lon="3.05404">
        <ele>641.8</ele>
        <time>2017-06-18T06:50:08Z</time>
      </trkpt>
      <trkpt lat="43.6071" lon="3.05409">
        <ele>641.9</ele>
        <time>2017-06-18T06:50:11Z</time>
      </trkpt>
      <trkpt lat="43.60702" lon="3.05414">
        <ele>642.1</ele>
        <time>2017-06-18T06:50:14Z</time>
      </trkpt>
      <trkpt lat="43.60694" lon="3.0542">
        <ele>642.2</ele>
        <time>2017-06-18T06:50:17Z</time>
      </trkpt>
      <trkpt lat="43.60685" lon="3.05426">
        <ele>642.4</ele>
        <time>2017-06-18T06:50:20Z</time>
      </trkpt>
      <trkpt lat="43.60677" lon="3.05432">
        <ele>642.6</ele>
        <time>2017-06-18T06:50:23Z</time>
      </trkpt>
      <trkpt lat="43.60671" lon="3.05438">
        <ele>642.6</ele>
        <time>2017-06-18T06:50:25Z</time>
      </trkpt>
      <trkpt lat="43.60664" lon="3.05445">
        <ele>642.7</ele>
        <time>2017-06-18T06:50:27Z</time>
      </trkpt>
      <trkpt lat="43.60657" lon="3.05453">
        <ele>643</ele>
        <time>2017-06-18T06:50:30Z</time>
      </trkpt>
      <trkpt lat="43.60651" lon="3.0546">
        <ele>642.9</ele>
        <time>2017-06-18T06:50:32Z</time>
      </trkpt>
      <trkpt lat="43.60646" lon="3.05468">
        <ele>642.8</ele>
        <time>2017-06-18T06:50:34Z</time>
      </trkpt>
      <trkpt lat="43.60638" lon="3.05475">
        <ele>642.6</ele>
        <time>2017-06-18T06:50:37Z</time>
      </trkpt>
      <trkpt lat="43.60631" lon="3.05485">
        <ele>642.4</ele>
        <time>2017-06-18T06:50:40Z</time>
      </trkpt>
      <trkpt lat="43.60625" lon="3.05498">
        <ele>642</ele>
        <time>2017-06-18T06:50:43Z</time>
      </trkpt>
      <trkpt lat="43.60621" lon="3.05507">
        <ele>641.8</ele>
        <time>2017-06-18T06:50:45Z</time>
      </trkpt>
      <trkpt lat="43.60615" lon="3.05516">
        <ele>641.2</ele>
        <time>2017-06-18T06:50:48Z</time>
      </trkpt>
      <trkpt lat="43.60607" lon="3.05527">
        <ele>640.8</ele>
        <time>2017-06-18T06:50:51Z</time>
      </trkpt>
      <trkpt lat="43.60602" lon="3.05536">
        <ele>640.4</ele>
        <time>2017-06-18T06:50:54Z</time>
      </trkpt>
      <trkpt lat="43.60597" lon="3.05543">
        <ele>640.1</ele>
        <time>2017-06-18T06:50:57Z</time>
      </trkpt>
      <trkpt lat="43.60592" lon="3.05551">
        <ele>639.7</ele>
        <time>2017-06-18T06:51:00Z</time>
      </trkpt>
      <trkpt lat="43.60586" lon="3.05563">
        <ele>639.6</ele>
        <time>2017-06-18T06:51:03Z</time>
      </trkpt>
      <trkpt lat="43.6058" lon="3.05571">
        <ele>639.6</ele>
        <time>2017-06-18T06:51:05Z</time>
      </trkpt>
      <trkpt lat="43.60575" lon="3.0558">
        <ele>639.6</ele>
        <time>2017-06-18T06:51:08Z</time>
      </trkpt>
      <trkpt lat="43.6057" lon="3.05588">
        <ele>640.1</ele>
        <time>2017-06-18T06:51:12Z</time>
      </trkpt>
      <trkpt lat="43.60563" lon="3.05597">
        <ele>640.6</ele>
        <time>2017-06-18T06:51:16Z</time>
      </trkpt>
      <trkpt lat="43.60556" lon="3.05605">
        <ele>641.1</ele>
        <time>2017-06-18T06:51:20Z</time>
      </trkpt>
      <trkpt lat="43.60549" lon="3.05611">
        <ele>641.4</ele>
        <time>2017-06-18T06:51:24Z</time>
      </trkpt>
      <trkpt lat="43.60542" lon="3.05619">
        <ele>641.5</ele>
        <time>2017-06-18T06:51:27Z</time>
      </trkpt>
      <trkpt lat="43.60535" lon="3.05626">
        <ele>641.6</ele>
        <time>2017-06-18T06:51:29Z</time>
      </trkpt>
      <trkpt lat="43.60528" lon="3.05631">
        <ele>641.7</ele>
        <time>2017-06-18T06:51:31Z</time>
      </trkpt>
      <trkpt lat="43.60521" lon="3.05637">
        <ele>641.8</ele>
        <time>2017-06-18T06:51:33Z</time>
      </trkpt>
      <trkpt lat="43.60514" lon="3.05641">
        <ele>641.9</ele>
        <time>2017-06-18T06:51:35Z</time>
      </trkpt>
      <trkpt lat="43.60507" lon="3.05646">
        <ele>642</ele>
        <time>2017-06-18T06:51:37Z</time>
      </trkpt>
      <trkpt lat="43.60501" lon="3.05653">
        <ele>642.5</ele>
        <time>2017-06-18T06:51:40Z</time>
      </trkpt>
      <trkpt lat="43.60495" lon="3.05661">
        <ele>643</ele>
        <time>2017-06-18T06:51:43Z</time>
      </trkpt>
      <trkpt lat="43.60488" lon="3.05669">
        <ele>643.5</ele>
        <time>2017-06-18T06:51:47Z</time>
      </trkpt>
      <trkpt lat="43.60481" lon="3.05675">
        <ele>643.9</ele>
        <time>2017-06-18T06:51:50Z</time>
      </trkpt>
      <trkpt lat="43.60474" lon="3.05681">
        <ele>644.2</ele>
        <time>2017-06-18T06:51:54Z</time>
      </trkpt>
      <trkpt lat="43.60466" lon="3.05684">
        <ele>644.2</ele>
        <time>2017-06-18T06:51:58Z</time>
      </trkpt>
      <trkpt lat="43.60458" lon="3.05689">
        <ele>644.6</ele>
        <time>2017-06-18T06:52:02Z</time>
      </trkpt>
      <trkpt lat="43.60452" lon="3.05694">
        <ele>645.1</ele>
        <time>2017-06-18T06:52:06Z</time>
      </trkpt>
      <trkpt lat="43.60443" lon="3.05693">
        <ele>646</ele>
        <time>2017-06-18T06:52:12Z</time>
      </trkpt>
      <trkpt lat="43.60434" lon="3.05694">
        <ele>646.6</ele>
        <time>2017-06-18T06:52:17Z</time>
      </trkpt>
      <trkpt lat="43.60426" lon="3.05695">
        <ele>646.9</ele>
        <time>2017-06-18T06:52:20Z</time>
      </trkpt>
      <trkpt lat="43.60419" lon="3.05695">
        <ele>647.4</ele>
        <time>2017-06-18T06:52:24Z</time>
      </trkpt>
      <trkpt lat="43.60411" lon="3.05693">
        <ele>648</ele>
        <time>2017-06-18T06:52:30Z</time>
      </trkpt>
      <trkpt lat="43.60402" lon="3.05697">
        <ele>649.3</ele>
        <time>2017-06-18T06:52:36Z</time>
      </trkpt>
      <trkpt lat="43.60393" lon="3.05699">
        <ele>650.2</ele>
        <time>2017-06-18T06:52:40Z</time>
      </trkpt>
      <trkpt lat="43.60386" lon="3.05701">
        <ele>651</ele>
        <time>2017-06-18T06:52:45Z</time>
      </trkpt>
      <trkpt lat="43.60378" lon="3.05704">
        <ele>651.8</ele>
        <time>2017-06-18T06:52:51Z</time>
      </trkpt>
      <trkpt lat="43.6037" lon="3.05706">
        <ele>652.6</ele>
        <time>2017-06-18T06:52:57Z</time>
      </trkpt>
      <trkpt lat="43.60362" lon="3.05706">
        <ele>653.5</ele>
        <time>2017-06-18T06:53:03Z</time>
      </trkpt>
      <trkpt lat="43.60356" lon="3.05709">
        <ele>654.7</ele>
        <time>2017-06-18T06:53:10Z</time>
      </trkpt>
      <trkpt lat="43.60358" lon="3.05709">
        <ele>655.8</ele>
        <time>2017-06-18T06:53:17Z</time>
      </trkpt>
      <trkpt lat="43.60354" lon="3.05703">
        <ele>658.2</ele>
        <time>2017-06-18T06:53:59Z</time>
      </trkpt>
      <trkpt lat="43.60358" lon="3.05701">
        <ele>660.5</ele>
        <time>2017-06-18T06:55:50Z</time>
      </trkpt>
      <trkpt lat="43.60357" lon="3.05702">
        <ele>659.9</ele>
        <time>2017-06-18T06:56:11Z</time>
      </trkpt>
      <trkpt lat="43.60357" lon="3.05706">
        <ele>659.9</ele>
        <time>2017-06-18T06:56:18Z</time>
      </trkpt>
      <trkpt lat="43.60356" lon="3.05709">
        <ele>660</ele>
        <time>2017-06-18T06:56:25Z</time>
      </trkpt>
      <trkpt lat="43.60364" lon="3.05709">
        <ele>663.2</ele>
        <time>2017-06-18T06:57:43Z</time>
      </trkpt>
      <trkpt lat="43.60369" lon="3.05715">
        <ele>663</ele>
        <time>2017-06-18T06:57:52Z</time>
      </trkpt>
      <trkpt lat="43.60372" lon="3.05727">
        <ele>662.9</ele>
        <time>2017-06-18T06:57:56Z</time>
      </trkpt>
      <trkpt lat="43.60376" lon="3.05727">
        <ele>662.7</ele>
        <time>2017-06-18T06:58:03Z</time>
      </trkpt>
      <trkpt lat="43.60383" lon="3.05732">
        <ele>662.3</ele>
        <time>2017-06-18T06:58:10Z</time>
      </trkpt>
      <trkpt lat="43.60391" lon="3.05735">
        <ele>661.2</ele>
        <time>2017-06-18T06:58:12Z</time>
      </trkpt>
      <trkpt lat="43.604" lon="3.05741">
        <ele>658.6</ele>
        <time>2017-06-18T06:58:14Z</time>
      </trkpt>
      <trkpt lat="43.60407" lon="3.05749">
        <ele>657.7</ele>
        <time>2017-06-18T06:58:16Z</time>
      </trkpt>
      <trkpt lat="43.60414" lon="3.05755">
        <ele>657.2</ele>
        <time>2017-06-18T06:58:20Z</time>
      </trkpt>
      <trkpt lat="43.60421" lon="3.05763">
        <ele>656.5</ele>
        <time>2017-06-18T06:58:24Z</time>
      </trkpt>
      <trkpt lat="43.60428" lon="3.05767">
        <ele>653.7</ele>
        <time>2017-06-18T06:58:26Z</time>
      </trkpt>
      <trkpt lat="43.60437" lon="3.05766">
        <ele>650</ele>
        <time>2017-06-18T06:58:28Z</time>
      </trkpt>
      <trkpt lat="43.60443" lon="3.05773">
        <ele>649.4</ele>
        <time>2017-06-18T06:58:31Z</time>
      </trkpt>
      <trkpt lat="43.60441" lon="3.05782">
        <ele>648.9</ele>
        <time>2017-06-18T06:58:34Z</time>
      </trkpt>
      <trkpt lat="43.60446" lon="3.05793">
        <ele>648.1</ele>
        <time>2017-06-18T06:58:37Z</time>
      </trkpt>
      <trkpt lat="43.60453" lon="3.05798">
        <ele>645.3</ele>
        <time>2017-06-18T06:58:39Z</time>
      </trkpt>
      <trkpt lat="43.60461" lon="3.05805">
        <ele>642.6</ele>
        <time>2017-06-18T06:58:41Z</time>
      </trkpt>
      <trkpt lat="43.60473" lon="3.05811">
        <ele>642.3</ele>
        <time>2017-06-18T06:58:43Z</time>
      </trkpt>
      <trkpt lat="43.60482" lon="3.0582">
        <ele>640.6</ele>
        <time>2017-06-18T06:58:45Z</time>
      </trkpt>
      <trkpt lat="43.60487" lon="3.0583">
        <ele>639.1</ele>
        <time>2017-06-18T06:58:47Z</time>
      </trkpt>
      <trkpt lat="43.60495" lon="3.05839">
        <ele>637.7</ele>
        <time>2017-06-18T06:58:49Z</time>
      </trkpt>
      <trkpt lat="43.60504" lon="3.05841">
        <ele>637.5</ele>
        <time>2017-06-18T06:58:51Z</time>
      </trkpt>
      <trkpt lat="43.60511" lon="3.05844">
        <ele>637.3</ele>
        <time>2017-06-18T06:58:53Z</time>
      </trkpt>
      <trkpt lat="43.60517" lon="3.05854">
        <ele>636.9</ele>
        <time>2017-06-18T06:58:56Z</time>
      </trkpt>
      <trkpt lat="43.60522" lon="3.05863">
        <ele>636.4</ele>
        <time>2017-06-18T06:58:59Z</time>
      </trkpt>
      <trkpt lat="43.60528" lon="3.05871">
        <ele>635.8</ele>
        <time>2017-06-18T06:59:02Z</time>
      </trkpt>
      <trkpt lat="43.60533" lon="3.05879">
        <ele>635.2</ele>
        <time>2017-06-18T06:59:04Z</time>
      </trkpt>
      <trkpt lat="43.60539" lon="3.05893">
        <ele>634.3</ele>
        <time>2017-06-18T06:59:07Z</time>
      </trkpt>
      <trkpt lat="43.60542" lon="3.05904">
        <ele>633.7</ele>
        <time>2017-06-18T06:59:09Z</time>
      </trkpt>
      <trkpt lat="43.6054" lon="3.05917">
        <ele>633</ele>
        <time>2017-06-18T06:59:11Z</time>
      </trkpt>
      <trkpt lat="43.60544" lon="3.05927">
        <ele>632</ele>
        <time>2017-06-18T06:59:14Z</time>
      </trkpt>
      <trkpt lat="43.60552" lon="3.05934">
        <ele>631.3</ele>
        <time>2017-06-18T06:59:16Z</time>
      </trkpt>
      <trkpt lat="43.6056" lon="3.05941">
        <ele>630.4</ele>
        <time>2017-06-18T06:59:18Z</time>
      </trkpt>
      <trkpt lat="43.60565" lon="3.05942">
        <ele>628.5</ele>
        <time>2017-06-18T06:59:25Z</time>
      </trkpt>
      <trkpt lat="43.60568" lon="3.05929">
        <ele>621.3</ele>
        <time>2017-06-18T06:59:46Z</time>
      </trkpt>
      <trkpt lat="43.60572" lon="3.05917">
        <ele>620.1</ele>
        <time>2017-06-18T06:59:51Z</time>
      </trkpt>
      <trkpt lat="43.60575" lon="3.05908">
        <ele>619.6</ele>
        <time>2017-06-18T06:59:55Z</time>
      </trkpt>
      <trkpt lat="43.60579" lon="3.05898">
        <ele>619.1</ele>
        <time>2017-06-18T06:59:58Z</time>
      </trkpt>
      <trkpt lat="43.60582" lon="3.05888">
        <ele>618.5</ele>
        <time>2017-06-18T07:00:02Z</time>
      </trkpt>
      <trkpt lat="43.60584" lon="3.05877">
        <ele>618.3</ele>
        <time>2017-06-18T07:00:06Z</time>
      </trkpt>
      <trkpt lat="43.60587" lon="3.05866">
        <ele>617.8</ele>
        <time>2017-06-18T07:00:10Z</time>
      </trkpt>
      <trkpt lat="43.60592" lon="3.05855">
        <ele>617.5</ele>
        <time>2017-06-18T07:00:14Z</time>
      </trkpt>
      <trkpt lat="43.60595" lon="3.05843">
        <ele>617.2</ele>
        <time>2017-06-18T07:00:18Z</time>
      </trkpt>
      <trkpt lat="43.60597" lon="3.05831">
        <ele>617.3</ele>
        <time>2017-06-18T07:00:22Z</time>
      </trkpt>
      <trkpt lat="43.60598" lon="3.05819">
        <ele>617.2</ele>
        <time>2017-06-18T07:00:26Z</time>
      </trkpt>
      <trkpt lat="43.60601" lon="3.05808">
        <ele>617.5</ele>
        <time>2017-06-18T07:00:31Z</time>
      </trkpt>
      <trkpt lat="43.60604" lon="3.058">
        <ele>618</ele>
        <time>2017-06-18T07:00:34Z</time>
      </trkpt>
      <trkpt lat="43.60608" lon="3.0579">
        <ele>618.5</ele>
        <time>2017-06-18T07:00:37Z</time>
      </trkpt>
      <trkpt lat="43.60611" lon="3.0578">
        <ele>618.8</ele>
        <time>2017-06-18T07:00:40Z</time>
      </trkpt>
      <trkpt lat="43.60617" lon="3.0577">
        <ele>619.2</ele>
        <time>2017-06-18T07:00:44Z</time>
      </trkpt>
      <trkpt lat="43.60621" lon="3.0576">
        <ele>619.5</ele>
        <time>2017-06-18T07:00:47Z</time>
      </trkpt>
      <trkpt lat="43.60625" lon="3.0575">
        <ele>619.9</ele>
        <time>2017-06-18T07:00:51Z</time>
      </trkpt>
      <trkpt lat="43.60628" lon="3.05739">
        <ele>620.3</ele>
        <time>2017-06-18T07:00:55Z</time>
      </trkpt>
      <trkpt lat="43.60631" lon="3.05728">
        <ele>620.7</ele>
        <time>2017-06-18T07:00:59Z</time>
      </trkpt>
      <trkpt lat="43.60633" lon="3.05717">
        <ele>620.9</ele>
        <time>2017-06-18T07:01:03Z</time>
      </trkpt>
      <trkpt lat="43.60635" lon="3.05706">
        <ele>621.2</ele>
        <time>2017-06-18T07:01:07Z</time>
      </trkpt>
      <trkpt lat="43.60637" lon="3.05694">
        <ele>621.5</ele>
        <time>2017-06-18T07:01:11Z</time>
      </trkpt>
      <trkpt lat="43.60637" lon="3.05682">
        <ele>622.4</ele>
        <time>2017-06-18T07:01:16Z</time>
      </trkpt>
      <trkpt lat="43.60638" lon="3.05669">
        <ele>623.2</ele>
        <time>2017-06-18T07:01:20Z</time>
      </trkpt>
      <trkpt lat="43.60639" lon="3.05655">
        <ele>624.2</ele>
        <time>2017-06-18T07:01:24Z</time>
      </trkpt>
      <trkpt lat="43.60639" lon="3.05644">
        <ele>624.7</ele>
        <time>2017-06-18T07:01:27Z</time>
      </trkpt>
      <trkpt lat="43.6064" lon="3.05632">
        <ele>625.1</ele>
        <time>2017-06-18T07:01:31Z</time>
      </trkpt>
      <trkpt lat="43.6064" lon="3.05621">
        <ele>625.5</ele>
        <time>2017-06-18T07:01:35Z</time>
      </trkpt>
      <trkpt lat="43.60641" lon="3.05609">
        <ele>625.8</ele>
        <time>2017-06-18T07:01:38Z</time>
      </trkpt>
      <trkpt lat="43.60641" lon="3.05597">
        <ele>626.1</ele>
        <time>2017-06-18T07:01:42Z</time>
      </trkpt>
      <trkpt lat="43.60641" lon="3.05586">
        <ele>626.8</ele>
        <time>2017-06-18T07:01:46Z</time>
      </trkpt>
      <trkpt lat="43.60644" lon="3.05576">
        <ele>628.6</ele>
        <time>2017-06-18T07:01:53Z</time>
      </trkpt>
      <trkpt lat="43.60646" lon="3.05565">
        <ele>629.9</ele>
        <time>2017-06-18T07:01:58Z</time>
      </trkpt>
      <trkpt lat="43.60647" lon="3.05555">
        <ele>630.7</ele>
        <time>2017-06-18T07:02:04Z</time>
      </trkpt>
      <trkpt lat="43.60652" lon="3.05548">
        <ele>631.9</ele>
        <time>2017-06-18T07:02:11Z</time>
      </trkpt>
      <trkpt lat="43.60653" lon="3.05542">
        <ele>633.3</ele>
        <time>2017-06-18T07:02:18Z</time>
      </trkpt>
      <trkpt lat="43.60652" lon="3.05536">
        <ele>634.1</ele>
        <time>2017-06-18T07:02:35Z</time>
      </trkpt>
      <trkpt lat="43.60655" lon="3.05531">
        <ele>634.3</ele>
        <time>2017-06-18T07:02:42Z</time>
      </trkpt>
      <trkpt lat="43.60655" lon="3.05524">
        <ele>634.4</ele>
        <time>2017-06-18T07:02:49Z</time>
      </trkpt>
      <trkpt lat="43.60655" lon="3.05527">
        <ele>634.4</ele>
        <time>2017-06-18T07:02:56Z</time>
      </trkpt>
      <trkpt lat="43.6065" lon="3.05543">
        <ele>634.3</ele>
        <time>2017-06-18T07:03:14Z</time>
      </trkpt>
      <trkpt lat="43.60651" lon="3.05557">
        <ele>634.3</ele>
        <time>2017-06-18T07:03:16Z</time>
      </trkpt>
      <trkpt lat="43.60655" lon="3.05566">
        <ele>634</ele>
        <time>2017-06-18T07:03:18Z</time>
      </trkpt>
      <trkpt lat="43.60655" lon="3.05577">
        <ele>631.7</ele>
        <time>2017-06-18T07:03:20Z</time>
      </trkpt>
      <trkpt lat="43.60662" lon="3.05588">
        <ele>631.3</ele>
        <time>2017-06-18T07:03:24Z</time>
      </trkpt>
      <trkpt lat="43.60669" lon="3.05587">
        <ele>631.1</ele>
        <time>2017-06-18T07:03:27Z</time>
      </trkpt>
      <trkpt lat="43.60678" lon="3.05595">
        <ele>630.7</ele>
        <time>2017-06-18T07:03:31Z</time>
      </trkpt>
      <trkpt lat="43.60683" lon="3.05603">
        <ele>630.5</ele>
        <time>2017-06-18T07:03:33Z</time>
      </trkpt>
      <trkpt lat="43.60689" lon="3.05611">
        <ele>630.4</ele>
        <time>2017-06-18T07:03:35Z</time>
      </trkpt>
      <trkpt lat="43.60693" lon="3.05619">
        <ele>630</ele>
        <time>2017-06-18T07:03:38Z</time>
      </trkpt>
      <trkpt lat="43.60695" lon="3.05622">
        <ele>628.3</ele>
        <time>2017-06-18T07:03:45Z</time>
      </trkpt>
      <trkpt lat="43.60696" lon="3.05622">
        <ele>627.6</ele>
        <time>2017-06-18T07:03:52Z</time>
      </trkpt>
      <trkpt lat="43.60692" lon="3.05623">
        <ele>627.5</ele>
        <time>2017-06-18T07:03:59Z</time>
      </trkpt>
      <trkpt lat="43.60685" lon="3.05629">
        <ele>627.5</ele>
        <time>2017-06-18T07:04:05Z</time>
      </trkpt>
      <trkpt lat="43.60683" lon="3.05627">
        <ele>627.9</ele>
        <time>2017-06-18T07:04:12Z</time>
      </trkpt>
      <trkpt lat="43.60687" lon="3.05628">
        <ele>628</ele>
        <time>2017-06-18T07:04:19Z</time>
      </trkpt>
      <trkpt lat="43.60693" lon="3.05625">
        <ele>627.4</ele>
        <time>2017-06-18T07:04:26Z</time>
      </trkpt>
      <trkpt lat="43.607" lon="3.0562">
        <ele>626.7</ele>
        <time>2017-06-18T07:04:31Z</time>
      </trkpt>
      <trkpt lat="43.60702" lon="3.0562">
        <ele>624.4</ele>
        <time>2017-06-18T07:07:00Z</time>
      </trkpt>
      <trkpt lat="43.60701" lon="3.0562">
        <ele>624</ele>
        <time>2017-06-18T07:07:12Z</time>
      </trkpt>
      <trkpt lat="43.60708" lon="3.05619">
        <ele>625.7</ele>
        <time>2017-06-18T07:09:14Z</time>
      </trkpt>
      <trkpt lat="43.60717" lon="3.05615">
        <ele>625</ele>
        <time>2017-06-18T07:09:18Z</time>
      </trkpt>
      <trkpt lat="43.60719" lon="3.05612">
        <ele>624.8</ele>
        <time>2017-06-18T07:09:25Z</time>
      </trkpt>
      <trkpt lat="43.60723" lon="3.05608">
        <ele>625.3</ele>
        <time>2017-06-18T07:09:47Z</time>
      </trkpt>
      <trkpt lat="43.60729" lon="3.05604">
        <ele>627.2</ele>
        <time>2017-06-18T07:11:06Z</time>
      </trkpt>
      <trkpt lat="43.6073" lon="3.05603">
        <ele>626.7</ele>
        <time>2017-06-18T07:11:13Z</time>
      </trkpt>
      <trkpt lat="43.60734" lon="3.05604">
        <ele>627.5</ele>
        <time>2017-06-18T07:11:23Z</time>
      </trkpt>
      <trkpt lat="43.60735" lon="3.05604">
        <ele>627.8</ele>
        <time>2017-06-18T07:11:30Z</time>
      </trkpt>
      <trkpt lat="43.60735" lon="3.05602">
        <ele>627.4</ele>
        <time>2017-06-18T07:11:37Z</time>
      </trkpt>
      <trkpt lat="43.60735" lon="3.05604">
        <ele>628.1</ele>
        <time>2017-06-18T07:11:05Z</time>
      </trkpt>
      <trkpt lat="43.60734" lon="3.05599">
        <ele>629.2</ele>
        <time>2017-06-18T07:12:46Z</time>
      </trkpt>
      <trkpt lat="43.60733" lon="3.05597">
        <ele>629.2</ele>
        <time>2017-06-18T07:13:01Z</time>
      </trkpt>
      <trkpt lat="43.60739" lon="3.05601">
        <ele>630.8</ele>
        <time>2017-06-18T07:14:09Z</time>
      </trkpt>
      <trkpt lat="43.6074" lon="3.05603">
        <ele>629.1</ele>
        <time>2017-06-18T07:14:23Z</time>
      </trkpt>
      <trkpt lat="43.60741" lon="3.05604">
        <ele>621.3</ele>
        <time>2017-06-18T07:15:07Z</time>
      </trkpt>
      <trkpt lat="43.60739" lon="3.05621">
        <ele>621.2</ele>
        <time>2017-06-18T07:15:23Z</time>
      </trkpt>
      <trkpt lat="43.60738" lon="3.05624">
        <ele>620.7</ele>
        <time>2017-06-18T07:15:30Z</time>
      </trkpt>
      <trkpt lat="43.60737" lon="3.05625">
        <ele>621.4</ele>
        <time>2017-06-18T07:15:37Z</time>
      </trkpt>
      <trkpt lat="43.60743" lon="3.05632">
        <ele>620.9</ele>
        <time>2017-06-18T07:16:18Z</time>
      </trkpt>
      <trkpt lat="43.60752" lon="3.05636">
        <ele>618.2</ele>
        <time>2017-06-18T07:16:20Z</time>
      </trkpt>
      <trkpt lat="43.60761" lon="3.05641">
        <ele>615.9</ele>
        <time>2017-06-18T07:16:21Z</time>
      </trkpt>
      <trkpt lat="43.60763" lon="3.0564">
        <ele>613.9</ele>
        <time>2017-06-18T07:16:28Z</time>
      </trkpt>
      <trkpt lat="43.60763" lon="3.05638">
        <ele>611.8</ele>
        <time>2017-06-18T07:16:35Z</time>
      </trkpt>
      <trkpt lat="43.60761" lon="3.05638">
        <ele>610.4</ele>
        <time>2017-06-18T07:16:42Z</time>
      </trkpt>
      <trkpt lat="43.60755" lon="3.05641">
        <ele>609.4</ele>
        <time>2017-06-18T07:16:49Z</time>
      </trkpt>
      <trkpt lat="43.60749" lon="3.05634">
        <ele>609</ele>
        <time>2017-06-18T07:16:56Z</time>
      </trkpt>
      <trkpt lat="43.60746" lon="3.05635">
        <ele>614.2</ele>
        <time>2017-06-18T07:17:53Z</time>
      </trkpt>
      <trkpt lat="43.60749" lon="3.05633">
        <ele>609.8</ele>
        <time>2017-06-18T07:20:17Z</time>
      </trkpt>
      <trkpt lat="43.60757" lon="3.05636">
        <ele>607.7</ele>
        <time>2017-06-18T07:20:43Z</time>
      </trkpt>
      <trkpt lat="43.60757" lon="3.05637">
        <ele>607.2</ele>
        <time>2017-06-18T07:20:50Z</time>
      </trkpt>
      <trkpt lat="43.60764" lon="3.05643">
        <ele>606.2</ele>
        <time>2017-06-18T07:20:57Z</time>
      </trkpt>
      <trkpt lat="43.6077" lon="3.05651">
        <ele>604.9</ele>
        <time>2017-06-18T07:21:04Z</time>
      </trkpt>
      <trkpt lat="43.6077" lon="3.05657">
        <ele>602.8</ele>
        <time>2017-06-18T07:21:11Z</time>
      </trkpt>
      <trkpt lat="43.60769" lon="3.05658">
        <ele>599.2</ele>
        <time>2017-06-18T07:21:35Z</time>
      </trkpt>
      <trkpt lat="43.60767" lon="3.05671">
        <ele>598.1</ele>
        <time>2017-06-18T07:21:40Z</time>
      </trkpt>
      <trkpt lat="43.60763" lon="3.05684">
        <ele>597.9</ele>
        <time>2017-06-18T07:21:43Z</time>
      </trkpt>
      <trkpt lat="43.60761" lon="3.05694">
        <ele>597.7</ele>
        <time>2017-06-18T07:21:45Z</time>
      </trkpt>
      <trkpt lat="43.60757" lon="3.05706">
        <ele>597.5</ele>
        <time>2017-06-18T07:21:47Z</time>
      </trkpt>
      <trkpt lat="43.60753" lon="3.05718">
        <ele>597.4</ele>
        <time>2017-06-18T07:21:49Z</time>
      </trkpt>
      <trkpt lat="43.60749" lon="3.05733">
        <ele>596.8</ele>
        <time>2017-06-18T07:21:51Z</time>
      </trkpt>
      <trkpt lat="43.60745" lon="3.05745">
        <ele>595.9</ele>
        <time>2017-06-18T07:21:53Z</time>
      </trkpt>
      <trkpt lat="43.60741" lon="3.05757">
        <ele>594.8</ele>
        <time>2017-06-18T07:21:55Z</time>
      </trkpt>
      <trkpt lat="43.60739" lon="3.05769">
        <ele>594.2</ele>
        <time>2017-06-18T07:21:56Z</time>
      </trkpt>
      <trkpt lat="43.60736" lon="3.05782">
        <ele>592.8</ele>
        <time>2017-06-18T07:21:58Z</time>
      </trkpt>
      <trkpt lat="43.60735" lon="3.05796">
        <ele>591.2</ele>
        <time>2017-06-18T07:22:00Z</time>
      </trkpt>
      <trkpt lat="43.60732" lon="3.05806">
        <ele>590.9</ele>
        <time>2017-06-18T07:22:03Z</time>
      </trkpt>
      <trkpt lat="43.60725" lon="3.05816">
        <ele>590.4</ele>
        <time>2017-06-18T07:22:07Z</time>
      </trkpt>
      <trkpt lat="43.6072" lon="3.05824">
        <ele>590.3</ele>
        <time>2017-06-18T07:22:10Z</time>
      </trkpt>
      <trkpt lat="43.60714" lon="3.05832">
        <ele>590.1</ele>
        <time>2017-06-18T07:22:13Z</time>
      </trkpt>
      <trkpt lat="43.60707" lon="3.05838">
        <ele>590</ele>
        <time>2017-06-18T07:22:17Z</time>
      </trkpt>
      <trkpt lat="43.60701" lon="3.05844">
        <ele>590</ele>
        <time>2017-06-18T07:22:20Z</time>
      </trkpt>
      <trkpt lat="43.60696" lon="3.05854">
        <ele>590</ele>
        <time>2017-06-18T07:22:23Z</time>
      </trkpt>
      <trkpt lat="43.60692" lon="3.05863">
        <ele>590.2</ele>
        <time>2017-06-18T07:22:26Z</time>
      </trkpt>
      <trkpt lat="43.60689" lon="3.05873">
        <ele>590.3</ele>
        <time>2017-06-18T07:22:31Z</time>
      </trkpt>
      <trkpt lat="43.60685" lon="3.05881">
        <ele>590.3</ele>
        <time>2017-06-18T07:22:35Z</time>
      </trkpt>
      <trkpt lat="43.60681" lon="3.05893">
        <ele>590.3</ele>
        <time>2017-06-18T07:22:39Z</time>
      </trkpt>
      <trkpt lat="43.60676" lon="3.05901">
        <ele>590.3</ele>
        <time>2017-06-18T07:22:42Z</time>
      </trkpt>
      <trkpt lat="43.60669" lon="3.05912">
        <ele>590.3</ele>
        <time>2017-06-18T07:22:46Z</time>
      </trkpt>
      <trkpt lat="43.60663" lon="3.0592">
        <ele>590.2</ele>
        <time>2017-06-18T07:22:49Z</time>
      </trkpt>
      <trkpt lat="43.60658" lon="3.05927">
        <ele>590.1</ele>
        <time>2017-06-18T07:22:52Z</time>
      </trkpt>
      <trkpt lat="43.60652" lon="3.05934">
        <ele>590.1</ele>
        <time>2017-06-18T07:22:55Z</time>
      </trkpt>
      <trkpt lat="43.60645" lon="3.05942">
        <ele>590.3</ele>
        <time>2017-06-18T07:22:59Z</time>
      </trkpt>
      <trkpt lat="43.60637" lon="3.05949">
        <ele>590.4</ele>
        <time>2017-06-18T07:23:03Z</time>
      </trkpt>
      <trkpt lat="43.60628" lon="3.05955">
        <ele>590.5</ele>
        <time>2017-06-18T07:23:07Z</time>
      </trkpt>
      <trkpt lat="43.6062" lon="3.05962">
        <ele>590.5</ele>
        <time>2017-06-18T07:23:10Z</time>
      </trkpt>
      <trkpt lat="43.60613" lon="3.05966">
        <ele>590.7</ele>
        <time>2017-06-18T07:23:14Z</time>
      </trkpt>
      <trkpt lat="43.60606" lon="3.05972">
        <ele>590.9</ele>
        <time>2017-06-18T07:23:18Z</time>
      </trkpt>
      <trkpt lat="43.60599" lon="3.05977">
        <ele>591</ele>
        <time>2017-06-18T07:23:21Z</time>
      </trkpt>
      <trkpt lat="43.60591" lon="3.05984">
        <ele>591.2</ele>
        <time>2017-06-18T07:23:25Z</time>
      </trkpt>
      <trkpt lat="43.60585" lon="3.0599">
        <ele>591.4</ele>
        <time>2017-06-18T07:23:28Z</time>
      </trkpt>
      <trkpt lat="43.60577" lon="3.05995">
        <ele>591.5</ele>
        <time>2017-06-18T07:23:32Z</time>
      </trkpt>
      <trkpt lat="43.60569" lon="3.06">
        <ele>591.4</ele>
        <time>2017-06-18T07:23:36Z</time>
      </trkpt>
      <trkpt lat="43.60562" lon="3.06004">
        <ele>591.5</ele>
        <time>2017-06-18T07:23:40Z</time>
      </trkpt>
      <trkpt lat="43.60554" lon="3.06005">
        <ele>591.6</ele>
        <time>2017-06-18T07:23:43Z</time>
      </trkpt>
      <trkpt lat="43.60545" lon="3.06011">
        <ele>591.9</ele>
        <time>2017-06-18T07:23:46Z</time>
      </trkpt>
      <trkpt lat="43.60539" lon="3.06017">
        <ele>592.5</ele>
        <time>2017-06-18T07:23:50Z</time>
      </trkpt>
      <trkpt lat="43.60528" lon="3.06022">
        <ele>593.1</ele>
        <time>2017-06-18T07:23:54Z</time>
      </trkpt>
      <trkpt lat="43.60521" lon="3.06024">
        <ele>593.3</ele>
        <time>2017-06-18T07:23:56Z</time>
      </trkpt>
      <trkpt lat="43.60511" lon="3.06027">
        <ele>593.5</ele>
        <time>2017-06-18T07:23:59Z</time>
      </trkpt>
      <trkpt lat="43.60503" lon="3.0603">
        <ele>593.7</ele>
        <time>2017-06-18T07:24:02Z</time>
      </trkpt>
      <trkpt lat="43.60497" lon="3.06036">
        <ele>593.9</ele>
        <time>2017-06-18T07:24:05Z</time>
      </trkpt>
      <trkpt lat="43.6049" lon="3.06045">
        <ele>594.1</ele>
        <time>2017-06-18T07:24:08Z</time>
      </trkpt>
      <trkpt lat="43.60483" lon="3.06054">
        <ele>594.2</ele>
        <time>2017-06-18T07:24:11Z</time>
      </trkpt>
      <trkpt lat="43.60476" lon="3.0606">
        <ele>594.2</ele>
        <time>2017-06-18T07:24:14Z</time>
      </trkpt>
      <trkpt lat="43.60471" lon="3.06056">
        <ele>593.8</ele>
        <time>2017-06-18T07:24:21Z</time>
      </trkpt>
      <trkpt lat="43.60478" lon="3.06048">
        <ele>593.3</ele>
        <time>2017-06-18T07:24:26Z</time>
      </trkpt>
      <trkpt lat="43.60483" lon="3.0604">
        <ele>593.2</ele>
        <time>2017-06-18T07:24:31Z</time>
      </trkpt>
      <trkpt lat="43.60488" lon="3.06031">
        <ele>593.4</ele>
        <time>2017-06-18T07:24:36Z</time>
      </trkpt>
      <trkpt lat="43.60492" lon="3.0602">
        <ele>593.9</ele>
        <time>2017-06-18T07:24:40Z</time>
      </trkpt>
      <trkpt lat="43.60497" lon="3.06012">
        <ele>594.5</ele>
        <time>2017-06-18T07:24:45Z</time>
      </trkpt>
      <trkpt lat="43.60504" lon="3.06005">
        <ele>595.4</ele>
        <time>2017-06-18T07:24:50Z</time>
      </trkpt>
      <trkpt lat="43.60512" lon="3.06002">
        <ele>596.2</ele>
        <time>2017-06-18T07:24:54Z</time>
      </trkpt>
      <trkpt lat="43.60519" lon="3.05997">
        <ele>597.4</ele>
        <time>2017-06-18T07:24:58Z</time>
      </trkpt>
      <trkpt lat="43.60527" lon="3.05993">
        <ele>598.6</ele>
        <time>2017-06-18T07:25:02Z</time>
      </trkpt>
      <trkpt lat="43.60534" lon="3.05989">
        <ele>599.6</ele>
        <time>2017-06-18T07:25:06Z</time>
      </trkpt>
      <trkpt lat="43.60541" lon="3.05983">
        <ele>600.5</ele>
        <time>2017-06-18T07:25:10Z</time>
      </trkpt>
      <trkpt lat="43.60547" lon="3.05976">
        <ele>601.2</ele>
        <time>2017-06-18T07:25:14Z</time>
      </trkpt>
      <trkpt lat="43.60554" lon="3.05967">
        <ele>601.6</ele>
        <time>2017-06-18T07:25:18Z</time>
      </trkpt>
      <trkpt lat="43.60558" lon="3.05958">
        <ele>602</ele>
        <time>2017-06-18T07:25:22Z</time>
      </trkpt>
      <trkpt lat="43.60562" lon="3.05948">
        <ele>602.3</ele>
        <time>2017-06-18T07:25:26Z</time>
      </trkpt>
      <trkpt lat="43.60565" lon="3.05937">
        <ele>602.8</ele>
        <time>2017-06-18T07:25:31Z</time>
      </trkpt>
      <trkpt lat="43.60568" lon="3.05927">
        <ele>603.2</ele>
        <time>2017-06-18T07:25:35Z</time>
      </trkpt>
      <trkpt lat="43.60573" lon="3.05916">
        <ele>603.8</ele>
        <time>2017-06-18T07:25:40Z</time>
      </trkpt>
      <trkpt lat="43.60576" lon="3.05908">
        <ele>604</ele>
        <time>2017-06-18T07:25:44Z</time>
      </trkpt>
      <trkpt lat="43.6058" lon="3.05898">
        <ele>604.3</ele>
        <time>2017-06-18T07:25:47Z</time>
      </trkpt>
      <trkpt lat="43.60583" lon="3.05889">
        <ele>604.6</ele>
        <time>2017-06-18T07:25:51Z</time>
      </trkpt>
      <trkpt lat="43.60585" lon="3.05877">
        <ele>605.4</ele>
        <time>2017-06-18T07:25:55Z</time>
      </trkpt>
      <trkpt lat="43.60587" lon="3.05867">
        <ele>606.4</ele>
        <time>2017-06-18T07:25:59Z</time>
      </trkpt>
      <trkpt lat="43.6059" lon="3.05857">
        <ele>607.5</ele>
        <time>2017-06-18T07:26:03Z</time>
      </trkpt>
      <trkpt lat="43.60593" lon="3.05846">
        <ele>608.2</ele>
        <time>2017-06-18T07:26:06Z</time>
      </trkpt>
      <trkpt lat="43.60595" lon="3.05836">
        <ele>608.6</ele>
        <time>2017-06-18T07:26:09Z</time>
      </trkpt>
      <trkpt lat="43.60598" lon="3.05825">
        <ele>609.2</ele>
        <time>2017-06-18T07:26:13Z</time>
      </trkpt>
      <trkpt lat="43.606" lon="3.05815">
        <ele>609.6</ele>
        <time>2017-06-18T07:26:16Z</time>
      </trkpt>
      <trkpt lat="43.60604" lon="3.05804">
        <ele>609.9</ele>
        <time>2017-06-18T07:26:19Z</time>
      </trkpt>
      <trkpt lat="43.60607" lon="3.05792">
        <ele>610</ele>
        <time>2017-06-18T07:26:23Z</time>
      </trkpt>
      <trkpt lat="43.6061" lon="3.05782">
        <ele>610.1</ele>
        <time>2017-06-18T07:26:27Z</time>
      </trkpt>
      <trkpt lat="43.60613" lon="3.05773">
        <ele>610.6</ele>
        <time>2017-06-18T07:26:31Z</time>
      </trkpt>
      <trkpt lat="43.60617" lon="3.05763">
        <ele>611.4</ele>
        <time>2017-06-18T07:26:35Z</time>
      </trkpt>
      <trkpt lat="43.60622" lon="3.05753">
        <ele>612.2</ele>
        <time>2017-06-18T07:26:39Z</time>
      </trkpt>
      <trkpt lat="43.60625" lon="3.05744">
        <ele>612.9</ele>
        <time>2017-06-18T07:26:43Z</time>
      </trkpt>
      <trkpt lat="43.60628" lon="3.05734">
        <ele>613.4</ele>
        <time>2017-06-18T07:26:47Z</time>
      </trkpt>
      <trkpt lat="43.60632" lon="3.0572">
        <ele>613.9</ele>
        <time>2017-06-18T07:26:51Z</time>
      </trkpt>
      <trkpt lat="43.60634" lon="3.05709">
        <ele>614.4</ele>
        <time>2017-06-18T07:26:55Z</time>
      </trkpt>
      <trkpt lat="43.60636" lon="3.05698">
        <ele>614.8</ele>
        <time>2017-06-18T07:26:59Z</time>
      </trkpt>
      <trkpt lat="43.60637" lon="3.05685">
        <ele>615.2</ele>
        <time>2017-06-18T07:27:03Z</time>
      </trkpt>
      <trkpt lat="43.60637" lon="3.05675">
        <ele>615.7</ele>
        <time>2017-06-18T07:27:07Z</time>
      </trkpt>
      <trkpt lat="43.60638" lon="3.05663">
        <ele>616.3</ele>
        <time>2017-06-18T07:27:11Z</time>
      </trkpt>
      <trkpt lat="43.60638" lon="3.05651">
        <ele>617</ele>
        <time>2017-06-18T07:27:15Z</time>
      </trkpt>
      <trkpt lat="43.60639" lon="3.05639">
        <ele>617.7</ele>
        <time>2017-06-18T07:27:19Z</time>
      </trkpt>
      <trkpt lat="43.6064" lon="3.05628">
        <ele>618.3</ele>
        <time>2017-06-18T07:27:24Z</time>
      </trkpt>
      <trkpt lat="43.60642" lon="3.05616">
        <ele>618.8</ele>
        <time>2017-06-18T07:27:28Z</time>
      </trkpt>
      <trkpt lat="43.60642" lon="3.05604">
        <ele>619.8</ele>
        <time>2017-06-18T07:27:33Z</time>
      </trkpt>
      <trkpt lat="43.60642" lon="3.05592">
        <ele>620.7</ele>
        <time>2017-06-18T07:27:37Z</time>
      </trkpt>
      <trkpt lat="43.60643" lon="3.05582">
        <ele>621.6</ele>
        <time>2017-06-18T07:27:41Z</time>
      </trkpt>
      <trkpt lat="43.60644" lon="3.05571">
        <ele>622.6</ele>
        <time>2017-06-18T07:27:44Z</time>
      </trkpt>
      <trkpt lat="43.60647" lon="3.0556">
        <ele>623.4</ele>
        <time>2017-06-18T07:27:47Z</time>
      </trkpt>
      <trkpt lat="43.6065" lon="3.05549">
        <ele>624.7</ele>
        <time>2017-06-18T07:27:51Z</time>
      </trkpt>
      <trkpt lat="43.60653" lon="3.05539">
        <ele>625.2</ele>
        <time>2017-06-18T07:27:54Z</time>
      </trkpt>
      <trkpt lat="43.60658" lon="3.0553">
        <ele>625.7</ele>
        <time>2017-06-18T07:27:58Z</time>
      </trkpt>
      <trkpt lat="43.60666" lon="3.05522">
        <ele>626</ele>
        <time>2017-06-18T07:28:02Z</time>
      </trkpt>
      <trkpt lat="43.60672" lon="3.05517">
        <ele>626.4</ele>
        <time>2017-06-18T07:28:05Z</time>
      </trkpt>
      <trkpt lat="43.60681" lon="3.05512">
        <ele>626.8</ele>
        <time>2017-06-18T07:28:09Z</time>
      </trkpt>
      <trkpt lat="43.60689" lon="3.05507">
        <ele>627.2</ele>
        <time>2017-06-18T07:28:12Z</time>
      </trkpt>
      <trkpt lat="43.60697" lon="3.05502">
        <ele>627.8</ele>
        <time>2017-06-18T07:28:15Z</time>
      </trkpt>
      <trkpt lat="43.60704" lon="3.05496">
        <ele>628.4</ele>
        <time>2017-06-18T07:28:18Z</time>
      </trkpt>
      <trkpt lat="43.60709" lon="3.05486">
        <ele>628.9</ele>
        <time>2017-06-18T07:28:22Z</time>
      </trkpt>
      <trkpt lat="43.60715" lon="3.05477">
        <ele>629.3</ele>
        <time>2017-06-18T07:28:25Z</time>
      </trkpt>
      <trkpt lat="43.60721" lon="3.05468">
        <ele>629.7</ele>
        <time>2017-06-18T07:28:28Z</time>
      </trkpt>
      <trkpt lat="43.60725" lon="3.05457">
        <ele>630.1</ele>
        <time>2017-06-18T07:28:31Z</time>
      </trkpt>
      <trkpt lat="43.6073" lon="3.05449">
        <ele>630.6</ele>
        <time>2017-06-18T07:28:34Z</time>
      </trkpt>
      <trkpt lat="43.60736" lon="3.05439">
        <ele>631.1</ele>
        <time>2017-06-18T07:28:37Z</time>
      </trkpt>
      <trkpt lat="43.60743" lon="3.05431">
        <ele>631.8</ele>
        <time>2017-06-18T07:28:40Z</time>
      </trkpt>
      <trkpt lat="43.6075" lon="3.05425">
        <ele>632.8</ele>
        <time>2017-06-18T07:28:44Z</time>
      </trkpt>
      <trkpt lat="43.60756" lon="3.05416">
        <ele>633.3</ele>
        <time>2017-06-18T07:28:47Z</time>
      </trkpt>
      <trkpt lat="43.60763" lon="3.05407">
        <ele>633.7</ele>
        <time>2017-06-18T07:28:50Z</time>
      </trkpt>
      <trkpt lat="43.60769" lon="3.05399">
        <ele>634.1</ele>
        <time>2017-06-18T07:28:53Z</time>
      </trkpt>
      <trkpt lat="43.60776" lon="3.05392">
        <ele>634.3</ele>
        <time>2017-06-18T07:28:56Z</time>
      </trkpt>
      <trkpt lat="43.60783" lon="3.05383">
        <ele>634.5</ele>
        <time>2017-06-18T07:28:59Z</time>
      </trkpt>
      <trkpt lat="43.60789" lon="3.05376">
        <ele>634.7</ele>
        <time>2017-06-18T07:29:02Z</time>
      </trkpt>
      <trkpt lat="43.60795" lon="3.05366">
        <ele>634.7</ele>
        <time>2017-06-18T07:29:05Z</time>
      </trkpt>
      <trkpt lat="43.60801" lon="3.05358">
        <ele>634.9</ele>
        <time>2017-06-18T07:29:08Z</time>
      </trkpt>
      <trkpt lat="43.60806" lon="3.0535">
        <ele>635.2</ele>
        <time>2017-06-18T07:29:11Z</time>
      </trkpt>
      <trkpt lat="43.60812" lon="3.0534">
        <ele>635.4</ele>
        <time>2017-06-18T07:29:14Z</time>
      </trkpt>
      <trkpt lat="43.60818" lon="3.05333">
        <ele>635.5</ele>
        <time>2017-06-18T07:29:16Z</time>
      </trkpt>
      <trkpt lat="43.60825" lon="3.05321">
        <ele>635.7</ele>
        <time>2017-06-18T07:29:19Z</time>
      </trkpt>
      <trkpt lat="43.60829" lon="3.05313">
        <ele>635.9</ele>
        <time>2017-06-18T07:29:22Z</time>
      </trkpt>
      <trkpt lat="43.60834" lon="3.05302">
        <ele>636.1</ele>
        <time>2017-06-18T07:29:25Z</time>
      </trkpt>
      <trkpt lat="43.60839" lon="3.05293">
        <ele>636.4</ele>
        <time>2017-06-18T07:29:29Z</time>
      </trkpt>
      <trkpt lat="43.60843" lon="3.05284">
        <ele>636.8</ele>
        <time>2017-06-18T07:29:34Z</time>
      </trkpt>
      <trkpt lat="43.60839" lon="3.05279">
        <ele>637.4</ele>
        <time>2017-06-18T07:29:41Z</time>
      </trkpt>
      <trkpt lat="43.60841" lon="3.0528">
        <ele>638.3</ele>
        <time>2017-06-18T07:29:48Z</time>
      </trkpt>
      <trkpt lat="43.60837" lon="3.05283">
        <ele>639</ele>
        <time>2017-06-18T07:29:55Z</time>
      </trkpt>
      <trkpt lat="43.60843" lon="3.05277">
        <ele>639.5</ele>
        <time>2017-06-18T07:30:01Z</time>
      </trkpt>
      <trkpt lat="43.60849" lon="3.05269">
        <ele>639.6</ele>
        <time>2017-06-18T07:30:05Z</time>
      </trkpt>
      <trkpt lat="43.60855" lon="3.05262">
        <ele>639.8</ele>
        <time>2017-06-18T07:30:09Z</time>
      </trkpt>
      <trkpt lat="43.60863" lon="3.05255">
        <ele>640.1</ele>
        <time>2017-06-18T07:30:13Z</time>
      </trkpt>
      <trkpt lat="43.60869" lon="3.05248">
        <ele>640.6</ele>
        <time>2017-06-18T07:30:17Z</time>
      </trkpt>
      <trkpt lat="43.60875" lon="3.05241">
        <ele>640.8</ele>
        <time>2017-06-18T07:30:20Z</time>
      </trkpt>
      <trkpt lat="43.60882" lon="3.05234">
        <ele>641</ele>
        <time>2017-06-18T07:30:23Z</time>
      </trkpt>
      <trkpt lat="43.60888" lon="3.05228">
        <ele>641.2</ele>
        <time>2017-06-18T07:30:26Z</time>
      </trkpt>
      <trkpt lat="43.60894" lon="3.05221">
        <ele>641.3</ele>
        <time>2017-06-18T07:30:29Z</time>
      </trkpt>
      <trkpt lat="43.60902" lon="3.05212">
        <ele>641.5</ele>
        <time>2017-06-18T07:30:33Z</time>
      </trkpt>
      <trkpt lat="43.60908" lon="3.05205">
        <ele>641.7</ele>
        <time>2017-06-18T07:30:36Z</time>
      </trkpt>
      <trkpt lat="43.60917" lon="3.05197">
        <ele>641.8</ele>
        <time>2017-06-18T07:30:39Z</time>
      </trkpt>
      <trkpt lat="43.60924" lon="3.0519">
        <ele>642.1</ele>
        <time>2017-06-18T07:30:42Z</time>
      </trkpt>
      <trkpt lat="43.60932" lon="3.05184">
        <ele>642.3</ele>
        <time>2017-06-18T07:30:45Z</time>
      </trkpt>
      <trkpt lat="43.60939" lon="3.0518">
        <ele>642.5</ele>
        <time>2017-06-18T07:30:48Z</time>
      </trkpt>
      <trkpt lat="43.60949" lon="3.05174">
        <ele>642.7</ele>
        <time>2017-06-18T07:30:51Z</time>
      </trkpt>
      <trkpt lat="43.60958" lon="3.05168">
        <ele>642.9</ele>
        <time>2017-06-18T07:30:54Z</time>
      </trkpt>
      <trkpt lat="43.60967" lon="3.05162">
        <ele>643.2</ele>
        <time>2017-06-18T07:30:57Z</time>
      </trkpt>
      <trkpt lat="43.60976" lon="3.05155">
        <ele>643.2</ele>
        <time>2017-06-18T07:31:00Z</time>
      </trkpt>
      <trkpt lat="43.60985" lon="3.05147">
        <ele>643.3</ele>
        <time>2017-06-18T07:31:03Z</time>
      </trkpt>
      <trkpt lat="43.60993" lon="3.05136">
        <ele>643.3</ele>
        <time>2017-06-18T07:31:06Z</time>
      </trkpt>
      <trkpt lat="43.61" lon="3.05126">
        <ele>643.3</ele>
        <time>2017-06-18T07:31:09Z</time>
      </trkpt>
      <trkpt lat="43.61005" lon="3.05115">
        <ele>643.4</ele>
        <time>2017-06-18T07:31:12Z</time>
      </trkpt>
      <trkpt lat="43.61009" lon="3.05103">
        <ele>643.5</ele>
        <time>2017-06-18T07:31:15Z</time>
      </trkpt>
      <trkpt lat="43.6101" lon="3.05093">
        <ele>643.5</ele>
        <time>2017-06-18T07:31:17Z</time>
      </trkpt>
      <trkpt lat="43.61012" lon="3.05078">
        <ele>643.6</ele>
        <time>2017-06-18T07:31:20Z</time>
      </trkpt>
      <trkpt lat="43.61012" lon="3.05066">
        <ele>643.6</ele>
        <time>2017-06-18T07:31:22Z</time>
      </trkpt>
      <trkpt lat="43.61012" lon="3.05052">
        <ele>644.6</ele>
        <time>2017-06-18T07:31:25Z</time>
      </trkpt>
      <trkpt lat="43.61014" lon="3.05038">
        <ele>644.9</ele>
        <time>2017-06-18T07:31:28Z</time>
      </trkpt>
      <trkpt lat="43.61019" lon="3.05026">
        <ele>645.1</ele>
        <time>2017-06-18T07:31:31Z</time>
      </trkpt>
      <trkpt lat="43.61024" lon="3.05018">
        <ele>645.7</ele>
        <time>2017-06-18T07:31:33Z</time>
      </trkpt>
      <trkpt lat="43.61031" lon="3.0501">
        <ele>645.5</ele>
        <time>2017-06-18T07:31:35Z</time>
      </trkpt>
      <trkpt lat="43.61039" lon="3.05002">
        <ele>644.9</ele>
        <time>2017-06-18T07:31:37Z</time>
      </trkpt>
      <trkpt lat="43.61047" lon="3.04996">
        <ele>644.5</ele>
        <time>2017-06-18T07:31:39Z</time>
      </trkpt>
      <trkpt lat="43.61055" lon="3.04994">
        <ele>645.3</ele>
        <time>2017-06-18T07:31:41Z</time>
      </trkpt>
      <trkpt lat="43.61063" lon="3.04996">
        <ele>646.6</ele>
        <time>2017-06-18T07:31:43Z</time>
      </trkpt>
      <trkpt lat="43.61072" lon="3.04999">
        <ele>647</ele>
        <time>2017-06-18T07:31:46Z</time>
      </trkpt>
      <trkpt lat="43.61082" lon="3.05003">
        <ele>647.2</ele>
        <time>2017-06-18T07:31:49Z</time>
      </trkpt>
      <trkpt lat="43.6109" lon="3.05006">
        <ele>647.2</ele>
        <time>2017-06-18T07:31:51Z</time>
      </trkpt>
      <trkpt lat="43.61101" lon="3.05006">
        <ele>647.3</ele>
        <time>2017-06-18T07:31:54Z</time>
      </trkpt>
      <trkpt lat="43.61109" lon="3.05007">
        <ele>647.3</ele>
        <time>2017-06-18T07:31:56Z</time>
      </trkpt>
      <trkpt lat="43.61119" lon="3.05004">
        <ele>647.1</ele>
        <time>2017-06-18T07:31:59Z</time>
      </trkpt>
      <trkpt lat="43.61126" lon="3.05001">
        <ele>647</ele>
        <time>2017-06-18T07:32:01Z</time>
      </trkpt>
      <trkpt lat="43.61133" lon="3.04999">
        <ele>646.9</ele>
        <time>2017-06-18T07:32:03Z</time>
      </trkpt>
      <trkpt lat="43.61143" lon="3.04993">
        <ele>646.8</ele>
        <time>2017-06-18T07:32:06Z</time>
      </trkpt>
      <trkpt lat="43.6115" lon="3.04989">
        <ele>646.7</ele>
        <time>2017-06-18T07:32:08Z</time>
      </trkpt>
      <trkpt lat="43.61157" lon="3.04983">
        <ele>645.4</ele>
        <time>2017-06-18T07:32:10Z</time>
      </trkpt>
      <trkpt lat="43.61164" lon="3.04978">
        <ele>644.2</ele>
        <time>2017-06-18T07:32:12Z</time>
      </trkpt>
      <trkpt lat="43.61171" lon="3.04972">
        <ele>643.6</ele>
        <time>2017-06-18T07:32:14Z</time>
      </trkpt>
      <trkpt lat="43.61178" lon="3.04966">
        <ele>643.4</ele>
        <time>2017-06-18T07:32:16Z</time>
      </trkpt>
      <trkpt lat="43.61184" lon="3.04959">
        <ele>643.4</ele>
        <time>2017-06-18T07:32:18Z</time>
      </trkpt>
      <trkpt lat="43.6119" lon="3.04953">
        <ele>643.4</ele>
        <time>2017-06-18T07:32:20Z</time>
      </trkpt>
      <trkpt lat="43.61196" lon="3.04946">
        <ele>643.6</ele>
        <time>2017-06-18T07:32:22Z</time>
      </trkpt>
      <trkpt lat="43.61202" lon="3.04939">
        <ele>643.7</ele>
        <time>2017-06-18T07:32:24Z</time>
      </trkpt>
      <trkpt lat="43.61207" lon="3.04931">
        <ele>644</ele>
        <time>2017-06-18T07:32:26Z</time>
      </trkpt>
      <trkpt lat="43.61212" lon="3.04923">
        <ele>644.2</ele>
        <time>2017-06-18T07:32:28Z</time>
      </trkpt>
      <trkpt lat="43.61217" lon="3.04916">
        <ele>644.4</ele>
        <time>2017-06-18T07:32:30Z</time>
      </trkpt>
      <trkpt lat="43.61222" lon="3.04908">
        <ele>644.4</ele>
        <time>2017-06-18T07:32:32Z</time>
      </trkpt>
      <trkpt lat="43.6123" lon="3.04898">
        <ele>644.7</ele>
        <time>2017-06-18T07:32:35Z</time>
      </trkpt>
      <trkpt lat="43.61235" lon="3.0489">
        <ele>644.7</ele>
        <time>2017-06-18T07:32:37Z</time>
      </trkpt>
      <trkpt lat="43.6124" lon="3.04882">
        <ele>644.7</ele>
        <time>2017-06-18T07:32:39Z</time>
      </trkpt>
      <trkpt lat="43.61245" lon="3.04874">
        <ele>645</ele>
        <time>2017-06-18T07:32:41Z</time>
      </trkpt>
      <trkpt lat="43.6125" lon="3.04866">
        <ele>645.3</ele>
        <time>2017-06-18T07:32:43Z</time>
      </trkpt>
      <trkpt lat="43.61254" lon="3.04858">
        <ele>645.9</ele>
        <time>2017-06-18T07:32:45Z</time>
      </trkpt>
      <trkpt lat="43.61259" lon="3.04849">
        <ele>646.4</ele>
        <time>2017-06-18T07:32:47Z</time>
      </trkpt>
      <trkpt lat="43.61266" lon="3.04837">
        <ele>646.5</ele>
        <time>2017-06-18T07:32:50Z</time>
      </trkpt>
      <trkpt lat="43.61272" lon="3.04824">
        <ele>646.6</ele>
        <time>2017-06-18T07:32:53Z</time>
      </trkpt>
      <trkpt lat="43.61278" lon="3.04812">
        <ele>646.8</ele>
        <time>2017-06-18T07:32:56Z</time>
      </trkpt>
      <trkpt lat="43.61282" lon="3.04803">
        <ele>647</ele>
        <time>2017-06-18T07:32:58Z</time>
      </trkpt>
      <trkpt lat="43.61288" lon="3.04794">
        <ele>647.3</ele>
        <time>2017-06-18T07:33:01Z</time>
      </trkpt>
      <trkpt lat="43.61294" lon="3.04783">
        <ele>647.7</ele>
        <time>2017-06-18T07:33:04Z</time>
      </trkpt>
      <trkpt lat="43.61299" lon="3.04775">
        <ele>648</ele>
        <time>2017-06-18T07:33:07Z</time>
      </trkpt>
      <trkpt lat="43.61304" lon="3.04764">
        <ele>648.3</ele>
        <time>2017-06-18T07:33:10Z</time>
      </trkpt>
      <trkpt lat="43.61307" lon="3.04753">
        <ele>648.4</ele>
        <time>2017-06-18T07:33:13Z</time>
      </trkpt>
      <trkpt lat="43.61313" lon="3.04742">
        <ele>648.7</ele>
        <time>2017-06-18T07:33:16Z</time>
      </trkpt>
      <trkpt lat="43.61317" lon="3.0473">
        <ele>648.9</ele>
        <time>2017-06-18T07:33:19Z</time>
      </trkpt>
      <trkpt lat="43.6132" lon="3.04719">
        <ele>649.4</ele>
        <time>2017-06-18T07:33:22Z</time>
      </trkpt>
      <trkpt lat="43.61323" lon="3.04707">
        <ele>650</ele>
        <time>2017-06-18T07:33:25Z</time>
      </trkpt>
      <trkpt lat="43.61325" lon="3.04696">
        <ele>650.5</ele>
        <time>2017-06-18T07:33:28Z</time>
      </trkpt>
      <trkpt lat="43.61327" lon="3.04684">
        <ele>651.3</ele>
        <time>2017-06-18T07:33:31Z</time>
      </trkpt>
      <trkpt lat="43.61328" lon="3.0467">
        <ele>652.1</ele>
        <time>2017-06-18T07:33:34Z</time>
      </trkpt>
      <trkpt lat="43.61328" lon="3.04657">
        <ele>653</ele>
        <time>2017-06-18T07:33:38Z</time>
      </trkpt>
      <trkpt lat="43.61329" lon="3.04645">
        <ele>653.6</ele>
        <time>2017-06-18T07:33:41Z</time>
      </trkpt>
      <trkpt lat="43.61329" lon="3.04632">
        <ele>654.7</ele>
        <time>2017-06-18T07:33:45Z</time>
      </trkpt>
      <trkpt lat="43.61334" lon="3.04622">
        <ele>655.9</ele>
        <time>2017-06-18T07:33:49Z</time>
      </trkpt>
      <trkpt lat="43.61341" lon="3.04614">
        <ele>657</ele>
        <time>2017-06-18T07:33:52Z</time>
      </trkpt>
      <trkpt lat="43.61346" lon="3.04604">
        <ele>658.5</ele>
        <time>2017-06-18T07:33:56Z</time>
      </trkpt>
      <trkpt lat="43.61352" lon="3.04593">
        <ele>659.3</ele>
        <time>2017-06-18T07:33:59Z</time>
      </trkpt>
      <trkpt lat="43.61357" lon="3.04583">
        <ele>660.2</ele>
        <time>2017-06-18T07:34:02Z</time>
      </trkpt>
      <trkpt lat="43.61362" lon="3.04574">
        <ele>661.2</ele>
        <time>2017-06-18T07:34:05Z</time>
      </trkpt>
      <trkpt lat="43.61367" lon="3.04561">
        <ele>662.1</ele>
        <time>2017-06-18T07:34:08Z</time>
      </trkpt>
      <trkpt lat="43.6137" lon="3.04552">
        <ele>663</ele>
        <time>2017-06-18T07:34:11Z</time>
      </trkpt>
      <trkpt lat="43.61375" lon="3.04542">
        <ele>663.8</ele>
        <time>2017-06-18T07:34:14Z</time>
      </trkpt>
      <trkpt lat="43.61379" lon="3.0453">
        <ele>664.5</ele>
        <time>2017-06-18T07:34:17Z</time>
      </trkpt>
      <trkpt lat="43.61383" lon="3.04519">
        <ele>665.1</ele>
        <time>2017-06-18T07:34:20Z</time>
      </trkpt>
      <trkpt lat="43.61388" lon="3.0451">
        <ele>665.8</ele>
        <time>2017-06-18T07:34:23Z</time>
      </trkpt>
      <trkpt lat="43.6139" lon="3.04499">
        <ele>666.4</ele>
        <time>2017-06-18T07:34:26Z</time>
      </trkpt>
      <trkpt lat="43.61392" lon="3.04489">
        <ele>667.1</ele>
        <time>2017-06-18T07:34:29Z</time>
      </trkpt>
      <trkpt lat="43.61394" lon="3.04476">
        <ele>667.8</ele>
        <time>2017-06-18T07:34:32Z</time>
      </trkpt>
      <trkpt lat="43.61395" lon="3.04464">
        <ele>668.6</ele>
        <time>2017-06-18T07:34:35Z</time>
      </trkpt>
      <trkpt lat="43.61398" lon="3.04453">
        <ele>669.1</ele>
        <time>2017-06-18T07:34:38Z</time>
      </trkpt>
      <trkpt lat="43.61403" lon="3.04442">
        <ele>669.5</ele>
        <time>2017-06-18T07:34:41Z</time>
      </trkpt>
      <trkpt lat="43.61406" lon="3.04432">
        <ele>669.7</ele>
        <time>2017-06-18T07:34:44Z</time>
      </trkpt>
      <trkpt lat="43.6141" lon="3.04422">
        <ele>669.9</ele>
        <time>2017-06-18T07:34:47Z</time>
      </trkpt>
      <trkpt lat="43.61414" lon="3.04411">
        <ele>669.8</ele>
        <time>2017-06-18T07:34:51Z</time>
      </trkpt>
      <trkpt lat="43.61418" lon="3.044">
        <ele>669.7</ele>
        <time>2017-06-18T07:34:54Z</time>
      </trkpt>
      <trkpt lat="43.61421" lon="3.04389">
        <ele>669.6</ele>
        <time>2017-06-18T07:34:57Z</time>
      </trkpt>
      <trkpt lat="43.61423" lon="3.04379">
        <ele>669.5</ele>
        <time>2017-06-18T07:35:00Z</time>
      </trkpt>
      <trkpt lat="43.61425" lon="3.04369">
        <ele>669.4</ele>
        <time>2017-06-18T07:35:03Z</time>
      </trkpt>
      <trkpt lat="43.61427" lon="3.0436">
        <ele>669.4</ele>
        <time>2017-06-18T07:35:06Z</time>
      </trkpt>
      <trkpt lat="43.61432" lon="3.04348">
        <ele>669.3</ele>
        <time>2017-06-18T07:35:10Z</time>
      </trkpt>
      <trkpt lat="43.61435" lon="3.04339">
        <ele>669.3</ele>
        <time>2017-06-18T07:35:13Z</time>
      </trkpt>
      <trkpt lat="43.61439" lon="3.04328">
        <ele>669.3</ele>
        <time>2017-06-18T07:35:17Z</time>
      </trkpt>
      <trkpt lat="43.61444" lon="3.04318">
        <ele>669.4</ele>
        <time>2017-06-18T07:35:21Z</time>
      </trkpt>
      <trkpt lat="43.6145" lon="3.04307">
        <ele>669.7</ele>
        <time>2017-06-18T07:35:25Z</time>
      </trkpt>
      <trkpt lat="43.61455" lon="3.043">
        <ele>670</ele>
        <time>2017-06-18T07:35:28Z</time>
      </trkpt>
      <trkpt lat="43.61462" lon="3.04292">
        <ele>670.5</ele>
        <time>2017-06-18T07:35:32Z</time>
      </trkpt>
      <trkpt lat="43.61468" lon="3.04286">
        <ele>671.1</ele>
        <time>2017-06-18T07:35:36Z</time>
      </trkpt>
      <trkpt lat="43.61475" lon="3.04281">
        <ele>671.9</ele>
        <time>2017-06-18T07:35:40Z</time>
      </trkpt>
      <trkpt lat="43.61483" lon="3.04276">
        <ele>672.7</ele>
        <time>2017-06-18T07:35:44Z</time>
      </trkpt>
      <trkpt lat="43.61489" lon="3.04271">
        <ele>673.2</ele>
        <time>2017-06-18T07:35:47Z</time>
      </trkpt>
      <trkpt lat="43.61496" lon="3.04267">
        <ele>673.9</ele>
        <time>2017-06-18T07:35:50Z</time>
      </trkpt>
      <trkpt lat="43.61503" lon="3.04261">
        <ele>674.6</ele>
        <time>2017-06-18T07:35:53Z</time>
      </trkpt>
      <trkpt lat="43.61509" lon="3.04254">
        <ele>675.8</ele>
        <time>2017-06-18T07:35:57Z</time>
      </trkpt>
      <trkpt lat="43.61513" lon="3.04247">
        <ele>676.5</ele>
        <time>2017-06-18T07:36:00Z</time>
      </trkpt>
      <trkpt lat="43.61519" lon="3.04238">
        <ele>677.1</ele>
        <time>2017-06-18T07:36:03Z</time>
      </trkpt>
      <trkpt lat="43.61524" lon="3.0423">
        <ele>678</ele>
        <time>2017-06-18T07:36:07Z</time>
      </trkpt>
      <trkpt lat="43.6153" lon="3.0422">
        <ele>679.1</ele>
        <time>2017-06-18T07:36:11Z</time>
      </trkpt>
      <trkpt lat="43.61533" lon="3.04211">
        <ele>679.9</ele>
        <time>2017-06-18T07:36:14Z</time>
      </trkpt>
      <trkpt lat="43.61527" lon="3.04205">
        <ele>680.9</ele>
        <time>2017-06-18T07:36:19Z</time>
      </trkpt>
      <trkpt lat="43.6152" lon="3.04208">
        <ele>681.8</ele>
        <time>2017-06-18T07:36:25Z</time>
      </trkpt>
      <trkpt lat="43.61513" lon="3.04216">
        <ele>682.5</ele>
        <time>2017-06-18T07:36:30Z</time>
      </trkpt>
      <trkpt lat="43.61506" lon="3.04221">
        <ele>683.4</ele>
        <time>2017-06-18T07:36:34Z</time>
      </trkpt>
      <trkpt lat="43.61498" lon="3.04226">
        <ele>684.4</ele>
        <time>2017-06-18T07:36:38Z</time>
      </trkpt>
      <trkpt lat="43.6149" lon="3.0423">
        <ele>685.3</ele>
        <time>2017-06-18T07:36:42Z</time>
      </trkpt>
      <trkpt lat="43.61482" lon="3.04234">
        <ele>685.8</ele>
        <time>2017-06-18T07:36:45Z</time>
      </trkpt>
      <trkpt lat="43.61473" lon="3.04236">
        <ele>686.7</ele>
        <time>2017-06-18T07:36:49Z</time>
      </trkpt>
      <trkpt lat="43.61465" lon="3.04235">
        <ele>687.7</ele>
        <time>2017-06-18T07:36:53Z</time>
      </trkpt>
      <trkpt lat="43.61457" lon="3.04236">
        <ele>688.9</ele>
        <time>2017-06-18T07:36:57Z</time>
      </trkpt>
      <trkpt lat="43.61449" lon="3.04238">
        <ele>690.3</ele>
        <time>2017-06-18T07:37:01Z</time>
      </trkpt>
      <trkpt lat="43.61442" lon="3.04241">
        <ele>692.2</ele>
        <time>2017-06-18T07:37:06Z</time>
      </trkpt>
      <trkpt lat="43.61433" lon="3.04243">
        <ele>693.5</ele>
        <time>2017-06-18T07:37:10Z</time>
      </trkpt>
      <trkpt lat="43.61425" lon="3.04246">
        <ele>694.3</ele>
        <time>2017-06-18T07:37:13Z</time>
      </trkpt>
      <trkpt lat="43.61418" lon="3.04251">
        <ele>695.1</ele>
        <time>2017-06-18T07:37:16Z</time>
      </trkpt>
      <trkpt lat="43.61412" lon="3.04257">
        <ele>696.6</ele>
        <time>2017-06-18T07:37:20Z</time>
      </trkpt>
      <trkpt lat="43.61405" lon="3.04265">
        <ele>698.2</ele>
        <time>2017-06-18T07:37:25Z</time>
      </trkpt>
      <trkpt lat="43.61398" lon="3.04273">
        <ele>698.9</ele>
        <time>2017-06-18T07:37:28Z</time>
      </trkpt>
      <trkpt lat="43.61393" lon="3.0428">
        <ele>699.7</ele>
        <time>2017-06-18T07:37:32Z</time>
      </trkpt>
      <trkpt lat="43.61387" lon="3.0429">
        <ele>700.1</ele>
        <time>2017-06-18T07:37:35Z</time>
      </trkpt>
      <trkpt lat="43.61381" lon="3.04297">
        <ele>700.6</ele>
        <time>2017-06-18T07:37:38Z</time>
      </trkpt>
      <trkpt lat="43.61374" lon="3.04302">
        <ele>701.1</ele>
        <time>2017-06-18T07:37:41Z</time>
      </trkpt>
      <trkpt lat="43.61367" lon="3.04308">
        <ele>702.1</ele>
        <time>2017-06-18T07:37:45Z</time>
      </trkpt>
      <trkpt lat="43.61361" lon="3.04314">
        <ele>703</ele>
        <time>2017-06-18T07:37:50Z</time>
      </trkpt>
      <trkpt lat="43.61354" lon="3.04319">
        <ele>703.7</ele>
        <time>2017-06-18T07:37:53Z</time>
      </trkpt>
      <trkpt lat="43.61347" lon="3.04325">
        <ele>704.5</ele>
        <time>2017-06-18T07:37:56Z</time>
      </trkpt>
      <trkpt lat="43.61339" lon="3.04328">
        <ele>705.8</ele>
        <time>2017-06-18T07:38:00Z</time>
      </trkpt>
      <trkpt lat="43.61332" lon="3.04334">
        <ele>706.8</ele>
        <time>2017-06-18T07:38:04Z</time>
      </trkpt>
      <trkpt lat="43.61323" lon="3.04337">
        <ele>707.5</ele>
        <time>2017-06-18T07:38:08Z</time>
      </trkpt>
      <trkpt lat="43.61316" lon="3.04342">
        <ele>708.2</ele>
        <time>2017-06-18T07:38:14Z</time>
      </trkpt>
      <trkpt lat="43.61307" lon="3.04345">
        <ele>708.5</ele>
        <time>2017-06-18T07:38:18Z</time>
      </trkpt>
      <trkpt lat="43.61299" lon="3.04349">
        <ele>709.1</ele>
        <time>2017-06-18T07:38:22Z</time>
      </trkpt>
      <trkpt lat="43.61289" lon="3.04353">
        <ele>710.5</ele>
        <time>2017-06-18T07:38:27Z</time>
      </trkpt>
      <trkpt lat="43.61283" lon="3.04359">
        <ele>711.2</ele>
        <time>2017-06-18T07:38:31Z</time>
      </trkpt>
      <trkpt lat="43.61277" lon="3.04365">
        <ele>712</ele>
        <time>2017-06-18T07:38:35Z</time>
      </trkpt>
      <trkpt lat="43.6127" lon="3.04369">
        <ele>712.7</ele>
        <time>2017-06-18T07:38:39Z</time>
      </trkpt>
      <trkpt lat="43.61263" lon="3.04373">
        <ele>713.1</ele>
        <time>2017-06-18T07:38:42Z</time>
      </trkpt>
      <trkpt lat="43.61257" lon="3.04382">
        <ele>713.7</ele>
        <time>2017-06-18T07:38:45Z</time>
      </trkpt>
      <trkpt lat="43.61249" lon="3.04387">
        <ele>714.1</ele>
        <time>2017-06-18T07:38:48Z</time>
      </trkpt>
      <trkpt lat="43.61244" lon="3.04385">
        <ele>714.8</ele>
        <time>2017-06-18T07:38:55Z</time>
      </trkpt>
      <trkpt lat="43.61248" lon="3.04373">
        <ele>715.5</ele>
        <time>2017-06-18T07:38:59Z</time>
      </trkpt>
      <trkpt lat="43.61254" lon="3.04364">
        <ele>716.4</ele>
        <time>2017-06-18T07:39:03Z</time>
      </trkpt>
      <trkpt lat="43.61259" lon="3.04355">
        <ele>716.8</ele>
        <time>2017-06-18T07:39:06Z</time>
      </trkpt>
      <trkpt lat="43.61261" lon="3.04345">
        <ele>717.3</ele>
        <time>2017-06-18T07:39:10Z</time>
      </trkpt>
      <trkpt lat="43.61265" lon="3.04335">
        <ele>717.8</ele>
        <time>2017-06-18T07:39:14Z</time>
      </trkpt>
      <trkpt lat="43.61271" lon="3.04328">
        <ele>718.3</ele>
        <time>2017-06-18T07:39:18Z</time>
      </trkpt>
      <trkpt lat="43.61277" lon="3.0432">
        <ele>719.2</ele>
        <time>2017-06-18T07:39:22Z</time>
      </trkpt>
      <trkpt lat="43.61282" lon="3.04314">
        <ele>720.4</ele>
        <time>2017-06-18T07:39:26Z</time>
      </trkpt>
      <trkpt lat="43.61287" lon="3.04305">
        <ele>721.3</ele>
        <time>2017-06-18T07:39:29Z</time>
      </trkpt>
      <trkpt lat="43.61292" lon="3.04296">
        <ele>722.3</ele>
        <time>2017-06-18T07:39:33Z</time>
      </trkpt>
      <trkpt lat="43.61297" lon="3.04287">
        <ele>722.9</ele>
        <time>2017-06-18T07:39:36Z</time>
      </trkpt>
      <trkpt lat="43.61301" lon="3.04279">
        <ele>723.5</ele>
        <time>2017-06-18T07:39:40Z</time>
      </trkpt>
      <trkpt lat="43.61306" lon="3.04268">
        <ele>724.1</ele>
        <time>2017-06-18T07:39:44Z</time>
      </trkpt>
      <trkpt lat="43.61309" lon="3.04256">
        <ele>725.1</ele>
        <time>2017-06-18T07:39:49Z</time>
      </trkpt>
      <trkpt lat="43.61312" lon="3.04244">
        <ele>726</ele>
        <time>2017-06-18T07:39:54Z</time>
      </trkpt>
      <trkpt lat="43.61315" lon="3.04235">
        <ele>726.6</ele>
        <time>2017-06-18T07:39:57Z</time>
      </trkpt>
      <trkpt lat="43.61319" lon="3.04225">
        <ele>727.2</ele>
        <time>2017-06-18T07:40:00Z</time>
      </trkpt>
      <trkpt lat="43.61322" lon="3.04214">
        <ele>728</ele>
        <time>2017-06-18T07:40:04Z</time>
      </trkpt>
      <trkpt lat="43.61326" lon="3.04205">
        <ele>728.6</ele>
        <time>2017-06-18T07:40:08Z</time>
      </trkpt>
      <trkpt lat="43.61329" lon="3.04195">
        <ele>729.2</ele>
        <time>2017-06-18T07:40:11Z</time>
      </trkpt>
      <trkpt lat="43.61333" lon="3.04187">
        <ele>729.6</ele>
        <time>2017-06-18T07:40:14Z</time>
      </trkpt>
      <trkpt lat="43.61339" lon="3.04176">
        <ele>729.9</ele>
        <time>2017-06-18T07:40:18Z</time>
      </trkpt>
      <trkpt lat="43.61343" lon="3.04167">
        <ele>730.2</ele>
        <time>2017-06-18T07:40:21Z</time>
      </trkpt>
      <trkpt lat="43.61349" lon="3.04158">
        <ele>730.6</ele>
        <time>2017-06-18T07:40:25Z</time>
      </trkpt>
      <trkpt lat="43.61355" lon="3.04148">
        <ele>730.7</ele>
        <time>2017-06-18T07:40:30Z</time>
      </trkpt>
      <trkpt lat="43.6136" lon="3.0414">
        <ele>731</ele>
        <time>2017-06-18T07:40:33Z</time>
      </trkpt>
      <trkpt lat="43.61366" lon="3.0413">
        <ele>731.5</ele>
        <time>2017-06-18T07:40:37Z</time>
      </trkpt>
      <trkpt lat="43.61371" lon="3.04122">
        <ele>732</ele>
        <time>2017-06-18T07:40:40Z</time>
      </trkpt>
      <trkpt lat="43.61375" lon="3.04114">
        <ele>732.4</ele>
        <time>2017-06-18T07:40:43Z</time>
      </trkpt>
      <trkpt lat="43.61381" lon="3.04105">
        <ele>733.1</ele>
        <time>2017-06-18T07:40:47Z</time>
      </trkpt>
      <trkpt lat="43.61385" lon="3.04096">
        <ele>733.5</ele>
        <time>2017-06-18T07:40:50Z</time>
      </trkpt>
      <trkpt lat="43.61387" lon="3.04086">
        <ele>733.9</ele>
        <time>2017-06-18T07:40:53Z</time>
      </trkpt>
      <trkpt lat="43.61391" lon="3.04076">
        <ele>734.4</ele>
        <time>2017-06-18T07:40:56Z</time>
      </trkpt>
      <trkpt lat="43.61394" lon="3.04066">
        <ele>734.9</ele>
        <time>2017-06-18T07:40:59Z</time>
      </trkpt>
      <trkpt lat="43.61397" lon="3.04051">
        <ele>735.4</ele>
        <time>2017-06-18T07:41:02Z</time>
      </trkpt>
      <trkpt lat="43.61397" lon="3.0404">
        <ele>735.9</ele>
        <time>2017-06-18T07:41:05Z</time>
      </trkpt>
      <trkpt lat="43.61398" lon="3.04027">
        <ele>736.4</ele>
        <time>2017-06-18T07:41:08Z</time>
      </trkpt>
      <trkpt lat="43.61399" lon="3.04015">
        <ele>737.1</ele>
        <time>2017-06-18T07:41:13Z</time>
      </trkpt>
      <trkpt lat="43.614" lon="3.04003">
        <ele>737.7</ele>
        <time>2017-06-18T07:41:16Z</time>
      </trkpt>
      <trkpt lat="43.614" lon="3.03989">
        <ele>738.3</ele>
        <time>2017-06-18T07:41:19Z</time>
      </trkpt>
      <trkpt lat="43.61401" lon="3.03979">
        <ele>738.6</ele>
        <time>2017-06-18T07:41:22Z</time>
      </trkpt>
      <trkpt lat="43.61401" lon="3.03968">
        <ele>739</ele>
        <time>2017-06-18T07:41:25Z</time>
      </trkpt>
      <trkpt lat="43.61401" lon="3.03958">
        <ele>739.2</ele>
        <time>2017-06-18T07:41:27Z</time>
      </trkpt>
      <trkpt lat="43.61403" lon="3.03947">
        <ele>739.4</ele>
        <time>2017-06-18T07:41:29Z</time>
      </trkpt>
      <trkpt lat="43.61403" lon="3.03937">
        <ele>739.6</ele>
        <time>2017-06-18T07:41:31Z</time>
      </trkpt>
      <trkpt lat="43.61404" lon="3.03923">
        <ele>740.2</ele>
        <time>2017-06-18T07:41:34Z</time>
      </trkpt>
      <trkpt lat="43.61405" lon="3.03913">
        <ele>740.4</ele>
        <time>2017-06-18T07:41:37Z</time>
      </trkpt>
      <trkpt lat="43.61406" lon="3.039">
        <ele>740.6</ele>
        <time>2017-06-18T07:41:40Z</time>
      </trkpt>
      <trkpt lat="43.61409" lon="3.03888">
        <ele>741</ele>
        <time>2017-06-18T07:41:44Z</time>
      </trkpt>
      <trkpt lat="43.61411" lon="3.03876">
        <ele>741.2</ele>
        <time>2017-06-18T07:41:47Z</time>
      </trkpt>
      <trkpt lat="43.6141" lon="3.03866">
        <ele>741.5</ele>
        <time>2017-06-18T07:41:50Z</time>
      </trkpt>
      <trkpt lat="43.61409" lon="3.03853">
        <ele>741.8</ele>
        <time>2017-06-18T07:41:54Z</time>
      </trkpt>
      <trkpt lat="43.61408" lon="3.0384">
        <ele>742.4</ele>
        <time>2017-06-18T07:41:58Z</time>
      </trkpt>
      <trkpt lat="43.61404" lon="3.0383">
        <ele>743.2</ele>
        <time>2017-06-18T07:42:01Z</time>
      </trkpt>
      <trkpt lat="43.61398" lon="3.03819">
        <ele>743.9</ele>
        <time>2017-06-18T07:42:04Z</time>
      </trkpt>
      <trkpt lat="43.61394" lon="3.0381">
        <ele>744.7</ele>
        <time>2017-06-18T07:42:08Z</time>
      </trkpt>
      <trkpt lat="43.61388" lon="3.03802">
        <ele>745.6</ele>
        <time>2017-06-18T07:42:11Z</time>
      </trkpt>
      <trkpt lat="43.61383" lon="3.03795">
        <ele>746.4</ele>
        <time>2017-06-18T07:42:15Z</time>
      </trkpt>
      <trkpt lat="43.61378" lon="3.03784">
        <ele>747.5</ele>
        <time>2017-06-18T07:42:18Z</time>
      </trkpt>
      <trkpt lat="43.61372" lon="3.03774">
        <ele>748.4</ele>
        <time>2017-06-18T07:42:22Z</time>
      </trkpt>
      <trkpt lat="43.61367" lon="3.03766">
        <ele>749.3</ele>
        <time>2017-06-18T07:42:26Z</time>
      </trkpt>
      <trkpt lat="43.61362" lon="3.03759">
        <ele>749.9</ele>
        <time>2017-06-18T07:42:29Z</time>
      </trkpt>
      <trkpt lat="43.61356" lon="3.03753">
        <ele>750.6</ele>
        <time>2017-06-18T07:42:32Z</time>
      </trkpt>
      <trkpt lat="43.61348" lon="3.03747">
        <ele>751.5</ele>
        <time>2017-06-18T07:42:36Z</time>
      </trkpt>
      <trkpt lat="43.61341" lon="3.03742">
        <ele>752.5</ele>
        <time>2017-06-18T07:42:40Z</time>
      </trkpt>
      <trkpt lat="43.61331" lon="3.03736">
        <ele>753.4</ele>
        <time>2017-06-18T07:42:43Z</time>
      </trkpt>
      <trkpt lat="43.61323" lon="3.03734">
        <ele>754.3</ele>
        <time>2017-06-18T07:42:46Z</time>
      </trkpt>
      <trkpt lat="43.61316" lon="3.03727">
        <ele>755.5</ele>
        <time>2017-06-18T07:42:51Z</time>
      </trkpt>
      <trkpt lat="43.61307" lon="3.03719">
        <ele>756.3</ele>
        <time>2017-06-18T07:42:55Z</time>
      </trkpt>
      <trkpt lat="43.61301" lon="3.03714">
        <ele>757.1</ele>
        <time>2017-06-18T07:42:58Z</time>
      </trkpt>
      <trkpt lat="43.61295" lon="3.03708">
        <ele>757.8</ele>
        <time>2017-06-18T07:43:01Z</time>
      </trkpt>
      <trkpt lat="43.61285" lon="3.03704">
        <ele>758.6</ele>
        <time>2017-06-18T07:43:05Z</time>
      </trkpt>
      <trkpt lat="43.61278" lon="3.03703">
        <ele>759.2</ele>
        <time>2017-06-18T07:43:08Z</time>
      </trkpt>
      <trkpt lat="43.6127" lon="3.03702">
        <ele>759.6</ele>
        <time>2017-06-18T07:43:11Z</time>
      </trkpt>
      <trkpt lat="43.6126" lon="3.037">
        <ele>759.8</ele>
        <time>2017-06-18T07:43:14Z</time>
      </trkpt>
      <trkpt lat="43.61252" lon="3.03699">
        <ele>760.2</ele>
        <time>2017-06-18T07:43:17Z</time>
      </trkpt>
      <trkpt lat="43.61244" lon="3.03696">
        <ele>760.8</ele>
        <time>2017-06-18T07:43:20Z</time>
      </trkpt>
      <trkpt lat="43.61235" lon="3.03697">
        <ele>761.5</ele>
        <time>2017-06-18T07:43:24Z</time>
      </trkpt>
      <trkpt lat="43.61226" lon="3.03698">
        <ele>762.2</ele>
        <time>2017-06-18T07:43:28Z</time>
      </trkpt>
      <trkpt lat="43.61218" lon="3.03697">
        <ele>762.7</ele>
        <time>2017-06-18T07:43:31Z</time>
      </trkpt>
      <trkpt lat="43.61209" lon="3.03692">
        <ele>763.4</ele>
        <time>2017-06-18T07:43:35Z</time>
      </trkpt>
      <trkpt lat="43.612" lon="3.03688">
        <ele>764.1</ele>
        <time>2017-06-18T07:43:39Z</time>
      </trkpt>
      <trkpt lat="43.61193" lon="3.03682">
        <ele>764.7</ele>
        <time>2017-06-18T07:43:42Z</time>
      </trkpt>
      <trkpt lat="43.61185" lon="3.03677">
        <ele>765.5</ele>
        <time>2017-06-18T07:43:45Z</time>
      </trkpt>
      <trkpt lat="43.61177" lon="3.03672">
        <ele>766.1</ele>
        <time>2017-06-18T07:43:48Z</time>
      </trkpt>
      <trkpt lat="43.61171" lon="3.03667">
        <ele>766.8</ele>
        <time>2017-06-18T07:43:51Z</time>
      </trkpt>
      <trkpt lat="43.61163" lon="3.0366">
        <ele>768.2</ele>
        <time>2017-06-18T07:43:55Z</time>
      </trkpt>
      <trkpt lat="43.61155" lon="3.03653">
        <ele>769.3</ele>
        <time>2017-06-18T07:43:59Z</time>
      </trkpt>
      <trkpt lat="43.61148" lon="3.03646">
        <ele>769.9</ele>
        <time>2017-06-18T07:44:02Z</time>
      </trkpt>
      <trkpt lat="43.61145" lon="3.03635">
        <ele>770.3</ele>
        <time>2017-06-18T07:44:05Z</time>
      </trkpt>
      <trkpt lat="43.61143" lon="3.03624">
        <ele>770.9</ele>
        <time>2017-06-18T07:44:09Z</time>
      </trkpt>
      <trkpt lat="43.6114" lon="3.03615">
        <ele>771.5</ele>
        <time>2017-06-18T07:44:12Z</time>
      </trkpt>
      <trkpt lat="43.61138" lon="3.03605">
        <ele>772.2</ele>
        <time>2017-06-18T07:44:15Z</time>
      </trkpt>
      <trkpt lat="43.61134" lon="3.03594">
        <ele>772.8</ele>
        <time>2017-06-18T07:44:19Z</time>
      </trkpt>
      <trkpt lat="43.61132" lon="3.03583">
        <ele>773.2</ele>
        <time>2017-06-18T07:44:23Z</time>
      </trkpt>
      <trkpt lat="43.61131" lon="3.03572">
        <ele>773.7</ele>
        <time>2017-06-18T07:44:27Z</time>
      </trkpt>
      <trkpt lat="43.61133" lon="3.0356">
        <ele>774.2</ele>
        <time>2017-06-18T07:44:31Z</time>
      </trkpt>
      <trkpt lat="43.61136" lon="3.0355">
        <ele>775</ele>
        <time>2017-06-18T07:44:35Z</time>
      </trkpt>
      <trkpt lat="43.6114" lon="3.03538">
        <ele>775.9</ele>
        <time>2017-06-18T07:44:39Z</time>
      </trkpt>
      <trkpt lat="43.61142" lon="3.03528">
        <ele>776.5</ele>
        <time>2017-06-18T07:44:42Z</time>
      </trkpt>
      <trkpt lat="43.61146" lon="3.03518">
        <ele>777.6</ele>
        <time>2017-06-18T07:44:46Z</time>
      </trkpt>
      <trkpt lat="43.61146" lon="3.03506">
        <ele>778.8</ele>
        <time>2017-06-18T07:44:50Z</time>
      </trkpt>
      <trkpt lat="43.61145" lon="3.03495">
        <ele>779.6</ele>
        <time>2017-06-18T07:44:53Z</time>
      </trkpt>
      <trkpt lat="43.61143" lon="3.03485">
        <ele>780.6</ele>
        <time>2017-06-18T07:44:56Z</time>
      </trkpt>
      <trkpt lat="43.61142" lon="3.03474">
        <ele>781.7</ele>
        <time>2017-06-18T07:45:00Z</time>
      </trkpt>
      <trkpt lat="43.6114" lon="3.03463">
        <ele>783.2</ele>
        <time>2017-06-18T07:45:03Z</time>
      </trkpt>
      <trkpt lat="43.6114" lon="3.03452">
        <ele>784.3</ele>
        <time>2017-06-18T07:45:06Z</time>
      </trkpt>
      <trkpt lat="43.6114" lon="3.03441">
        <ele>785.2</ele>
        <time>2017-06-18T07:45:09Z</time>
      </trkpt>
      <trkpt lat="43.61137" lon="3.0343">
        <ele>786.4</ele>
        <time>2017-06-18T07:45:14Z</time>
      </trkpt>
      <trkpt lat="43.61133" lon="3.0342">
        <ele>787.5</ele>
        <time>2017-06-18T07:45:18Z</time>
      </trkpt>
      <trkpt lat="43.6113" lon="3.03409">
        <ele>788.5</ele>
        <time>2017-06-18T07:45:22Z</time>
      </trkpt>
      <trkpt lat="43.61125" lon="3.034">
        <ele>789.8</ele>
        <time>2017-06-18T07:45:27Z</time>
      </trkpt>
      <trkpt lat="43.61119" lon="3.03393">
        <ele>791.3</ele>
        <time>2017-06-18T07:45:32Z</time>
      </trkpt>
      <trkpt lat="43.6111" lon="3.03388">
        <ele>791.8</ele>
        <time>2017-06-18T07:45:36Z</time>
      </trkpt>
      <trkpt lat="43.61101" lon="3.03386">
        <ele>791.8</ele>
        <time>2017-06-18T07:45:40Z</time>
      </trkpt>
      <trkpt lat="43.61094" lon="3.03385">
        <ele>791.6</ele>
        <time>2017-06-18T07:45:43Z</time>
      </trkpt>
      <trkpt lat="43.61087" lon="3.03383">
        <ele>791.6</ele>
        <time>2017-06-18T07:45:46Z</time>
      </trkpt>
      <trkpt lat="43.61077" lon="3.0338">
        <ele>791.5</ele>
        <time>2017-06-18T07:45:50Z</time>
      </trkpt>
      <trkpt lat="43.61069" lon="3.03379">
        <ele>791.3</ele>
        <time>2017-06-18T07:45:53Z</time>
      </trkpt>
      <trkpt lat="43.61061" lon="3.03377">
        <ele>791.4</ele>
        <time>2017-06-18T07:45:57Z</time>
      </trkpt>
      <trkpt lat="43.61053" lon="3.03377">
        <ele>791.5</ele>
        <time>2017-06-18T07:46:00Z</time>
      </trkpt>
      <trkpt lat="43.61045" lon="3.03376">
        <ele>791.8</ele>
        <time>2017-06-18T07:46:04Z</time>
      </trkpt>
      <trkpt lat="43.61036" lon="3.03376">
        <ele>792</ele>
        <time>2017-06-18T07:46:08Z</time>
      </trkpt>
      <trkpt lat="43.61027" lon="3.03375">
        <ele>792.1</ele>
        <time>2017-06-18T07:46:12Z</time>
      </trkpt>
      <trkpt lat="43.61019" lon="3.03376">
        <ele>792.1</ele>
        <time>2017-06-18T07:46:15Z</time>
      </trkpt>
      <trkpt lat="43.61012" lon="3.03376">
        <ele>792.1</ele>
        <time>2017-06-18T07:46:19Z</time>
      </trkpt>
      <trkpt lat="43.61004" lon="3.03375">
        <ele>792</ele>
        <time>2017-06-18T07:46:22Z</time>
      </trkpt>
      <trkpt lat="43.60994" lon="3.03374">
        <ele>792</ele>
        <time>2017-06-18T07:46:26Z</time>
      </trkpt>
      <trkpt lat="43.60985" lon="3.03376">
        <ele>792.3</ele>
        <time>2017-06-18T07:46:30Z</time>
      </trkpt>
      <trkpt lat="43.60974" lon="3.03377">
        <ele>792.5</ele>
        <time>2017-06-18T07:46:34Z</time>
      </trkpt>
      <trkpt lat="43.60967" lon="3.03378">
        <ele>792.8</ele>
        <time>2017-06-18T07:46:38Z</time>
      </trkpt>
      <trkpt lat="43.60959" lon="3.0338">
        <ele>793.1</ele>
        <time>2017-06-18T07:46:42Z</time>
      </trkpt>
      <trkpt lat="43.6095" lon="3.03382">
        <ele>793.4</ele>
        <time>2017-06-18T07:46:46Z</time>
      </trkpt>
      <trkpt lat="43.60941" lon="3.0338">
        <ele>793.3</ele>
        <time>2017-06-18T07:46:52Z</time>
      </trkpt>
      <trkpt lat="43.60936" lon="3.0338">
        <ele>796.4</ele>
        <time>2017-06-18T07:47:36Z</time>
      </trkpt>
      <trkpt lat="43.60936" lon="3.03379">
        <ele>797.2</ele>
        <time>2017-06-18T07:47:50Z</time>
      </trkpt>
      <trkpt lat="43.60934" lon="3.03381">
        <ele>797</ele>
        <time>2017-06-18T07:48:00Z</time>
      </trkpt>
      <trkpt lat="43.60933" lon="3.0338">
        <ele>796.6</ele>
        <time>2017-06-18T07:48:30Z</time>
      </trkpt>
      <trkpt lat="43.60933" lon="3.03378">
        <ele>796.4</ele>
        <time>2017-06-18T07:48:37Z</time>
      </trkpt>
      <trkpt lat="43.60935" lon="3.03382">
        <ele>796.3</ele>
        <time>2017-06-18T07:48:45Z</time>
      </trkpt>
      <trkpt lat="43.60942" lon="3.03384">
        <ele>802.2</ele>
        <time>2017-06-18T07:51:59Z</time>
      </trkpt>
      <trkpt lat="43.60954" lon="3.03384">
        <ele>803</ele>
        <time>2017-06-18T07:52:02Z</time>
      </trkpt>
      <trkpt lat="43.60963" lon="3.03383">
        <ele>803.9</ele>
        <time>2017-06-18T07:52:04Z</time>
      </trkpt>
      <trkpt lat="43.60973" lon="3.03383">
        <ele>803.7</ele>
        <time>2017-06-18T07:52:06Z</time>
      </trkpt>
      <trkpt lat="43.6098" lon="3.03382">
        <ele>804</ele>
        <time>2017-06-18T07:52:07Z</time>
      </trkpt>
      <trkpt lat="43.60995" lon="3.03382">
        <ele>804.1</ele>
        <time>2017-06-18T07:52:09Z</time>
      </trkpt>
      <trkpt lat="43.61002" lon="3.03383">
        <ele>804.4</ele>
        <time>2017-06-18T07:52:10Z</time>
      </trkpt>
      <trkpt lat="43.61011" lon="3.03384">
        <ele>804.2</ele>
        <time>2017-06-18T07:52:11Z</time>
      </trkpt>
      <trkpt lat="43.61022" lon="3.03383">
        <ele>803.7</ele>
        <time>2017-06-18T07:52:12Z</time>
      </trkpt>
      <trkpt lat="43.61032" lon="3.03384">
        <ele>803.6</ele>
        <time>2017-06-18T07:52:13Z</time>
      </trkpt>
      <trkpt lat="43.61041" lon="3.03385">
        <ele>803</ele>
        <time>2017-06-18T07:52:14Z</time>
      </trkpt>
      <trkpt lat="43.61049" lon="3.03386">
        <ele>802.4</ele>
        <time>2017-06-18T07:52:15Z</time>
      </trkpt>
      <trkpt lat="43.61057" lon="3.03386">
        <ele>801.3</ele>
        <time>2017-06-18T07:52:16Z</time>
      </trkpt>
      <trkpt lat="43.61068" lon="3.03388">
        <ele>800.4</ele>
        <time>2017-06-18T07:52:18Z</time>
      </trkpt>
      <trkpt lat="43.61074" lon="3.03395">
        <ele>798.8</ele>
        <time>2017-06-18T07:52:20Z</time>
      </trkpt>
      <trkpt lat="43.61079" lon="3.03405">
        <ele>798</ele>
        <time>2017-06-18T07:52:22Z</time>
      </trkpt>
      <trkpt lat="43.61086" lon="3.03412">
        <ele>797.7</ele>
        <time>2017-06-18T07:52:26Z</time>
      </trkpt>
      <trkpt lat="43.61094" lon="3.03418">
        <ele>797.6</ele>
        <time>2017-06-18T07:52:27Z</time>
      </trkpt>
      <trkpt lat="43.61092" lon="3.03428">
        <ele>797.4</ele>
        <time>2017-06-18T07:52:30Z</time>
      </trkpt>
      <trkpt lat="43.61087" lon="3.03436">
        <ele>797.2</ele>
        <time>2017-06-18T07:52:32Z</time>
      </trkpt>
      <trkpt lat="43.61079" lon="3.0344">
        <ele>796.6</ele>
        <time>2017-06-18T07:52:35Z</time>
      </trkpt>
      <trkpt lat="43.61072" lon="3.03447">
        <ele>796</ele>
        <time>2017-06-18T07:52:38Z</time>
      </trkpt>
      <trkpt lat="43.61066" lon="3.03459">
        <ele>793.6</ele>
        <time>2017-06-18T07:52:40Z</time>
      </trkpt>
      <trkpt lat="43.6106" lon="3.03471">
        <ele>791.1</ele>
        <time>2017-06-18T07:52:42Z</time>
      </trkpt>
      <trkpt lat="43.61053" lon="3.03483">
        <ele>788.7</ele>
        <time>2017-06-18T07:52:44Z</time>
      </trkpt>
      <trkpt lat="43.61052" lon="3.03493">
        <ele>788.2</ele>
        <time>2017-06-18T07:52:47Z</time>
      </trkpt>
      <trkpt lat="43.61048" lon="3.03502">
        <ele>787.9</ele>
        <time>2017-06-18T07:52:49Z</time>
      </trkpt>
      <trkpt lat="43.61043" lon="3.03513">
        <ele>787.4</ele>
        <time>2017-06-18T07:52:51Z</time>
      </trkpt>
      <trkpt lat="43.61048" lon="3.03525">
        <ele>786.9</ele>
        <time>2017-06-18T07:52:53Z</time>
      </trkpt>
      <trkpt lat="43.61047" lon="3.03537">
        <ele>783.8</ele>
        <time>2017-06-18T07:52:55Z</time>
      </trkpt>
      <trkpt lat="43.61048" lon="3.03549">
        <ele>783.1</ele>
        <time>2017-06-18T07:52:57Z</time>
      </trkpt>
      <trkpt lat="43.61049" lon="3.03562">
        <ele>777.9</ele>
        <time>2017-06-18T07:52:59Z</time>
      </trkpt>
      <trkpt lat="43.61046" lon="3.03574">
        <ele>773.7</ele>
        <time>2017-06-18T07:53:01Z</time>
      </trkpt>
      <trkpt lat="43.61039" lon="3.03585">
        <ele>770.5</ele>
        <time>2017-06-18T07:53:03Z</time>
      </trkpt>
      <trkpt lat="43.61039" lon="3.03599">
        <ele>768.8</ele>
        <time>2017-06-18T07:53:05Z</time>
      </trkpt>
      <trkpt lat="43.61037" lon="3.03615">
        <ele>768.6</ele>
        <time>2017-06-18T07:53:07Z</time>
      </trkpt>
      <trkpt lat="43.61032" lon="3.03631">
        <ele>765.8</ele>
        <time>2017-06-18T07:53:09Z</time>
      </trkpt>
      <trkpt lat="43.61026" lon="3.03645">
        <ele>762.6</ele>
        <time>2017-06-18T07:53:11Z</time>
      </trkpt>
      <trkpt lat="43.61019" lon="3.03656">
        <ele>761.4</ele>
        <time>2017-06-18T07:53:13Z</time>
      </trkpt>
      <trkpt lat="43.61016" lon="3.03671">
        <ele>758.7</ele>
        <time>2017-06-18T07:53:15Z</time>
      </trkpt>
      <trkpt lat="43.61012" lon="3.03687">
        <ele>756.8</ele>
        <time>2017-06-18T07:53:17Z</time>
      </trkpt>
      <trkpt lat="43.61007" lon="3.03695">
        <ele>756.5</ele>
        <time>2017-06-18T07:53:19Z</time>
      </trkpt>
      <trkpt lat="43.61001" lon="3.03708">
        <ele>752.1</ele>
        <time>2017-06-18T07:53:21Z</time>
      </trkpt>
      <trkpt lat="43.60998" lon="3.03723">
        <ele>749.4</ele>
        <time>2017-06-18T07:53:23Z</time>
      </trkpt>
      <trkpt lat="43.60999" lon="3.03735">
        <ele>749.2</ele>
        <time>2017-06-18T07:53:25Z</time>
      </trkpt>
      <trkpt lat="43.61003" lon="3.03748">
        <ele>747.3</ele>
        <time>2017-06-18T07:53:27Z</time>
      </trkpt>
      <trkpt lat="43.61003" lon="3.03761">
        <ele>744.1</ele>
        <time>2017-06-18T07:53:29Z</time>
      </trkpt>
      <trkpt lat="43.60995" lon="3.03772">
        <ele>743.4</ele>
        <time>2017-06-18T07:53:31Z</time>
      </trkpt>
      <trkpt lat="43.60989" lon="3.03784">
        <ele>743.1</ele>
        <time>2017-06-18T07:53:33Z</time>
      </trkpt>
      <trkpt lat="43.60986" lon="3.03796">
        <ele>743.3</ele>
        <time>2017-06-18T07:53:35Z</time>
      </trkpt>
      <trkpt lat="43.60984" lon="3.03811">
        <ele>744</ele>
        <time>2017-06-18T07:53:37Z</time>
      </trkpt>
      <trkpt lat="43.60984" lon="3.03828">
        <ele>744.9</ele>
        <time>2017-06-18T07:53:39Z</time>
      </trkpt>
      <trkpt lat="43.60986" lon="3.03846">
        <ele>744.7</ele>
        <time>2017-06-18T07:53:41Z</time>
      </trkpt>
      <trkpt lat="43.60988" lon="3.03855">
        <ele>744.2</ele>
        <time>2017-06-18T07:53:42Z</time>
      </trkpt>
      <trkpt lat="43.60994" lon="3.03871">
        <ele>743.6</ele>
        <time>2017-06-18T07:53:44Z</time>
      </trkpt>
      <trkpt lat="43.61001" lon="3.03885">
        <ele>742.7</ele>
        <time>2017-06-18T07:53:46Z</time>
      </trkpt>
      <trkpt lat="43.61006" lon="3.03894">
        <ele>742.6</ele>
        <time>2017-06-18T07:53:48Z</time>
      </trkpt>
      <trkpt lat="43.61012" lon="3.03908">
        <ele>740.2</ele>
        <time>2017-06-18T07:53:50Z</time>
      </trkpt>
      <trkpt lat="43.61018" lon="3.03922">
        <ele>738.2</ele>
        <time>2017-06-18T07:53:52Z</time>
      </trkpt>
      <trkpt lat="43.61026" lon="3.03935">
        <ele>736</ele>
        <time>2017-06-18T07:53:54Z</time>
      </trkpt>
      <trkpt lat="43.61034" lon="3.03946">
        <ele>734.9</ele>
        <time>2017-06-18T07:53:56Z</time>
      </trkpt>
      <trkpt lat="43.61039" lon="3.03956">
        <ele>734.6</ele>
        <time>2017-06-18T07:53:58Z</time>
      </trkpt>
      <trkpt lat="43.61041" lon="3.03966">
        <ele>734.3</ele>
        <time>2017-06-18T07:54:00Z</time>
      </trkpt>
      <trkpt lat="43.61043" lon="3.03976">
        <ele>734</ele>
        <time>2017-06-18T07:54:02Z</time>
      </trkpt>
      <trkpt lat="43.61039" lon="3.03985">
        <ele>733.4</ele>
        <time>2017-06-18T07:54:05Z</time>
      </trkpt>
      <trkpt lat="43.61032" lon="3.03993">
        <ele>732.6</ele>
        <time>2017-06-18T07:54:09Z</time>
      </trkpt>
      <trkpt lat="43.61023" lon="3.03996">
        <ele>731.8</ele>
        <time>2017-06-18T07:54:12Z</time>
      </trkpt>
      <trkpt lat="43.61019" lon="3.04005">
        <ele>730.5</ele>
        <time>2017-06-18T07:54:16Z</time>
      </trkpt>
      <trkpt lat="43.6101" lon="3.04006">
        <ele>729</ele>
        <time>2017-06-18T07:54:21Z</time>
      </trkpt>
      <trkpt lat="43.61001" lon="3.04003">
        <ele>726.7</ele>
        <time>2017-06-18T07:54:23Z</time>
      </trkpt>
      <trkpt lat="43.60993" lon="3.03997">
        <ele>723.4</ele>
        <time>2017-06-18T07:54:25Z</time>
      </trkpt>
      <trkpt lat="43.60984" lon="3.03996">
        <ele>723</ele>
        <time>2017-06-18T07:54:27Z</time>
      </trkpt>
      <trkpt lat="43.60974" lon="3.03997">
        <ele>722.3</ele>
        <time>2017-06-18T07:54:30Z</time>
      </trkpt>
      <trkpt lat="43.60967" lon="3.04005">
        <ele>721.2</ele>
        <time>2017-06-18T07:54:33Z</time>
      </trkpt>
      <trkpt lat="43.60958" lon="3.04012">
        <ele>716.4</ele>
        <time>2017-06-18T07:54:36Z</time>
      </trkpt>
      <trkpt lat="43.6095" lon="3.04013">
        <ele>713</ele>
        <time>2017-06-18T07:54:38Z</time>
      </trkpt>
      <trkpt lat="43.60942" lon="3.04009">
        <ele>710.4</ele>
        <time>2017-06-18T07:54:40Z</time>
      </trkpt>
      <trkpt lat="43.60937" lon="3.04018">
        <ele>709.4</ele>
        <time>2017-06-18T07:54:43Z</time>
      </trkpt>
      <trkpt lat="43.60928" lon="3.0402">
        <ele>708.1</ele>
        <time>2017-06-18T07:54:46Z</time>
      </trkpt>
      <trkpt lat="43.60918" lon="3.04016">
        <ele>699.6</ele>
        <time>2017-06-18T07:54:48Z</time>
      </trkpt>
      <trkpt lat="43.60907" lon="3.04021">
        <ele>696.6</ele>
        <time>2017-06-18T07:54:51Z</time>
      </trkpt>
      <trkpt lat="43.60894" lon="3.04022">
        <ele>693.3</ele>
        <time>2017-06-18T07:54:53Z</time>
      </trkpt>
      <trkpt lat="43.60885" lon="3.04021">
        <ele>691.7</ele>
        <time>2017-06-18T07:54:55Z</time>
      </trkpt>
      <trkpt lat="43.60877" lon="3.04025">
        <ele>690.9</ele>
        <time>2017-06-18T07:54:58Z</time>
      </trkpt>
      <trkpt lat="43.60867" lon="3.04029">
        <ele>687.5</ele>
        <time>2017-06-18T07:55:00Z</time>
      </trkpt>
      <trkpt lat="43.60858" lon="3.0403">
        <ele>684.2</ele>
        <time>2017-06-18T07:55:02Z</time>
      </trkpt>
      <trkpt lat="43.6085" lon="3.04028">
        <ele>683.6</ele>
        <time>2017-06-18T07:55:04Z</time>
      </trkpt>
      <trkpt lat="43.60842" lon="3.04031">
        <ele>682.3</ele>
        <time>2017-06-18T07:55:09Z</time>
      </trkpt>
      <trkpt lat="43.60842" lon="3.04032">
        <ele>681.6</ele>
        <time>2017-06-18T07:55:17Z</time>
      </trkpt>
      <trkpt lat="43.60826" lon="3.04032">
        <ele>683</ele>
        <time>2017-06-18T07:56:30Z</time>
      </trkpt>
      <trkpt lat="43.60819" lon="3.04032">
        <ele>682.9</ele>
        <time>2017-06-18T07:56:32Z</time>
      </trkpt>
      <trkpt lat="43.60812" lon="3.04035">
        <ele>682.7</ele>
        <time>2017-06-18T07:56:34Z</time>
      </trkpt>
      <trkpt lat="43.60804" lon="3.04039">
        <ele>681.3</ele>
        <time>2017-06-18T07:56:36Z</time>
      </trkpt>
      <trkpt lat="43.60794" lon="3.04044">
        <ele>678.8</ele>
        <time>2017-06-18T07:56:38Z</time>
      </trkpt>
      <trkpt lat="43.60786" lon="3.0405">
        <ele>677</ele>
        <time>2017-06-18T07:56:40Z</time>
      </trkpt>
      <trkpt lat="43.6078" lon="3.04057">
        <ele>676.8</ele>
        <time>2017-06-18T07:56:42Z</time>
      </trkpt>
      <trkpt lat="43.60775" lon="3.04068">
        <ele>676.6</ele>
        <time>2017-06-18T07:56:45Z</time>
      </trkpt>
      <trkpt lat="43.60769" lon="3.0408">
        <ele>676.5</ele>
        <time>2017-06-18T07:56:48Z</time>
      </trkpt>
      <trkpt lat="43.60763" lon="3.04093">
        <ele>675.8</ele>
        <time>2017-06-18T07:56:51Z</time>
      </trkpt>
      <trkpt lat="43.60758" lon="3.04102">
        <ele>675</ele>
        <time>2017-06-18T07:56:53Z</time>
      </trkpt>
      <trkpt lat="43.60753" lon="3.04111">
        <ele>674.3</ele>
        <time>2017-06-18T07:56:55Z</time>
      </trkpt>
      <trkpt lat="43.60746" lon="3.0412">
        <ele>673.7</ele>
        <time>2017-06-18T07:56:57Z</time>
      </trkpt>
      <trkpt lat="43.60737" lon="3.04129">
        <ele>673</ele>
        <time>2017-06-18T07:56:59Z</time>
      </trkpt>
      <trkpt lat="43.60729" lon="3.04133">
        <ele>672.4</ele>
        <time>2017-06-18T07:57:01Z</time>
      </trkpt>
      <trkpt lat="43.60719" lon="3.0414">
        <ele>672.3</ele>
        <time>2017-06-18T07:57:03Z</time>
      </trkpt>
      <trkpt lat="43.6071" lon="3.04148">
        <ele>672.4</ele>
        <time>2017-06-18T07:57:05Z</time>
      </trkpt>
      <trkpt lat="43.60701" lon="3.04155">
        <ele>672.9</ele>
        <time>2017-06-18T07:57:07Z</time>
      </trkpt>
      <trkpt lat="43.60696" lon="3.0416">
        <ele>673</ele>
        <time>2017-06-18T07:57:09Z</time>
      </trkpt>
      <trkpt lat="43.60689" lon="3.04166">
        <ele>673.1</ele>
        <time>2017-06-18T07:57:11Z</time>
      </trkpt>
      <trkpt lat="43.60682" lon="3.04171">
        <ele>674.3</ele>
        <time>2017-06-18T07:57:13Z</time>
      </trkpt>
      <trkpt lat="43.60672" lon="3.04176">
        <ele>674.6</ele>
        <time>2017-06-18T07:57:16Z</time>
      </trkpt>
      <trkpt lat="43.60663" lon="3.04179">
        <ele>674.8</ele>
        <time>2017-06-18T07:57:18Z</time>
      </trkpt>
      <trkpt lat="43.60656" lon="3.04186">
        <ele>675</ele>
        <time>2017-06-18T07:57:20Z</time>
      </trkpt>
      <trkpt lat="43.60647" lon="3.04195">
        <ele>675.3</ele>
        <time>2017-06-18T07:57:23Z</time>
      </trkpt>
      <trkpt lat="43.60642" lon="3.04203">
        <ele>675.6</ele>
        <time>2017-06-18T07:57:26Z</time>
      </trkpt>
      <trkpt lat="43.60637" lon="3.04213">
        <ele>676.1</ele>
        <time>2017-06-18T07:57:29Z</time>
      </trkpt>
      <trkpt lat="43.60632" lon="3.04224">
        <ele>676.7</ele>
        <time>2017-06-18T07:57:32Z</time>
      </trkpt>
      <trkpt lat="43.6063" lon="3.04234">
        <ele>677.2</ele>
        <time>2017-06-18T07:57:35Z</time>
      </trkpt>
      <trkpt lat="43.60628" lon="3.04247">
        <ele>677.9</ele>
        <time>2017-06-18T07:57:39Z</time>
      </trkpt>
      <trkpt lat="43.60626" lon="3.04257">
        <ele>678.8</ele>
        <time>2017-06-18T07:57:45Z</time>
      </trkpt>
      <trkpt lat="43.60625" lon="3.04269">
        <ele>679.6</ele>
        <time>2017-06-18T07:57:50Z</time>
      </trkpt>
      <trkpt lat="43.60625" lon="3.0428">
        <ele>680</ele>
        <time>2017-06-18T07:57:54Z</time>
      </trkpt>
      <trkpt lat="43.60624" lon="3.0429">
        <ele>680.8</ele>
        <time>2017-06-18T07:58:00Z</time>
      </trkpt>
      <trkpt lat="43.60622" lon="3.043">
        <ele>681.4</ele>
        <time>2017-06-18T07:58:05Z</time>
      </trkpt>
      <trkpt lat="43.6062" lon="3.04309">
        <ele>681.7</ele>
        <time>2017-06-18T07:58:08Z</time>
      </trkpt>
      <trkpt lat="43.6062" lon="3.04322">
        <ele>682</ele>
        <time>2017-06-18T07:58:12Z</time>
      </trkpt>
      <trkpt lat="43.6062" lon="3.04332">
        <ele>682.2</ele>
        <time>2017-06-18T07:58:14Z</time>
      </trkpt>
      <trkpt lat="43.6062" lon="3.04344">
        <ele>683.7</ele>
        <time>2017-06-18T07:58:16Z</time>
      </trkpt>
      <trkpt lat="43.6062" lon="3.04358">
        <ele>683.7</ele>
        <time>2017-06-18T07:58:18Z</time>
      </trkpt>
      <trkpt lat="43.6062" lon="3.0437">
        <ele>683.2</ele>
        <time>2017-06-18T07:58:21Z</time>
      </trkpt>
      <trkpt lat="43.6062" lon="3.04383">
        <ele>682.1</ele>
        <time>2017-06-18T07:58:23Z</time>
      </trkpt>
      <trkpt lat="43.6062" lon="3.04395">
        <ele>681.4</ele>
        <time>2017-06-18T07:58:25Z</time>
      </trkpt>
      <trkpt lat="43.60623" lon="3.04407">
        <ele>679.9</ele>
        <time>2017-06-18T07:58:27Z</time>
      </trkpt>
      <trkpt lat="43.6063" lon="3.04415">
        <ele>678.5</ele>
        <time>2017-06-18T07:58:29Z</time>
      </trkpt>
      <trkpt lat="43.60637" lon="3.04419">
        <ele>678.5</ele>
        <time>2017-06-18T07:58:31Z</time>
      </trkpt>
      <trkpt lat="43.60643" lon="3.04425">
        <ele>678.6</ele>
        <time>2017-06-18T07:58:33Z</time>
      </trkpt>
      <trkpt lat="43.60648" lon="3.04433">
        <ele>678.7</ele>
        <time>2017-06-18T07:58:36Z</time>
      </trkpt>
      <trkpt lat="43.60652" lon="3.04445">
        <ele>678.9</ele>
        <time>2017-06-18T07:58:39Z</time>
      </trkpt>
      <trkpt lat="43.60658" lon="3.04461">
        <ele>680.3</ele>
        <time>2017-06-18T07:58:41Z</time>
      </trkpt>
      <trkpt lat="43.60663" lon="3.04471">
        <ele>680.5</ele>
        <time>2017-06-18T07:58:43Z</time>
      </trkpt>
      <trkpt lat="43.60671" lon="3.04481">
        <ele>680.6</ele>
        <time>2017-06-18T07:58:45Z</time>
      </trkpt>
      <trkpt lat="43.60681" lon="3.04486">
        <ele>680.7</ele>
        <time>2017-06-18T07:58:47Z</time>
      </trkpt>
      <trkpt lat="43.6069" lon="3.04494">
        <ele>681.6</ele>
        <time>2017-06-18T07:58:49Z</time>
      </trkpt>
      <trkpt lat="43.607" lon="3.04501">
        <ele>682.5</ele>
        <time>2017-06-18T07:58:51Z</time>
      </trkpt>
      <trkpt lat="43.60708" lon="3.04511">
        <ele>682.9</ele>
        <time>2017-06-18T07:58:53Z</time>
      </trkpt>
      <trkpt lat="43.60715" lon="3.04516">
        <ele>682.8</ele>
        <time>2017-06-18T07:58:55Z</time>
      </trkpt>
      <trkpt lat="43.60723" lon="3.04519">
        <ele>682.8</ele>
        <time>2017-06-18T07:59:00Z</time>
      </trkpt>
      <trkpt lat="43.60729" lon="3.04526">
        <ele>683.2</ele>
        <time>2017-06-18T07:59:04Z</time>
      </trkpt>
      <trkpt lat="43.60735" lon="3.04534">
        <ele>683.4</ele>
        <time>2017-06-18T07:59:07Z</time>
      </trkpt>
      <trkpt lat="43.60742" lon="3.04542">
        <ele>683.5</ele>
        <time>2017-06-18T07:59:10Z</time>
      </trkpt>
      <trkpt lat="43.60749" lon="3.04551">
        <ele>683.5</ele>
        <time>2017-06-18T07:59:13Z</time>
      </trkpt>
      <trkpt lat="43.60754" lon="3.04559">
        <ele>683.6</ele>
        <time>2017-06-18T07:59:18Z</time>
      </trkpt>
      <trkpt lat="43.60761" lon="3.04569">
        <ele>683.5</ele>
        <time>2017-06-18T07:59:21Z</time>
      </trkpt>
      <trkpt lat="43.6077" lon="3.04577">
        <ele>683.3</ele>
        <time>2017-06-18T07:59:23Z</time>
      </trkpt>
      <trkpt lat="43.60776" lon="3.04585">
        <ele>683</ele>
        <time>2017-06-18T07:59:27Z</time>
      </trkpt>
      <trkpt lat="43.60784" lon="3.04594">
        <ele>683</ele>
        <time>2017-06-18T07:59:33Z</time>
      </trkpt>
      <trkpt lat="43.60791" lon="3.04601">
        <ele>683.1</ele>
        <time>2017-06-18T07:59:35Z</time>
      </trkpt>
      <trkpt lat="43.608" lon="3.04609">
        <ele>683.2</ele>
        <time>2017-06-18T07:59:37Z</time>
      </trkpt>
      <trkpt lat="43.60807" lon="3.04616">
        <ele>683.1</ele>
        <time>2017-06-18T07:59:39Z</time>
      </trkpt>
      <trkpt lat="43.60815" lon="3.04626">
        <ele>683.2</ele>
        <time>2017-06-18T07:59:42Z</time>
      </trkpt>
      <trkpt lat="43.60822" lon="3.04633">
        <ele>683</ele>
        <time>2017-06-18T07:59:44Z</time>
      </trkpt>
      <trkpt lat="43.6083" lon="3.04641">
        <ele>680.6</ele>
        <time>2017-06-18T07:59:46Z</time>
      </trkpt>
      <trkpt lat="43.60837" lon="3.04648">
        <ele>678.9</ele>
        <time>2017-06-18T07:59:48Z</time>
      </trkpt>
      <trkpt lat="43.60846" lon="3.04658">
        <ele>676.6</ele>
        <time>2017-06-18T07:59:50Z</time>
      </trkpt>
      <trkpt lat="43.60854" lon="3.04665">
        <ele>675.4</ele>
        <time>2017-06-18T07:59:52Z</time>
      </trkpt>
      <trkpt lat="43.60864" lon="3.04674">
        <ele>675.1</ele>
        <time>2017-06-18T07:59:54Z</time>
      </trkpt>
      <trkpt lat="43.60874" lon="3.04683">
        <ele>673.5</ele>
        <time>2017-06-18T07:59:56Z</time>
      </trkpt>
      <trkpt lat="43.60881" lon="3.04692">
        <ele>672.2</ele>
        <time>2017-06-18T07:59:58Z</time>
      </trkpt>
      <trkpt lat="43.60889" lon="3.04703">
        <ele>672.2</ele>
        <time>2017-06-18T08:00:00Z</time>
      </trkpt>
      <trkpt lat="43.60894" lon="3.04714">
        <ele>672.3</ele>
        <time>2017-06-18T08:00:02Z</time>
      </trkpt>
      <trkpt lat="43.60898" lon="3.04726">
        <ele>672.5</ele>
        <time>2017-06-18T08:00:06Z</time>
      </trkpt>
      <trkpt lat="43.60903" lon="3.04737">
        <ele>672.5</ele>
        <time>2017-06-18T08:00:08Z</time>
      </trkpt>
      <trkpt lat="43.6091" lon="3.0475">
        <ele>672.1</ele>
        <time>2017-06-18T08:00:10Z</time>
      </trkpt>
      <trkpt lat="43.60916" lon="3.04757">
        <ele>672</ele>
        <time>2017-06-18T08:00:12Z</time>
      </trkpt>
      <trkpt lat="43.60924" lon="3.04766">
        <ele>672</ele>
        <time>2017-06-18T08:00:15Z</time>
      </trkpt>
      <trkpt lat="43.60933" lon="3.04772">
        <ele>672</ele>
        <time>2017-06-18T08:00:17Z</time>
      </trkpt>
      <trkpt lat="43.60941" lon="3.0478">
        <ele>671.4</ele>
        <time>2017-06-18T08:00:19Z</time>
      </trkpt>
      <trkpt lat="43.60948" lon="3.04788">
        <ele>671.5</ele>
        <time>2017-06-18T08:00:21Z</time>
      </trkpt>
      <trkpt lat="43.60957" lon="3.04801">
        <ele>671.5</ele>
        <time>2017-06-18T08:00:23Z</time>
      </trkpt>
      <trkpt lat="43.60964" lon="3.04814">
        <ele>671.6</ele>
        <time>2017-06-18T08:00:25Z</time>
      </trkpt>
      <trkpt lat="43.60969" lon="3.04823">
        <ele>671.5</ele>
        <time>2017-06-18T08:00:27Z</time>
      </trkpt>
      <trkpt lat="43.60976" lon="3.04832">
        <ele>671.3</ele>
        <time>2017-06-18T08:00:29Z</time>
      </trkpt>
      <trkpt lat="43.60982" lon="3.0484">
        <ele>670.8</ele>
        <time>2017-06-18T08:00:32Z</time>
      </trkpt>
      <trkpt lat="43.60988" lon="3.04848">
        <ele>670.1</ele>
        <time>2017-06-18T08:00:36Z</time>
      </trkpt>
      <trkpt lat="43.60996" lon="3.04857">
        <ele>669.7</ele>
        <time>2017-06-18T08:00:39Z</time>
      </trkpt>
      <trkpt lat="43.61001" lon="3.04865">
        <ele>669.1</ele>
        <time>2017-06-18T08:00:42Z</time>
      </trkpt>
      <trkpt lat="43.61006" lon="3.04873">
        <ele>668.6</ele>
        <time>2017-06-18T08:00:45Z</time>
      </trkpt>
      <trkpt lat="43.61012" lon="3.04881">
        <ele>667.5</ele>
        <time>2017-06-18T08:00:49Z</time>
      </trkpt>
      <trkpt lat="43.61016" lon="3.04893">
        <ele>666.8</ele>
        <time>2017-06-18T08:00:52Z</time>
      </trkpt>
      <trkpt lat="43.61017" lon="3.04902">
        <ele>664.5</ele>
        <time>2017-06-18T08:00:54Z</time>
      </trkpt>
      <trkpt lat="43.61021" lon="3.04912">
        <ele>662.7</ele>
        <time>2017-06-18T08:00:56Z</time>
      </trkpt>
      <trkpt lat="43.61023" lon="3.04924">
        <ele>662.4</ele>
        <time>2017-06-18T08:00:58Z</time>
      </trkpt>
      <trkpt lat="43.61027" lon="3.04937">
        <ele>662.1</ele>
        <time>2017-06-18T08:01:00Z</time>
      </trkpt>
      <trkpt lat="43.61031" lon="3.04951">
        <ele>657.8</ele>
        <time>2017-06-18T08:01:02Z</time>
      </trkpt>
      <trkpt lat="43.61031" lon="3.04963">
        <ele>657.1</ele>
        <time>2017-06-18T08:01:05Z</time>
      </trkpt>
      <trkpt lat="43.61034" lon="3.04973">
        <ele>655.5</ele>
        <time>2017-06-18T08:01:12Z</time>
      </trkpt>
      <trkpt lat="43.6103" lon="3.04982">
        <ele>654.4</ele>
        <time>2017-06-18T08:01:18Z</time>
      </trkpt>
      <trkpt lat="43.61024" lon="3.04988">
        <ele>653.8</ele>
        <time>2017-06-18T08:01:22Z</time>
      </trkpt>
      <trkpt lat="43.61031" lon="3.04994">
        <ele>653</ele>
        <time>2017-06-18T08:01:28Z</time>
      </trkpt>
      <trkpt lat="43.61031" lon="3.05001">
        <ele>652.6</ele>
        <time>2017-06-18T08:01:35Z</time>
      </trkpt>
      <trkpt lat="43.61025" lon="3.0501">
        <ele>651.5</ele>
        <time>2017-06-18T08:01:42Z</time>
      </trkpt>
      <trkpt lat="43.61019" lon="3.05017">
        <ele>651</ele>
        <time>2017-06-18T08:01:45Z</time>
      </trkpt>
      <trkpt lat="43.61013" lon="3.05027">
        <ele>650.8</ele>
        <time>2017-06-18T08:01:49Z</time>
      </trkpt>
      <trkpt lat="43.61009" lon="3.05037">
        <ele>651</ele>
        <time>2017-06-18T08:01:52Z</time>
      </trkpt>
      <trkpt lat="43.61007" lon="3.05049">
        <ele>651.2</ele>
        <time>2017-06-18T08:01:55Z</time>
      </trkpt>
      <trkpt lat="43.61006" lon="3.05062">
        <ele>651.3</ele>
        <time>2017-06-18T08:01:58Z</time>
      </trkpt>
      <trkpt lat="43.61005" lon="3.05073">
        <ele>651.3</ele>
        <time>2017-06-18T08:02:00Z</time>
      </trkpt>
      <trkpt lat="43.61004" lon="3.05085">
        <ele>650.8</ele>
        <time>2017-06-18T08:02:02Z</time>
      </trkpt>
      <trkpt lat="43.61001" lon="3.05096">
        <ele>650.3</ele>
        <time>2017-06-18T08:02:04Z</time>
      </trkpt>
      <trkpt lat="43.60998" lon="3.05107">
        <ele>649.1</ele>
        <time>2017-06-18T08:02:06Z</time>
      </trkpt>
      <trkpt lat="43.60995" lon="3.05118">
        <ele>647.2</ele>
        <time>2017-06-18T08:02:08Z</time>
      </trkpt>
      <trkpt lat="43.60989" lon="3.05129">
        <ele>646</ele>
        <time>2017-06-18T08:02:10Z</time>
      </trkpt>
      <trkpt lat="43.60983" lon="3.05139">
        <ele>645.4</ele>
        <time>2017-06-18T08:02:13Z</time>
      </trkpt>
      <trkpt lat="43.60976" lon="3.05145">
        <ele>645.3</ele>
        <time>2017-06-18T08:02:16Z</time>
      </trkpt>
      <trkpt lat="43.6097" lon="3.05151">
        <ele>645.3</ele>
        <time>2017-06-18T08:02:18Z</time>
      </trkpt>
      <trkpt lat="43.60963" lon="3.05156">
        <ele>645.2</ele>
        <time>2017-06-18T08:02:20Z</time>
      </trkpt>
      <trkpt lat="43.60955" lon="3.05162">
        <ele>645.2</ele>
        <time>2017-06-18T08:02:23Z</time>
      </trkpt>
      <trkpt lat="43.60946" lon="3.0517">
        <ele>645.3</ele>
        <time>2017-06-18T08:02:26Z</time>
      </trkpt>
      <trkpt lat="43.60938" lon="3.05175">
        <ele>645.4</ele>
        <time>2017-06-18T08:02:29Z</time>
      </trkpt>
      <trkpt lat="43.60928" lon="3.0518">
        <ele>645.4</ele>
        <time>2017-06-18T08:02:32Z</time>
      </trkpt>
      <trkpt lat="43.60918" lon="3.05188">
        <ele>645.5</ele>
        <time>2017-06-18T08:02:34Z</time>
      </trkpt>
      <trkpt lat="43.60907" lon="3.05196">
        <ele>645.8</ele>
        <time>2017-06-18T08:02:36Z</time>
      </trkpt>
      <trkpt lat="43.60899" lon="3.05204">
        <ele>645.2</ele>
        <time>2017-06-18T08:02:38Z</time>
      </trkpt>
      <trkpt lat="43.60891" lon="3.05212">
        <ele>645</ele>
        <time>2017-06-18T08:02:40Z</time>
      </trkpt>
      <trkpt lat="43.60884" lon="3.0522">
        <ele>645.1</ele>
        <time>2017-06-18T08:02:42Z</time>
      </trkpt>
      <trkpt lat="43.60877" lon="3.05229">
        <ele>644.4</ele>
        <time>2017-06-18T08:02:44Z</time>
      </trkpt>
      <trkpt lat="43.6087" lon="3.05238">
        <ele>643.6</ele>
        <time>2017-06-18T08:02:46Z</time>
      </trkpt>
      <trkpt lat="43.60861" lon="3.05248">
        <ele>642.5</ele>
        <time>2017-06-18T08:02:48Z</time>
      </trkpt>
      <trkpt lat="43.60852" lon="3.05259">
        <ele>642.2</ele>
        <time>2017-06-18T08:02:50Z</time>
      </trkpt>
      <trkpt lat="43.60845" lon="3.05268">
        <ele>642.1</ele>
        <time>2017-06-18T08:02:52Z</time>
      </trkpt>
      <trkpt lat="43.60839" lon="3.05276">
        <ele>641.9</ele>
        <time>2017-06-18T08:02:54Z</time>
      </trkpt>
      <trkpt lat="43.60832" lon="3.05286">
        <ele>641.2</ele>
        <time>2017-06-18T08:02:56Z</time>
      </trkpt>
      <trkpt lat="43.60825" lon="3.05296">
        <ele>640.3</ele>
        <time>2017-06-18T08:02:58Z</time>
      </trkpt>
      <trkpt lat="43.60818" lon="3.05305">
        <ele>639.8</ele>
        <time>2017-06-18T08:03:00Z</time>
      </trkpt>
      <trkpt lat="43.60811" lon="3.05313">
        <ele>640.1</ele>
        <time>2017-06-18T08:03:02Z</time>
      </trkpt>
      <trkpt lat="43.60805" lon="3.05321">
        <ele>640.3</ele>
        <time>2017-06-18T08:03:04Z</time>
      </trkpt>
      <trkpt lat="43.60797" lon="3.0533">
        <ele>640.3</ele>
        <time>2017-06-18T08:03:06Z</time>
      </trkpt>
      <trkpt lat="43.6079" lon="3.0534">
        <ele>640.6</ele>
        <time>2017-06-18T08:03:08Z</time>
      </trkpt>
      <trkpt lat="43.60782" lon="3.05349">
        <ele>640</ele>
        <time>2017-06-18T08:03:10Z</time>
      </trkpt>
      <trkpt lat="43.60773" lon="3.05357">
        <ele>639.5</ele>
        <time>2017-06-18T08:03:12Z</time>
      </trkpt>
      <trkpt lat="43.60765" lon="3.05365">
        <ele>639.4</ele>
        <time>2017-06-18T08:03:14Z</time>
      </trkpt>
      <trkpt lat="43.60755" lon="3.05373">
        <ele>638.4</ele>
        <time>2017-06-18T08:03:16Z</time>
      </trkpt>
      <trkpt lat="43.60746" lon="3.05381">
        <ele>638.5</ele>
        <time>2017-06-18T08:03:18Z</time>
      </trkpt>
      <trkpt lat="43.60736" lon="3.0539">
        <ele>639.5</ele>
        <time>2017-06-18T08:03:20Z</time>
      </trkpt>
      <trkpt lat="43.60726" lon="3.05398">
        <ele>640.4</ele>
        <time>2017-06-18T08:03:22Z</time>
      </trkpt>
      <trkpt lat="43.60717" lon="3.05404">
        <ele>641.1</ele>
        <time>2017-06-18T08:03:24Z</time>
      </trkpt>
      <trkpt lat="43.6071" lon="3.05411">
        <ele>642.1</ele>
        <time>2017-06-18T08:03:26Z</time>
      </trkpt>
      <trkpt lat="43.60703" lon="3.05417">
        <ele>642.5</ele>
        <time>2017-06-18T08:03:28Z</time>
      </trkpt>
      <trkpt lat="43.60694" lon="3.05423">
        <ele>642.9</ele>
        <time>2017-06-18T08:03:30Z</time>
      </trkpt>
      <trkpt lat="43.60687" lon="3.05429">
        <ele>643</ele>
        <time>2017-06-18T08:03:32Z</time>
      </trkpt>
      <trkpt lat="43.60679" lon="3.05437">
        <ele>643</ele>
        <time>2017-06-18T08:03:34Z</time>
      </trkpt>
      <trkpt lat="43.60671" lon="3.05445">
        <ele>643</ele>
        <time>2017-06-18T08:03:36Z</time>
      </trkpt>
      <trkpt lat="43.60665" lon="3.05452">
        <ele>643</ele>
        <time>2017-06-18T08:03:38Z</time>
      </trkpt>
      <trkpt lat="43.60656" lon="3.05463">
        <ele>642.9</ele>
        <time>2017-06-18T08:03:40Z</time>
      </trkpt>
      <trkpt lat="43.60647" lon="3.05474">
        <ele>642.9</ele>
        <time>2017-06-18T08:03:42Z</time>
      </trkpt>
      <trkpt lat="43.60642" lon="3.05481">
        <ele>643.1</ele>
        <time>2017-06-18T08:03:43Z</time>
      </trkpt>
      <trkpt lat="43.60632" lon="3.05493">
        <ele>643.7</ele>
        <time>2017-06-18T08:03:45Z</time>
      </trkpt>
      <trkpt lat="43.60625" lon="3.05504">
        <ele>643.6</ele>
        <time>2017-06-18T08:03:47Z</time>
      </trkpt>
      <trkpt lat="43.60617" lon="3.05518">
        <ele>643.2</ele>
        <time>2017-06-18T08:03:49Z</time>
      </trkpt>
      <trkpt lat="43.60609" lon="3.0553">
        <ele>643.6</ele>
        <time>2017-06-18T08:03:51Z</time>
      </trkpt>
      <trkpt lat="43.60604" lon="3.05539">
        <ele>643.7</ele>
        <time>2017-06-18T08:03:53Z</time>
      </trkpt>
      <trkpt lat="43.60599" lon="3.05548">
        <ele>643.7</ele>
        <time>2017-06-18T08:03:55Z</time>
      </trkpt>
      <trkpt lat="43.60594" lon="3.05555">
        <ele>643.7</ele>
        <time>2017-06-18T08:03:57Z</time>
      </trkpt>
      <trkpt lat="43.60589" lon="3.05563">
        <ele>643.7</ele>
        <time>2017-06-18T08:03:59Z</time>
      </trkpt>
      <trkpt lat="43.60582" lon="3.05573">
        <ele>643.6</ele>
        <time>2017-06-18T08:04:02Z</time>
      </trkpt>
      <trkpt lat="43.60576" lon="3.05581">
        <ele>643.6</ele>
        <time>2017-06-18T08:04:05Z</time>
      </trkpt>
      <trkpt lat="43.60569" lon="3.0559">
        <ele>643.4</ele>
        <time>2017-06-18T08:04:09Z</time>
      </trkpt>
      <trkpt lat="43.60563" lon="3.05598">
        <ele>643.4</ele>
        <time>2017-06-18T08:04:12Z</time>
      </trkpt>
      <trkpt lat="43.60556" lon="3.05606">
        <ele>643.5</ele>
        <time>2017-06-18T08:04:15Z</time>
      </trkpt>
      <trkpt lat="43.60549" lon="3.05612">
        <ele>643.5</ele>
        <time>2017-06-18T08:04:17Z</time>
      </trkpt>
      <trkpt lat="43.60542" lon="3.05619">
        <ele>643.4</ele>
        <time>2017-06-18T08:04:20Z</time>
      </trkpt>
      <trkpt lat="43.60535" lon="3.05626">
        <ele>643.6</ele>
        <time>2017-06-18T08:04:22Z</time>
      </trkpt>
      <trkpt lat="43.60528" lon="3.05631">
        <ele>644.3</ele>
        <time>2017-06-18T08:04:24Z</time>
      </trkpt>
      <trkpt lat="43.6052" lon="3.05637">
        <ele>644.4</ele>
        <time>2017-06-18T08:04:26Z</time>
      </trkpt>
      <trkpt lat="43.60511" lon="3.05644">
        <ele>644.5</ele>
        <time>2017-06-18T08:04:28Z</time>
      </trkpt>
      <trkpt lat="43.60504" lon="3.05652">
        <ele>644.7</ele>
        <time>2017-06-18T08:04:30Z</time>
      </trkpt>
      <trkpt lat="43.60497" lon="3.05659">
        <ele>644.9</ele>
        <time>2017-06-18T08:04:32Z</time>
      </trkpt>
      <trkpt lat="43.60488" lon="3.05667">
        <ele>645</ele>
        <time>2017-06-18T08:04:35Z</time>
      </trkpt>
      <trkpt lat="43.6048" lon="3.05673">
        <ele>645.1</ele>
        <time>2017-06-18T08:04:38Z</time>
      </trkpt>
      <trkpt lat="43.60471" lon="3.0568">
        <ele>645.2</ele>
        <time>2017-06-18T08:04:41Z</time>
      </trkpt>
      <trkpt lat="43.60463" lon="3.05684">
        <ele>645.2</ele>
        <time>2017-06-18T08:04:44Z</time>
      </trkpt>
      <trkpt lat="43.60455" lon="3.05687">
        <ele>645.5</ele>
        <time>2017-06-18T08:04:48Z</time>
      </trkpt>
      <trkpt lat="43.60445" lon="3.05688">
        <ele>645.9</ele>
        <time>2017-06-18T08:04:52Z</time>
      </trkpt>
      <trkpt lat="43.60438" lon="3.0569">
        <ele>646.2</ele>
        <time>2017-06-18T08:04:56Z</time>
      </trkpt>
      <trkpt lat="43.6043" lon="3.05693">
        <ele>646.6</ele>
        <time>2017-06-18T08:04:59Z</time>
      </trkpt>
      <trkpt lat="43.60421" lon="3.05695">
        <ele>647</ele>
        <time>2017-06-18T08:05:02Z</time>
      </trkpt>
      <trkpt lat="43.60412" lon="3.05694">
        <ele>647.5</ele>
        <time>2017-06-18T08:05:06Z</time>
      </trkpt>
      <trkpt lat="43.60403" lon="3.05692">
        <ele>648.2</ele>
        <time>2017-06-18T08:05:11Z</time>
      </trkpt>
      <trkpt lat="43.60397" lon="3.05692">
        <ele>648.9</ele>
        <time>2017-06-18T08:05:18Z</time>
      </trkpt>
      <trkpt lat="43.60389" lon="3.05695">
        <ele>649.3</ele>
        <time>2017-06-18T08:05:21Z</time>
      </trkpt>
      <trkpt lat="43.60382" lon="3.05697">
        <ele>649.8</ele>
        <time>2017-06-18T08:05:24Z</time>
      </trkpt>
      <trkpt lat="43.60376" lon="3.057">
        <ele>650.7</ele>
        <time>2017-06-18T08:05:31Z</time>
      </trkpt>
      <trkpt lat="43.60369" lon="3.05703">
        <ele>651.4</ele>
        <time>2017-06-18T08:05:36Z</time>
      </trkpt>
      <trkpt lat="43.6036" lon="3.05703">
        <ele>652.2</ele>
        <time>2017-06-18T08:05:43Z</time>
      </trkpt>
      <trkpt lat="43.60358" lon="3.05712">
        <ele>653</ele>
        <time>2017-06-18T08:05:50Z</time>
      </trkpt>
      <trkpt lat="43.6036" lon="3.05709">
        <ele>654.4</ele>
        <time>2017-06-18T08:05:57Z</time>
      </trkpt>
      <trkpt lat="43.60356" lon="3.05707">
        <ele>655.4</ele>
        <time>2017-06-18T08:06:04Z</time>
      </trkpt>
      <trkpt lat="43.60359" lon="3.05711">
        <ele>655.9</ele>
        <time>2017-06-18T08:06:11Z</time>
      </trkpt>
      <trkpt lat="43.60362" lon="3.05708">
        <ele>656.3</ele>
        <time>2017-06-18T08:06:18Z</time>
      </trkpt>
      <trkpt lat="43.60354" lon="3.05712">
        <ele>656.5</ele>
        <time>2017-06-18T08:06:25Z</time>
      </trkpt>
      <trkpt lat="43.60346" lon="3.05721">
        <ele>657.2</ele>
        <time>2017-06-18T08:06:30Z</time>
      </trkpt>
      <trkpt lat="43.60342" lon="3.05733">
        <ele>657.3</ele>
        <time>2017-06-18T08:06:32Z</time>
      </trkpt>
      <trkpt lat="43.60339" lon="3.05744">
        <ele>657.3</ele>
        <time>2017-06-18T08:06:34Z</time>
      </trkpt>
      <trkpt lat="43.60329" lon="3.05748">
        <ele>657.1</ele>
        <time>2017-06-18T08:06:37Z</time>
      </trkpt>
      <trkpt lat="43.60319" lon="3.05747">
        <ele>656.9</ele>
        <time>2017-06-18T08:06:40Z</time>
      </trkpt>
      <trkpt lat="43.60312" lon="3.05741">
        <ele>656.9</ele>
        <time>2017-06-18T08:06:42Z</time>
      </trkpt>
      <trkpt lat="43.60305" lon="3.05736">
        <ele>656.8</ele>
        <time>2017-06-18T08:06:45Z</time>
      </trkpt>
      <trkpt lat="43.60297" lon="3.05744">
        <ele>656.8</ele>
        <time>2017-06-18T08:06:48Z</time>
      </trkpt>
      <trkpt lat="43.60296" lon="3.05755">
        <ele>656.7</ele>
        <time>2017-06-18T08:06:50Z</time>
      </trkpt>
      <trkpt lat="43.60292" lon="3.05765">
        <ele>656.7</ele>
        <time>2017-06-18T08:06:52Z</time>
      </trkpt>
      <trkpt lat="43.60283" lon="3.0577">
        <ele>656.2</ele>
        <time>2017-06-18T08:06:56Z</time>
      </trkpt>
      <trkpt lat="43.60274" lon="3.05772">
        <ele>655.5</ele>
        <time>2017-06-18T08:07:00Z</time>
      </trkpt>
      <trkpt lat="43.60267" lon="3.05772">
        <ele>655.1</ele>
        <time>2017-06-18T08:07:02Z</time>
      </trkpt>
      <trkpt lat="43.60259" lon="3.05769">
        <ele>654.5</ele>
        <time>2017-06-18T08:07:05Z</time>
      </trkpt>
      <trkpt lat="43.60253" lon="3.05765">
        <ele>653.2</ele>
        <time>2017-06-18T08:07:12Z</time>
      </trkpt>
      <trkpt lat="43.6025" lon="3.05764">
        <ele>652.5</ele>
        <time>2017-06-18T08:07:19Z</time>
      </trkpt>
      <trkpt lat="43.6025" lon="3.0576">
        <ele>651.2</ele>
        <time>2017-06-18T08:07:29Z</time>
      </trkpt>
      <trkpt lat="43.6024" lon="3.05758">
        <ele>650.4</ele>
        <time>2017-06-18T08:07:33Z</time>
      </trkpt>
      <trkpt lat="43.60232" lon="3.05758">
        <ele>649.9</ele>
        <time>2017-06-18T08:07:35Z</time>
      </trkpt>
      <trkpt lat="43.60219" lon="3.0575">
        <ele>644.8</ele>
        <time>2017-06-18T08:07:37Z</time>
      </trkpt>
      <trkpt lat="43.60206" lon="3.05752">
        <ele>643</ele>
        <time>2017-06-18T08:07:39Z</time>
      </trkpt>
      <trkpt lat="43.60198" lon="3.0575">
        <ele>642.6</ele>
        <time>2017-06-18T08:07:41Z</time>
      </trkpt>
      <trkpt lat="43.6019" lon="3.05744">
        <ele>641.9</ele>
        <time>2017-06-18T08:07:44Z</time>
      </trkpt>
      <trkpt lat="43.60183" lon="3.05739">
        <ele>641</ele>
        <time>2017-06-18T08:07:47Z</time>
      </trkpt>
      <trkpt lat="43.60174" lon="3.05745">
        <ele>639.1</ele>
        <time>2017-06-18T08:07:54Z</time>
      </trkpt>
      <trkpt lat="43.60166" lon="3.05746">
        <ele>637.9</ele>
        <time>2017-06-18T08:07:58Z</time>
      </trkpt>
      <trkpt lat="43.60155" lon="3.05753">
        <ele>637.1</ele>
        <time>2017-06-18T08:08:01Z</time>
      </trkpt>
      <trkpt lat="43.6015" lon="3.05759">
        <ele>636.3</ele>
        <time>2017-06-18T08:08:04Z</time>
      </trkpt>
      <trkpt lat="43.60148" lon="3.05769">
        <ele>634.9</ele>
        <time>2017-06-18T08:08:10Z</time>
      </trkpt>
      <trkpt lat="43.60146" lon="3.05779">
        <ele>633.5</ele>
        <time>2017-06-18T08:08:16Z</time>
      </trkpt>
      <trkpt lat="43.60141" lon="3.05787">
        <ele>631.4</ele>
        <time>2017-06-18T08:08:22Z</time>
      </trkpt>
      <trkpt lat="43.60133" lon="3.05791">
        <ele>629.7</ele>
        <time>2017-06-18T08:08:26Z</time>
      </trkpt>
      <trkpt lat="43.60125" lon="3.05793">
        <ele>628.3</ele>
        <time>2017-06-18T08:08:29Z</time>
      </trkpt>
      <trkpt lat="43.60122" lon="3.05805">
        <ele>626.4</ele>
        <time>2017-06-18T08:08:33Z</time>
      </trkpt>
      <trkpt lat="43.60115" lon="3.05811">
        <ele>625.2</ele>
        <time>2017-06-18T08:08:36Z</time>
      </trkpt>
      <trkpt lat="43.60106" lon="3.05817">
        <ele>623.8</ele>
        <time>2017-06-18T08:08:39Z</time>
      </trkpt>
      <trkpt lat="43.60097" lon="3.0582">
        <ele>620.8</ele>
        <time>2017-06-18T08:08:44Z</time>
      </trkpt>
      <trkpt lat="43.60089" lon="3.0582">
        <ele>617.9</ele>
        <time>2017-06-18T08:08:49Z</time>
      </trkpt>
      <trkpt lat="43.60082" lon="3.05833">
        <ele>616.1</ele>
        <time>2017-06-18T08:08:52Z</time>
      </trkpt>
      <trkpt lat="43.60071" lon="3.05834">
        <ele>614.3</ele>
        <time>2017-06-18T08:08:55Z</time>
      </trkpt>
      <trkpt lat="43.6006" lon="3.05833">
        <ele>607.5</ele>
        <time>2017-06-18T08:08:57Z</time>
      </trkpt>
      <trkpt lat="43.60053" lon="3.05831">
        <ele>606.5</ele>
        <time>2017-06-18T08:08:59Z</time>
      </trkpt>
      <trkpt lat="43.60045" lon="3.05836">
        <ele>605</ele>
        <time>2017-06-18T08:09:02Z</time>
      </trkpt>
      <trkpt lat="43.60038" lon="3.05828">
        <ele>603</ele>
        <time>2017-06-18T08:09:06Z</time>
      </trkpt>
      <trkpt lat="43.60027" lon="3.05831">
        <ele>601.6</ele>
        <time>2017-06-18T08:09:09Z</time>
      </trkpt>
      <trkpt lat="43.6002" lon="3.05832">
        <ele>600.6</ele>
        <time>2017-06-18T08:09:11Z</time>
      </trkpt>
      <trkpt lat="43.60013" lon="3.05838">
        <ele>599</ele>
        <time>2017-06-18T08:09:14Z</time>
      </trkpt>
      <trkpt lat="43.60005" lon="3.05845">
        <ele>592.8</ele>
        <time>2017-06-18T08:09:17Z</time>
      </trkpt>
      <trkpt lat="43.59999" lon="3.05853">
        <ele>588.4</ele>
        <time>2017-06-18T08:09:19Z</time>
      </trkpt>
      <trkpt lat="43.59991" lon="3.05857">
        <ele>587.4</ele>
        <time>2017-06-18T08:09:22Z</time>
      </trkpt>
      <trkpt lat="43.59983" lon="3.05863">
        <ele>586.4</ele>
        <time>2017-06-18T08:09:25Z</time>
      </trkpt>
      <trkpt lat="43.59976" lon="3.0587">
        <ele>582</ele>
        <time>2017-06-18T08:09:27Z</time>
      </trkpt>
      <trkpt lat="43.59968" lon="3.05873">
        <ele>578.6</ele>
        <time>2017-06-18T08:09:29Z</time>
      </trkpt>
      <trkpt lat="43.59958" lon="3.05873">
        <ele>574.2</ele>
        <time>2017-06-18T08:09:31Z</time>
      </trkpt>
      <trkpt lat="43.59947" lon="3.05875">
        <ele>570.4</ele>
        <time>2017-06-18T08:09:33Z</time>
      </trkpt>
      <trkpt lat="43.59939" lon="3.05882">
        <ele>567.4</ele>
        <time>2017-06-18T08:09:35Z</time>
      </trkpt>
      <trkpt lat="43.59928" lon="3.05888">
        <ele>564.8</ele>
        <time>2017-06-18T08:09:37Z</time>
      </trkpt>
      <trkpt lat="43.5992" lon="3.05889">
        <ele>564.4</ele>
        <time>2017-06-18T08:09:39Z</time>
      </trkpt>
      <trkpt lat="43.59912" lon="3.05896">
        <ele>564.1</ele>
        <time>2017-06-18T08:09:41Z</time>
      </trkpt>
      <trkpt lat="43.59905" lon="3.05903">
        <ele>563.5</ele>
        <time>2017-06-18T08:09:44Z</time>
      </trkpt>
      <trkpt lat="43.59897" lon="3.05908">
        <ele>561</ele>
        <time>2017-06-18T08:09:47Z</time>
      </trkpt>
      <trkpt lat="43.59894" lon="3.05917">
        <ele>559.4</ele>
        <time>2017-06-18T08:09:50Z</time>
      </trkpt>
      <trkpt lat="43.5989" lon="3.05925">
        <ele>558.9</ele>
        <time>2017-06-18T08:09:57Z</time>
      </trkpt>
      <trkpt lat="43.59883" lon="3.05922">
        <ele>558.7</ele>
        <time>2017-06-18T08:10:04Z</time>
      </trkpt>
      <trkpt lat="43.59884" lon="3.05924">
        <ele>557.8</ele>
        <time>2017-06-18T08:10:18Z</time>
      </trkpt>
      <trkpt lat="43.59879" lon="3.05925">
        <ele>557.1</ele>
        <time>2017-06-18T08:10:27Z</time>
      </trkpt>
      <trkpt lat="43.59875" lon="3.05916">
        <ele>557</ele>
        <time>2017-06-18T08:10:34Z</time>
      </trkpt>
      <trkpt lat="43.5988" lon="3.05925">
        <ele>556.8</ele>
        <time>2017-06-18T08:10:38Z</time>
      </trkpt>
      <trkpt lat="43.59882" lon="3.0594">
        <ele>556.9</ele>
        <time>2017-06-18T08:10:41Z</time>
      </trkpt>
      <trkpt lat="43.59883" lon="3.0595">
        <ele>557.1</ele>
        <time>2017-06-18T08:10:43Z</time>
      </trkpt>
      <trkpt lat="43.59882" lon="3.05967">
        <ele>556.8</ele>
        <time>2017-06-18T08:10:45Z</time>
      </trkpt>
      <trkpt lat="43.59879" lon="3.05983">
        <ele>554.3</ele>
        <time>2017-06-18T08:10:47Z</time>
      </trkpt>
      <trkpt lat="43.59876" lon="3.05997">
        <ele>553.9</ele>
        <time>2017-06-18T08:10:50Z</time>
      </trkpt>
      <trkpt lat="43.59875" lon="3.0601">
        <ele>553.4</ele>
        <time>2017-06-18T08:10:52Z</time>
      </trkpt>
      <trkpt lat="43.59872" lon="3.06022">
        <ele>552.8</ele>
        <time>2017-06-18T08:10:54Z</time>
      </trkpt>
      <trkpt lat="43.59868" lon="3.06033">
        <ele>552.1</ele>
        <time>2017-06-18T08:10:56Z</time>
      </trkpt>
      <trkpt lat="43.59865" lon="3.06043">
        <ele>551.4</ele>
        <time>2017-06-18T08:10:58Z</time>
      </trkpt>
      <trkpt lat="43.59868" lon="3.06045">
        <ele>550.7</ele>
        <time>2017-06-18T08:11:05Z</time>
      </trkpt>
      <trkpt lat="43.59864" lon="3.06056">
        <ele>549.8</ele>
        <time>2017-06-18T08:11:08Z</time>
      </trkpt>
      <trkpt lat="43.59861" lon="3.06071">
        <ele>546.1</ele>
        <time>2017-06-18T08:11:10Z</time>
      </trkpt>
      <trkpt lat="43.59859" lon="3.06083">
        <ele>545.6</ele>
        <time>2017-06-18T08:11:12Z</time>
      </trkpt>
      <trkpt lat="43.59854" lon="3.06097">
        <ele>544.9</ele>
        <time>2017-06-18T08:11:14Z</time>
      </trkpt>
      <trkpt lat="43.59851" lon="3.06102">
        <ele>542.5</ele>
        <time>2017-06-18T08:11:21Z</time>
      </trkpt>
      <trkpt lat="43.5985" lon="3.06104">
        <ele>540.9</ele>
        <time>2017-06-18T08:11:28Z</time>
      </trkpt>
      <trkpt lat="43.59855" lon="3.06101">
        <ele>536.3</ele>
        <time>2017-06-18T08:11:42Z</time>
      </trkpt>
      <trkpt lat="43.59861" lon="3.06097">
        <ele>535</ele>
        <time>2017-06-18T08:11:49Z</time>
      </trkpt>
      <trkpt lat="43.59868" lon="3.06093">
        <ele>533.9</ele>
        <time>2017-06-18T08:11:55Z</time>
      </trkpt>
      <trkpt lat="43.59873" lon="3.06094">
        <ele>532.5</ele>
        <time>2017-06-18T08:12:09Z</time>
      </trkpt>
      <trkpt lat="43.5987" lon="3.06088">
        <ele>532.2</ele>
        <time>2017-06-18T08:12:16Z</time>
      </trkpt>
      <trkpt lat="43.5987" lon="3.06091">
        <ele>531.8</ele>
        <time>2017-06-18T08:12:23Z</time>
      </trkpt>
      <trkpt lat="43.59861" lon="3.06098">
        <ele>530.3</ele>
        <time>2017-06-18T08:12:26Z</time>
      </trkpt>
      <trkpt lat="43.59852" lon="3.061">
        <ele>530</ele>
        <time>2017-06-18T08:12:28Z</time>
      </trkpt>
      <trkpt lat="43.59846" lon="3.06097">
        <ele>529.3</ele>
        <time>2017-06-18T08:12:31Z</time>
      </trkpt>
      <trkpt lat="43.5984" lon="3.06092">
        <ele>528.7</ele>
        <time>2017-06-18T08:12:34Z</time>
      </trkpt>
      <trkpt lat="43.5983" lon="3.06088">
        <ele>528.1</ele>
        <time>2017-06-18T08:12:37Z</time>
      </trkpt>
      <trkpt lat="43.59821" lon="3.06096">
        <ele>527.4</ele>
        <time>2017-06-18T08:12:40Z</time>
      </trkpt>
      <trkpt lat="43.59816" lon="3.06105">
        <ele>526.9</ele>
        <time>2017-06-18T08:12:42Z</time>
      </trkpt>
      <trkpt lat="43.59811" lon="3.06111">
        <ele>525.8</ele>
        <time>2017-06-18T08:12:49Z</time>
      </trkpt>
      <trkpt lat="43.59808" lon="3.06109">
        <ele>522</ele>
        <time>2017-06-18T08:13:13Z</time>
      </trkpt>
      <trkpt lat="43.59801" lon="3.06105">
        <ele>521.1</ele>
        <time>2017-06-18T08:13:20Z</time>
      </trkpt>
      <trkpt lat="43.59792" lon="3.06101">
        <ele>520.7</ele>
        <time>2017-06-18T08:13:26Z</time>
      </trkpt>
      <trkpt lat="43.59785" lon="3.06099">
        <ele>520.5</ele>
        <time>2017-06-18T08:13:28Z</time>
      </trkpt>
      <trkpt lat="43.59776" lon="3.06099">
        <ele>520.5</ele>
        <time>2017-06-18T08:13:30Z</time>
      </trkpt>
      <trkpt lat="43.59768" lon="3.06098">
        <ele>520.5</ele>
        <time>2017-06-18T08:13:31Z</time>
      </trkpt>
      <trkpt lat="43.5976" lon="3.06097">
        <ele>520.5</ele>
        <time>2017-06-18T08:13:32Z</time>
      </trkpt>
      <trkpt lat="43.59751" lon="3.06095">
        <ele>520.5</ele>
        <time>2017-06-18T08:13:34Z</time>
      </trkpt>
      <trkpt lat="43.59742" lon="3.06087">
        <ele>520.5</ele>
        <time>2017-06-18T08:13:36Z</time>
      </trkpt>
      <trkpt lat="43.59731" lon="3.06085">
        <ele>520.5</ele>
        <time>2017-06-18T08:13:38Z</time>
      </trkpt>
      <trkpt lat="43.59719" lon="3.06084">
        <ele>520.1</ele>
        <time>2017-06-18T08:13:40Z</time>
      </trkpt>
      <trkpt lat="43.59709" lon="3.0608">
        <ele>518.5</ele>
        <time>2017-06-18T08:13:42Z</time>
      </trkpt>
      <trkpt lat="43.59696" lon="3.06076">
        <ele>516.5</ele>
        <time>2017-06-18T08:13:44Z</time>
      </trkpt>
      <trkpt lat="43.59688" lon="3.06075">
        <ele>515.5</ele>
        <time>2017-06-18T08:13:45Z</time>
      </trkpt>
      <trkpt lat="43.59679" lon="3.06076">
        <ele>514.4</ele>
        <time>2017-06-18T08:13:46Z</time>
      </trkpt>
      <trkpt lat="43.59672" lon="3.06077">
        <ele>513</ele>
        <time>2017-06-18T08:13:47Z</time>
      </trkpt>
      <trkpt lat="43.59664" lon="3.06078">
        <ele>512</ele>
        <time>2017-06-18T08:13:48Z</time>
      </trkpt>
      <trkpt lat="43.59652" lon="3.06079">
        <ele>510.2</ele>
        <time>2017-06-18T08:13:50Z</time>
      </trkpt>
      <trkpt lat="43.59644" lon="3.06086">
        <ele>509.2</ele>
        <time>2017-06-18T08:13:52Z</time>
      </trkpt>
      <trkpt lat="43.59639" lon="3.06095">
        <ele>508.7</ele>
        <time>2017-06-18T08:13:57Z</time>
      </trkpt>
      <trkpt lat="43.5964" lon="3.06106">
        <ele>508.4</ele>
        <time>2017-06-18T08:13:59Z</time>
      </trkpt>
      <trkpt lat="43.59641" lon="3.06117">
        <ele>508.1</ele>
        <time>2017-06-18T08:14:01Z</time>
      </trkpt>
      <trkpt lat="43.59636" lon="3.0613">
        <ele>505.8</ele>
        <time>2017-06-18T08:14:04Z</time>
      </trkpt>
      <trkpt lat="43.59633" lon="3.06142">
        <ele>505.4</ele>
        <time>2017-06-18T08:14:06Z</time>
      </trkpt>
      <trkpt lat="43.59629" lon="3.06151">
        <ele>502.9</ele>
        <time>2017-06-18T08:14:08Z</time>
      </trkpt>
      <trkpt lat="43.59619" lon="3.06154">
        <ele>501</ele>
        <time>2017-06-18T08:14:11Z</time>
      </trkpt>
      <trkpt lat="43.59609" lon="3.06156">
        <ele>495.6</ele>
        <time>2017-06-18T08:14:14Z</time>
      </trkpt>
      <trkpt lat="43.59601" lon="3.06158">
        <ele>495.2</ele>
        <time>2017-06-18T08:14:17Z</time>
      </trkpt>
      <trkpt lat="43.59595" lon="3.06168">
        <ele>494.6</ele>
        <time>2017-06-18T08:14:20Z</time>
      </trkpt>
      <trkpt lat="43.59586" lon="3.06175">
        <ele>493.7</ele>
        <time>2017-06-18T08:14:23Z</time>
      </trkpt>
      <trkpt lat="43.59577" lon="3.06174">
        <ele>492.5</ele>
        <time>2017-06-18T08:14:27Z</time>
      </trkpt>
      <trkpt lat="43.59571" lon="3.06167">
        <ele>491.5</ele>
        <time>2017-06-18T08:14:30Z</time>
      </trkpt>
      <trkpt lat="43.59563" lon="3.06163">
        <ele>490.4</ele>
        <time>2017-06-18T08:14:34Z</time>
      </trkpt>
      <trkpt lat="43.59557" lon="3.06172">
        <ele>488.7</ele>
        <time>2017-06-18T08:14:39Z</time>
      </trkpt>
      <trkpt lat="43.59557" lon="3.06184">
        <ele>486.8</ele>
        <time>2017-06-18T08:14:44Z</time>
      </trkpt>
      <trkpt lat="43.59555" lon="3.06194">
        <ele>485.6</ele>
        <time>2017-06-18T08:14:47Z</time>
      </trkpt>
      <trkpt lat="43.59546" lon="3.062">
        <ele>484.4</ele>
        <time>2017-06-18T08:14:50Z</time>
      </trkpt>
      <trkpt lat="43.5954" lon="3.06212">
        <ele>482.9</ele>
        <time>2017-06-18T08:14:53Z</time>
      </trkpt>
      <trkpt lat="43.59542" lon="3.06225">
        <ele>481.3</ele>
        <time>2017-06-18T08:14:56Z</time>
      </trkpt>
      <trkpt lat="43.59548" lon="3.06232">
        <ele>479.8</ele>
        <time>2017-06-18T08:14:59Z</time>
      </trkpt>
      <trkpt lat="43.59554" lon="3.06241">
        <ele>476</ele>
        <time>2017-06-18T08:15:01Z</time>
      </trkpt>
      <trkpt lat="43.59557" lon="3.0625">
        <ele>475.1</ele>
        <time>2017-06-18T08:15:04Z</time>
      </trkpt>
      <trkpt lat="43.59558" lon="3.06264">
        <ele>473.5</ele>
        <time>2017-06-18T08:15:08Z</time>
      </trkpt>
      <trkpt lat="43.59557" lon="3.06275">
        <ele>472.1</ele>
        <time>2017-06-18T08:15:11Z</time>
      </trkpt>
      <trkpt lat="43.59548" lon="3.06276">
        <ele>470.2</ele>
        <time>2017-06-18T08:15:16Z</time>
      </trkpt>
      <trkpt lat="43.5954" lon="3.06286">
        <ele>468.7</ele>
        <time>2017-06-18T08:15:19Z</time>
      </trkpt>
      <trkpt lat="43.59536" lon="3.06297">
        <ele>467.5</ele>
        <time>2017-06-18T08:15:21Z</time>
      </trkpt>
      <trkpt lat="43.59528" lon="3.06304">
        <ele>465.8</ele>
        <time>2017-06-18T08:15:24Z</time>
      </trkpt>
      <trkpt lat="43.59521" lon="3.063">
        <ele>463.8</ele>
        <time>2017-06-18T08:15:27Z</time>
      </trkpt>
      <trkpt lat="43.59514" lon="3.06316">
        <ele>450.4</ele>
        <time>2017-06-18T08:15:31Z</time>
      </trkpt>
      <trkpt lat="43.59511" lon="3.06326">
        <ele>445.6</ele>
        <time>2017-06-18T08:15:32Z</time>
      </trkpt>
      <trkpt lat="43.59509" lon="3.06336">
        <ele>442.1</ele>
        <time>2017-06-18T08:15:33Z</time>
      </trkpt>
      <trkpt lat="43.59505" lon="3.06346">
        <ele>441.5</ele>
        <time>2017-06-18T08:15:35Z</time>
      </trkpt>
      <trkpt lat="43.59505" lon="3.06348">
        <ele>437.7</ele>
        <time>2017-06-18T08:15:57Z</time>
      </trkpt>
      <trkpt lat="43.59503" lon="3.06358">
        <ele>435.9</ele>
        <time>2017-06-18T08:16:10Z</time>
      </trkpt>
      <trkpt lat="43.59498" lon="3.06371">
        <ele>435.4</ele>
        <time>2017-06-18T08:16:13Z</time>
      </trkpt>
      <trkpt lat="43.59496" lon="3.06382">
        <ele>435.1</ele>
        <time>2017-06-18T08:16:15Z</time>
      </trkpt>
      <trkpt lat="43.59497" lon="3.06392">
        <ele>433.2</ele>
        <time>2017-06-18T08:16:17Z</time>
      </trkpt>
      <trkpt lat="43.59503" lon="3.06406">
        <ele>430.3</ele>
        <time>2017-06-18T08:16:20Z</time>
      </trkpt>
      <trkpt lat="43.59512" lon="3.06406">
        <ele>429.1</ele>
        <time>2017-06-18T08:16:22Z</time>
      </trkpt>
      <trkpt lat="43.59523" lon="3.06406">
        <ele>429</ele>
        <time>2017-06-18T08:16:24Z</time>
      </trkpt>
      <trkpt lat="43.59534" lon="3.06404">
        <ele>428.9</ele>
        <time>2017-06-18T08:16:27Z</time>
      </trkpt>
      <trkpt lat="43.59546" lon="3.06404">
        <ele>429.3</ele>
        <time>2017-06-18T08:16:28Z</time>
      </trkpt>
      <trkpt lat="43.59555" lon="3.06409">
        <ele>428.9</ele>
        <time>2017-06-18T08:16:30Z</time>
      </trkpt>
      <trkpt lat="43.59559" lon="3.0642">
        <ele>429</ele>
        <time>2017-06-18T08:16:32Z</time>
      </trkpt>
      <trkpt lat="43.59557" lon="3.06433">
        <ele>428.7</ele>
        <time>2017-06-18T08:16:34Z</time>
      </trkpt>
      <trkpt lat="43.59554" lon="3.06443">
        <ele>428.3</ele>
        <time>2017-06-18T08:16:36Z</time>
      </trkpt>
      <trkpt lat="43.59553" lon="3.06454">
        <ele>428.5</ele>
        <time>2017-06-18T08:16:38Z</time>
      </trkpt>
      <trkpt lat="43.5955" lon="3.06466">
        <ele>428.5</ele>
        <time>2017-06-18T08:16:40Z</time>
      </trkpt>
      <trkpt lat="43.59548" lon="3.06479">
        <ele>428</ele>
        <time>2017-06-18T08:16:42Z</time>
      </trkpt>
      <trkpt lat="43.59546" lon="3.06492">
        <ele>426</ele>
        <time>2017-06-18T08:16:44Z</time>
      </trkpt>
      <trkpt lat="43.59541" lon="3.06507">
        <ele>425.4</ele>
        <time>2017-06-18T08:16:47Z</time>
      </trkpt>
      <trkpt lat="43.59541" lon="3.06525">
        <ele>425.8</ele>
        <time>2017-06-18T08:16:48Z</time>
      </trkpt>
      <trkpt lat="43.59542" lon="3.06535">
        <ele>425.1</ele>
        <time>2017-06-18T08:16:49Z</time>
      </trkpt>
      <trkpt lat="43.5955" lon="3.06552">
        <ele>423.3</ele>
        <time>2017-06-18T08:16:51Z</time>
      </trkpt>
      <trkpt lat="43.59561" lon="3.06565">
        <ele>421.5</ele>
        <time>2017-06-18T08:16:53Z</time>
      </trkpt>
      <trkpt lat="43.59567" lon="3.06572">
        <ele>420.5</ele>
        <time>2017-06-18T08:16:54Z</time>
      </trkpt>
      <trkpt lat="43.59574" lon="3.06578">
        <ele>419.8</ele>
        <time>2017-06-18T08:16:56Z</time>
      </trkpt>
      <trkpt lat="43.59581" lon="3.06584">
        <ele>419.6</ele>
        <time>2017-06-18T08:16:56Z</time>
      </trkpt>
      <trkpt lat="43.59587" lon="3.06591">
        <ele>419.9</ele>
        <time>2017-06-18T08:16:57Z</time>
      </trkpt>
      <trkpt lat="43.59594" lon="3.06597">
        <ele>419.9</ele>
        <time>2017-06-18T08:16:58Z</time>
      </trkpt>
      <trkpt lat="43.596" lon="3.06604">
        <ele>419.5</ele>
        <time>2017-06-18T08:16:59Z</time>
      </trkpt>
      <trkpt lat="43.59606" lon="3.0661">
        <ele>419.1</ele>
        <time>2017-06-18T08:17:00Z</time>
      </trkpt>
      <trkpt lat="43.59617" lon="3.06619">
        <ele>418.2</ele>
        <time>2017-06-18T08:17:02Z</time>
      </trkpt>
      <trkpt lat="43.59627" lon="3.06624">
        <ele>416.2</ele>
        <time>2017-06-18T08:17:04Z</time>
      </trkpt>
      <trkpt lat="43.59639" lon="3.06632">
        <ele>414.3</ele>
        <time>2017-06-18T08:17:06Z</time>
      </trkpt>
      <trkpt lat="43.59649" lon="3.06637">
        <ele>414.1</ele>
        <time>2017-06-18T08:17:08Z</time>
      </trkpt>
      <trkpt lat="43.59654" lon="3.06649">
        <ele>413.1</ele>
        <time>2017-06-18T08:17:10Z</time>
      </trkpt>
      <trkpt lat="43.59649" lon="3.06656">
        <ele>412.9</ele>
        <time>2017-06-18T08:17:15Z</time>
      </trkpt>
      <trkpt lat="43.59641" lon="3.0666">
        <ele>412.6</ele>
        <time>2017-06-18T08:17:18Z</time>
      </trkpt>
      <trkpt lat="43.59641" lon="3.06661">
        <ele>412.9</ele>
        <time>2017-06-18T08:17:25Z</time>
      </trkpt>
      <trkpt lat="43.59649" lon="3.06658">
        <ele>414.4</ele>
        <time>2017-06-18T08:17:31Z</time>
      </trkpt>
      <trkpt lat="43.59652" lon="3.06649">
        <ele>415</ele>
        <time>2017-06-18T08:17:34Z</time>
      </trkpt>
      <trkpt lat="43.59653" lon="3.0664">
        <ele>416.1</ele>
        <time>2017-06-18T08:17:41Z</time>
      </trkpt>
      <trkpt lat="43.59649" lon="3.0665">
        <ele>417.7</ele>
        <time>2017-06-18T08:18:08Z</time>
      </trkpt>
      <trkpt lat="43.59638" lon="3.06654">
        <ele>418.2</ele>
        <time>2017-06-18T08:18:12Z</time>
      </trkpt>
      <trkpt lat="43.59629" lon="3.06658">
        <ele>418.4</ele>
        <time>2017-06-18T08:18:15Z</time>
      </trkpt>
      <trkpt lat="43.59621" lon="3.06661">
        <ele>418.5</ele>
        <time>2017-06-18T08:18:17Z</time>
      </trkpt>
      <trkpt lat="43.59614" lon="3.06665">
        <ele>418.6</ele>
        <time>2017-06-18T08:18:19Z</time>
      </trkpt>
      <trkpt lat="43.59605" lon="3.06671">
        <ele>418.7</ele>
        <time>2017-06-18T08:18:22Z</time>
      </trkpt>
      <trkpt lat="43.59598" lon="3.06676">
        <ele>418.8</ele>
        <time>2017-06-18T08:18:25Z</time>
      </trkpt>
      <trkpt lat="43.59591" lon="3.06682">
        <ele>418.9</ele>
        <time>2017-06-18T08:18:27Z</time>
      </trkpt>
      <trkpt lat="43.59581" lon="3.06688">
        <ele>419</ele>
        <time>2017-06-18T08:18:30Z</time>
      </trkpt>
      <trkpt lat="43.59573" lon="3.06694">
        <ele>419.1</ele>
        <time>2017-06-18T08:18:33Z</time>
      </trkpt>
      <trkpt lat="43.59564" lon="3.06699">
        <ele>419.1</ele>
        <time>2017-06-18T08:18:36Z</time>
      </trkpt>
      <trkpt lat="43.59555" lon="3.06704">
        <ele>419.3</ele>
        <time>2017-06-18T08:18:39Z</time>
      </trkpt>
      <trkpt lat="43.59548" lon="3.06708">
        <ele>419.4</ele>
        <time>2017-06-18T08:18:41Z</time>
      </trkpt>
      <trkpt lat="43.5954" lon="3.06715">
        <ele>419.3</ele>
        <time>2017-06-18T08:18:44Z</time>
      </trkpt>
      <trkpt lat="43.59532" lon="3.06722">
        <ele>419.3</ele>
        <time>2017-06-18T08:18:47Z</time>
      </trkpt>
      <trkpt lat="43.59525" lon="3.0673">
        <ele>419.2</ele>
        <time>2017-06-18T08:18:49Z</time>
      </trkpt>
      <trkpt lat="43.59522" lon="3.06743">
        <ele>418.9</ele>
        <time>2017-06-18T08:18:52Z</time>
      </trkpt>
      <trkpt lat="43.59526" lon="3.06753">
        <ele>418.9</ele>
        <time>2017-06-18T08:18:57Z</time>
      </trkpt>
      <trkpt lat="43.59532" lon="3.06759">
        <ele>418.8</ele>
        <time>2017-06-18T08:19:00Z</time>
      </trkpt>
      <trkpt lat="43.59539" lon="3.06768">
        <ele>418.6</ele>
        <time>2017-06-18T08:19:03Z</time>
      </trkpt>
      <trkpt lat="43.59547" lon="3.06774">
        <ele>418.6</ele>
        <time>2017-06-18T08:19:05Z</time>
      </trkpt>
      <trkpt lat="43.59556" lon="3.06777">
        <ele>418.5</ele>
        <time>2017-06-18T08:19:08Z</time>
      </trkpt>
      <trkpt lat="43.59563" lon="3.06778">
        <ele>418.4</ele>
        <time>2017-06-18T08:19:11Z</time>
      </trkpt>
      <trkpt lat="43.59572" lon="3.06779">
        <ele>418.4</ele>
        <time>2017-06-18T08:19:15Z</time>
      </trkpt>
      <trkpt lat="43.59579" lon="3.06779">
        <ele>418.6</ele>
        <time>2017-06-18T08:19:18Z</time>
      </trkpt>
      <trkpt lat="43.59587" lon="3.06779">
        <ele>418.9</ele>
        <time>2017-06-18T08:19:21Z</time>
      </trkpt>
      <trkpt lat="43.59595" lon="3.06777">
        <ele>419.4</ele>
        <time>2017-06-18T08:19:25Z</time>
      </trkpt>
      <trkpt lat="43.59604" lon="3.06775">
        <ele>420.4</ele>
        <time>2017-06-18T08:19:30Z</time>
      </trkpt>
      <trkpt lat="43.59611" lon="3.06772">
        <ele>421.1</ele>
        <time>2017-06-18T08:19:33Z</time>
      </trkpt>
      <trkpt lat="43.59618" lon="3.06767">
        <ele>422</ele>
        <time>2017-06-18T08:19:37Z</time>
      </trkpt>
      <trkpt lat="43.59624" lon="3.06762">
        <ele>422.8</ele>
        <time>2017-06-18T08:19:42Z</time>
      </trkpt>
      <trkpt lat="43.5963" lon="3.06756">
        <ele>423.5</ele>
        <time>2017-06-18T08:19:45Z</time>
      </trkpt>
      <trkpt lat="43.59637" lon="3.06749">
        <ele>423.8</ele>
        <time>2017-06-18T08:19:49Z</time>
      </trkpt>
      <trkpt lat="43.59645" lon="3.06746">
        <ele>424.1</ele>
        <time>2017-06-18T08:19:52Z</time>
      </trkpt>
      <trkpt lat="43.59652" lon="3.06741">
        <ele>424.7</ele>
        <time>2017-06-18T08:19:56Z</time>
      </trkpt>
      <trkpt lat="43.5966" lon="3.06737">
        <ele>425.1</ele>
        <time>2017-06-18T08:20:00Z</time>
      </trkpt>
      <trkpt lat="43.59667" lon="3.0673">
        <ele>425.6</ele>
        <time>2017-06-18T08:20:04Z</time>
      </trkpt>
      <trkpt lat="43.59675" lon="3.06723">
        <ele>426.4</ele>
        <time>2017-06-18T08:20:08Z</time>
      </trkpt>
      <trkpt lat="43.59681" lon="3.06718">
        <ele>426.9</ele>
        <time>2017-06-18T08:20:11Z</time>
      </trkpt>
      <trkpt lat="43.59689" lon="3.06713">
        <ele>427.6</ele>
        <time>2017-06-18T08:20:15Z</time>
      </trkpt>
      <trkpt lat="43.59698" lon="3.06708">
        <ele>428.5</ele>
        <time>2017-06-18T08:20:20Z</time>
      </trkpt>
      <trkpt lat="43.59705" lon="3.06702">
        <ele>429</ele>
        <time>2017-06-18T08:20:23Z</time>
      </trkpt>
      <trkpt lat="43.59712" lon="3.06696">
        <ele>429.5</ele>
        <time>2017-06-18T08:20:26Z</time>
      </trkpt>
      <trkpt lat="43.59718" lon="3.06692">
        <ele>430</ele>
        <time>2017-06-18T08:20:29Z</time>
      </trkpt>
      <trkpt lat="43.59725" lon="3.06687">
        <ele>430.4</ele>
        <time>2017-06-18T08:20:32Z</time>
      </trkpt>
      <trkpt lat="43.59734" lon="3.0668">
        <ele>430.7</ele>
        <time>2017-06-18T08:20:36Z</time>
      </trkpt>
      <trkpt lat="43.5974" lon="3.06675">
        <ele>430.6</ele>
        <time>2017-06-18T08:20:39Z</time>
      </trkpt>
      <trkpt lat="43.59747" lon="3.0667">
        <ele>430.8</ele>
        <time>2017-06-18T08:20:43Z</time>
      </trkpt>
      <trkpt lat="43.59754" lon="3.06667">
        <ele>431.1</ele>
        <time>2017-06-18T08:20:47Z</time>
      </trkpt>
      <trkpt lat="43.59761" lon="3.06659">
        <ele>431.6</ele>
        <time>2017-06-18T08:20:51Z</time>
      </trkpt>
      <trkpt lat="43.59768" lon="3.06653">
        <ele>432.3</ele>
        <time>2017-06-18T08:20:55Z</time>
      </trkpt>
      <trkpt lat="43.59776" lon="3.0665">
        <ele>432.9</ele>
        <time>2017-06-18T08:20:59Z</time>
      </trkpt>
      <trkpt lat="43.59783" lon="3.06645">
        <ele>433.7</ele>
        <time>2017-06-18T08:21:03Z</time>
      </trkpt>
      <trkpt lat="43.5979" lon="3.0664">
        <ele>434.3</ele>
        <time>2017-06-18T08:21:06Z</time>
      </trkpt>
      <trkpt lat="43.59797" lon="3.06634">
        <ele>434.9</ele>
        <time>2017-06-18T08:21:10Z</time>
      </trkpt>
      <trkpt lat="43.59804" lon="3.06629">
        <ele>435.3</ele>
        <time>2017-06-18T08:21:13Z</time>
      </trkpt>
      <trkpt lat="43.59811" lon="3.06624">
        <ele>435.9</ele>
        <time>2017-06-18T08:21:17Z</time>
      </trkpt>
      <trkpt lat="43.59819" lon="3.0662">
        <ele>436.4</ele>
        <time>2017-06-18T08:21:21Z</time>
      </trkpt>
      <trkpt lat="43.59825" lon="3.06614">
        <ele>436.9</ele>
        <time>2017-06-18T08:21:24Z</time>
      </trkpt>
      <trkpt lat="43.59832" lon="3.06607">
        <ele>437.3</ele>
        <time>2017-06-18T08:21:28Z</time>
      </trkpt>
      <trkpt lat="43.59838" lon="3.06602">
        <ele>437.8</ele>
        <time>2017-06-18T08:21:32Z</time>
      </trkpt>
      <trkpt lat="43.59845" lon="3.06597">
        <ele>438.3</ele>
        <time>2017-06-18T08:21:37Z</time>
      </trkpt>
      <trkpt lat="43.59852" lon="3.0659">
        <ele>438.7</ele>
        <time>2017-06-18T08:21:41Z</time>
      </trkpt>
      <trkpt lat="43.59859" lon="3.06582">
        <ele>438.9</ele>
        <time>2017-06-18T08:21:45Z</time>
      </trkpt>
      <trkpt lat="43.59864" lon="3.06575">
        <ele>439</ele>
        <time>2017-06-18T08:21:50Z</time>
      </trkpt>
      <trkpt lat="43.5987" lon="3.06567">
        <ele>439.4</ele>
        <time>2017-06-18T08:21:54Z</time>
      </trkpt>
      <trkpt lat="43.59874" lon="3.06558">
        <ele>439.8</ele>
        <time>2017-06-18T08:21:58Z</time>
      </trkpt>
      <trkpt lat="43.59878" lon="3.06549">
        <ele>440.2</ele>
        <time>2017-06-18T08:22:02Z</time>
      </trkpt>
      <trkpt lat="43.59882" lon="3.06539">
        <ele>440.6</ele>
        <time>2017-06-18T08:22:07Z</time>
      </trkpt>
      <trkpt lat="43.59885" lon="3.0653">
        <ele>441.1</ele>
        <time>2017-06-18T08:22:11Z</time>
      </trkpt>
      <trkpt lat="43.59889" lon="3.06521">
        <ele>441.5</ele>
        <time>2017-06-18T08:22:14Z</time>
      </trkpt>
      <trkpt lat="43.59894" lon="3.06512">
        <ele>442</ele>
        <time>2017-06-18T08:22:18Z</time>
      </trkpt>
      <trkpt lat="43.59897" lon="3.06503">
        <ele>442.4</ele>
        <time>2017-06-18T08:22:22Z</time>
      </trkpt>
      <trkpt lat="43.599" lon="3.06493">
        <ele>442.7</ele>
        <time>2017-06-18T08:22:25Z</time>
      </trkpt>
      <trkpt lat="43.59904" lon="3.06481">
        <ele>443.4</ele>
        <time>2017-06-18T08:22:30Z</time>
      </trkpt>
      <trkpt lat="43.59906" lon="3.06471">
        <ele>444.1</ele>
        <time>2017-06-18T08:22:34Z</time>
      </trkpt>
      <trkpt lat="43.59909" lon="3.06459">
        <ele>444.9</ele>
        <time>2017-06-18T08:22:38Z</time>
      </trkpt>
      <trkpt lat="43.59907" lon="3.06449">
        <ele>445.7</ele>
        <time>2017-06-18T08:22:42Z</time>
      </trkpt>
      <trkpt lat="43.59906" lon="3.06439">
        <ele>446.9</ele>
        <time>2017-06-18T08:22:48Z</time>
      </trkpt>
      <trkpt lat="43.59906" lon="3.06427">
        <ele>448.1</ele>
        <time>2017-06-18T08:22:53Z</time>
      </trkpt>
      <trkpt lat="43.59904" lon="3.06418">
        <ele>449</ele>
        <time>2017-06-18T08:22:57Z</time>
      </trkpt>
      <trkpt lat="43.59904" lon="3.06408">
        <ele>450</ele>
        <time>2017-06-18T08:23:02Z</time>
      </trkpt>
      <trkpt lat="43.59904" lon="3.06398">
        <ele>450.9</ele>
        <time>2017-06-18T08:23:06Z</time>
      </trkpt>
      <trkpt lat="43.59906" lon="3.06388">
        <ele>451.9</ele>
        <time>2017-06-18T08:23:10Z</time>
      </trkpt>
      <trkpt lat="43.59907" lon="3.06378">
        <ele>452.8</ele>
        <time>2017-06-18T08:23:14Z</time>
      </trkpt>
      <trkpt lat="43.59909" lon="3.06365">
        <ele>453.6</ele>
        <time>2017-06-18T08:23:18Z</time>
      </trkpt>
      <trkpt lat="43.59911" lon="3.06354">
        <ele>454.2</ele>
        <time>2017-06-18T08:23:21Z</time>
      </trkpt>
      <trkpt lat="43.59911" lon="3.06344">
        <ele>455.3</ele>
        <time>2017-06-18T08:23:25Z</time>
      </trkpt>
      <trkpt lat="43.59913" lon="3.06333">
        <ele>456</ele>
        <time>2017-06-18T08:23:28Z</time>
      </trkpt>
      <trkpt lat="43.59907" lon="3.06324">
        <ele>456.8</ele>
        <time>2017-06-18T08:23:32Z</time>
      </trkpt>
      <trkpt lat="43.59899" lon="3.06325">
        <ele>457.7</ele>
        <time>2017-06-18T08:23:36Z</time>
      </trkpt>
      <trkpt lat="43.59893" lon="3.06326">
        <ele>458.8</ele>
        <time>2017-06-18T08:23:40Z</time>
      </trkpt>
      <trkpt lat="43.59884" lon="3.0633">
        <ele>459.9</ele>
        <time>2017-06-18T08:23:45Z</time>
      </trkpt>
      <trkpt lat="43.59875" lon="3.06338">
        <ele>460.5</ele>
        <time>2017-06-18T08:23:48Z</time>
      </trkpt>
      <trkpt lat="43.59869" lon="3.06345">
        <ele>461.2</ele>
        <time>2017-06-18T08:23:51Z</time>
      </trkpt>
      <trkpt lat="43.59863" lon="3.06353">
        <ele>462</ele>
        <time>2017-06-18T08:23:54Z</time>
      </trkpt>
      <trkpt lat="43.59856" lon="3.06361">
        <ele>462.6</ele>
        <time>2017-06-18T08:23:57Z</time>
      </trkpt>
      <trkpt lat="43.5985" lon="3.06366">
        <ele>462.9</ele>
        <time>2017-06-18T08:24:00Z</time>
      </trkpt>
      <trkpt lat="43.59842" lon="3.06372">
        <ele>463.2</ele>
        <time>2017-06-18T08:24:04Z</time>
      </trkpt>
      <trkpt lat="43.59835" lon="3.06378">
        <ele>463.6</ele>
        <time>2017-06-18T08:24:08Z</time>
      </trkpt>
      <trkpt lat="43.59827" lon="3.06383">
        <ele>464.1</ele>
        <time>2017-06-18T08:24:12Z</time>
      </trkpt>
      <trkpt lat="43.59819" lon="3.06388">
        <ele>464.6</ele>
        <time>2017-06-18T08:24:16Z</time>
      </trkpt>
      <trkpt lat="43.5981" lon="3.06392">
        <ele>465.3</ele>
        <time>2017-06-18T08:24:21Z</time>
      </trkpt>
      <trkpt lat="43.59802" lon="3.06395">
        <ele>466</ele>
        <time>2017-06-18T08:24:25Z</time>
      </trkpt>
      <trkpt lat="43.59793" lon="3.06397">
        <ele>466.8</ele>
        <time>2017-06-18T08:24:29Z</time>
      </trkpt>
      <trkpt lat="43.59785" lon="3.06396">
        <ele>467.4</ele>
        <time>2017-06-18T08:24:33Z</time>
      </trkpt>
      <trkpt lat="43.59777" lon="3.06395">
        <ele>468.3</ele>
        <time>2017-06-18T08:24:38Z</time>
      </trkpt>
      <trkpt lat="43.59769" lon="3.06395">
        <ele>469.1</ele>
        <time>2017-06-18T08:24:42Z</time>
      </trkpt>
      <trkpt lat="43.59761" lon="3.06393">
        <ele>469.7</ele>
        <time>2017-06-18T08:24:45Z</time>
      </trkpt>
      <trkpt lat="43.59753" lon="3.06391">
        <ele>470.5</ele>
        <time>2017-06-18T08:24:49Z</time>
      </trkpt>
      <trkpt lat="43.59744" lon="3.06387">
        <ele>471.2</ele>
        <time>2017-06-18T08:24:53Z</time>
      </trkpt>
      <trkpt lat="43.59736" lon="3.0638">
        <ele>472.1</ele>
        <time>2017-06-18T08:24:58Z</time>
      </trkpt>
      <trkpt lat="43.59731" lon="3.06372">
        <ele>472.6</ele>
        <time>2017-06-18T08:25:02Z</time>
      </trkpt>
      <trkpt lat="43.59727" lon="3.06364">
        <ele>473</ele>
        <time>2017-06-18T08:25:05Z</time>
      </trkpt>
      <trkpt lat="43.59722" lon="3.06354">
        <ele>473.6</ele>
        <time>2017-06-18T08:25:09Z</time>
      </trkpt>
      <trkpt lat="43.59717" lon="3.06344">
        <ele>474.1</ele>
        <time>2017-06-18T08:25:13Z</time>
      </trkpt>
      <trkpt lat="43.59712" lon="3.06334">
        <ele>475</ele>
        <time>2017-06-18T08:25:18Z</time>
      </trkpt>
      <trkpt lat="43.59709" lon="3.06324">
        <ele>475.9</ele>
        <time>2017-06-18T08:25:23Z</time>
      </trkpt>
      <trkpt lat="43.59704" lon="3.06315">
        <ele>477</ele>
        <time>2017-06-18T08:25:29Z</time>
      </trkpt>
      <trkpt lat="43.597" lon="3.06307">
        <ele>478.4</ele>
        <time>2017-06-18T08:25:36Z</time>
      </trkpt>
      <trkpt lat="43.59696" lon="3.063">
        <ele>479</ele>
        <time>2017-06-18T08:25:40Z</time>
      </trkpt>
      <trkpt lat="43.59691" lon="3.06292">
        <ele>479.5</ele>
        <time>2017-06-18T08:25:44Z</time>
      </trkpt>
      <trkpt lat="43.59686" lon="3.06283">
        <ele>480.1</ele>
        <time>2017-06-18T08:25:49Z</time>
      </trkpt>
      <trkpt lat="43.59684" lon="3.06272">
        <ele>480.9</ele>
        <time>2017-06-18T08:25:53Z</time>
      </trkpt>
      <trkpt lat="43.5968" lon="3.06263">
        <ele>481.5</ele>
        <time>2017-06-18T08:25:56Z</time>
      </trkpt>
      <trkpt lat="43.59674" lon="3.06254">
        <ele>482.1</ele>
        <time>2017-06-18T08:26:00Z</time>
      </trkpt>
      <trkpt lat="43.59669" lon="3.06246">
        <ele>482.7</ele>
        <time>2017-06-18T08:26:04Z</time>
      </trkpt>
      <trkpt lat="43.59665" lon="3.06236">
        <ele>483.3</ele>
        <time>2017-06-18T08:26:08Z</time>
      </trkpt>
      <trkpt lat="43.5966" lon="3.06224">
        <ele>483.8</ele>
        <time>2017-06-18T08:26:13Z</time>
      </trkpt>
      <trkpt lat="43.59656" lon="3.06213">
        <ele>484.1</ele>
        <time>2017-06-18T08:26:17Z</time>
      </trkpt>
      <trkpt lat="43.59654" lon="3.06201">
        <ele>484.7</ele>
        <time>2017-06-18T08:26:21Z</time>
      </trkpt>
      <trkpt lat="43.59653" lon="3.06192">
        <ele>485.3</ele>
        <time>2017-06-18T08:26:25Z</time>
      </trkpt>
      <trkpt lat="43.59654" lon="3.06181">
        <ele>486.1</ele>
        <time>2017-06-18T08:26:30Z</time>
      </trkpt>
      <trkpt lat="43.59656" lon="3.06171">
        <ele>486.8</ele>
        <time>2017-06-18T08:26:34Z</time>
      </trkpt>
      <trkpt lat="43.59662" lon="3.06162">
        <ele>487.6</ele>
        <time>2017-06-18T08:26:38Z</time>
      </trkpt>
      <trkpt lat="43.59669" lon="3.06159">
        <ele>489.1</ele>
        <time>2017-06-18T08:26:43Z</time>
      </trkpt>
      <trkpt lat="43.59676" lon="3.06162">
        <ele>491</ele>
        <time>2017-06-18T08:26:48Z</time>
      </trkpt>
      <trkpt lat="43.59682" lon="3.06168">
        <ele>493.1</ele>
        <time>2017-06-18T08:26:54Z</time>
      </trkpt>
      <trkpt lat="43.59688" lon="3.06175">
        <ele>494.7</ele>
        <time>2017-06-18T08:26:59Z</time>
      </trkpt>
      <trkpt lat="43.59694" lon="3.06183">
        <ele>496.2</ele>
        <time>2017-06-18T08:27:04Z</time>
      </trkpt>
      <trkpt lat="43.59701" lon="3.0619">
        <ele>497.5</ele>
        <time>2017-06-18T08:27:09Z</time>
      </trkpt>
      <trkpt lat="43.59708" lon="3.06199">
        <ele>498.5</ele>
        <time>2017-06-18T08:27:14Z</time>
      </trkpt>
      <trkpt lat="43.59715" lon="3.06205">
        <ele>499.2</ele>
        <time>2017-06-18T08:27:18Z</time>
      </trkpt>
      <trkpt lat="43.59722" lon="3.06212">
        <ele>499.8</ele>
        <time>2017-06-18T08:27:22Z</time>
      </trkpt>
      <trkpt lat="43.59728" lon="3.06219">
        <ele>500.4</ele>
        <time>2017-06-18T08:27:26Z</time>
      </trkpt>
      <trkpt lat="43.59735" lon="3.06226">
        <ele>501.2</ele>
        <time>2017-06-18T08:27:30Z</time>
      </trkpt>
      <trkpt lat="43.5974" lon="3.06234">
        <ele>501.9</ele>
        <time>2017-06-18T08:27:34Z</time>
      </trkpt>
      <trkpt lat="43.59742" lon="3.06237">
        <ele>504.2</ele>
        <time>2017-06-18T08:27:59Z</time>
      </trkpt>
      <trkpt lat="43.59744" lon="3.06238">
        <ele>504.3</ele>
        <time>2017-06-18T08:28:19Z</time>
      </trkpt>
      <trkpt lat="43.59746" lon="3.06242">
        <ele>505.5</ele>
        <time>2017-06-18T08:28:35Z</time>
      </trkpt>
      <trkpt lat="43.59753" lon="3.06244">
        <ele>506.2</ele>
        <time>2017-06-18T08:28:39Z</time>
      </trkpt>
      <trkpt lat="43.59747" lon="3.06242">
        <ele>507.1</ele>
        <time>2017-06-18T08:28:46Z</time>
      </trkpt>
      <trkpt lat="43.59742" lon="3.0624">
        <ele>507.6</ele>
        <time>2017-06-18T08:28:53Z</time>
      </trkpt>
      <trkpt lat="43.5974" lon="3.06234">
        <ele>507.5</ele>
        <time>2017-06-18T08:29:00Z</time>
      </trkpt>
      <trkpt lat="43.59744" lon="3.06231">
        <ele>507.4</ele>
        <time>2017-06-18T08:29:07Z</time>
      </trkpt>
      <trkpt lat="43.59744" lon="3.06233">
        <ele>507</ele>
        <time>2017-06-18T08:29:14Z</time>
      </trkpt>
      <trkpt lat="43.59744" lon="3.06236">
        <ele>506.8</ele>
        <time>2017-06-18T08:29:21Z</time>
      </trkpt>
      <trkpt lat="43.59747" lon="3.06237">
        <ele>506.6</ele>
        <time>2017-06-18T08:28:53Z</time>
      </trkpt>
      <trkpt lat="43.59751" lon="3.06241">
        <ele>507.6</ele>
        <time>2017-06-18T08:30:05Z</time>
      </trkpt>
      <trkpt lat="43.59751" lon="3.06243">
        <ele>508</ele>
        <time>2017-06-18T08:30:12Z</time>
      </trkpt>
      <trkpt lat="43.59751" lon="3.06243">
        <ele>508.8</ele>
        <time>2017-06-18T08:30:26Z</time>
      </trkpt>
      <trkpt lat="43.59744" lon="3.06237">
        <ele>508.9</ele>
        <time>2017-06-18T08:30:31Z</time>
      </trkpt>
      <trkpt lat="43.59739" lon="3.06245">
        <ele>508.6</ele>
        <time>2017-06-18T08:30:35Z</time>
      </trkpt>
      <trkpt lat="43.59733" lon="3.06251">
        <ele>507.1</ele>
        <time>2017-06-18T08:30:37Z</time>
      </trkpt>
      <trkpt lat="43.59725" lon="3.06261">
        <ele>506.5</ele>
        <time>2017-06-18T08:30:41Z</time>
      </trkpt>
      <trkpt lat="43.5972" lon="3.06272">
        <ele>505.9</ele>
        <time>2017-06-18T08:30:43Z</time>
      </trkpt>
      <trkpt lat="43.59718" lon="3.06283">
        <ele>504.7</ele>
        <time>2017-06-18T08:30:47Z</time>
      </trkpt>
      <trkpt lat="43.59712" lon="3.0629">
        <ele>502.7</ele>
        <time>2017-06-18T08:30:53Z</time>
      </trkpt>
      <trkpt lat="43.59709" lon="3.063">
        <ele>501.8</ele>
        <time>2017-06-18T08:30:56Z</time>
      </trkpt>
      <trkpt lat="43.59704" lon="3.06309">
        <ele>501.1</ele>
        <time>2017-06-18T08:30:58Z</time>
      </trkpt>
      <trkpt lat="43.59702" lon="3.06314">
        <ele>499.9</ele>
        <time>2017-06-18T08:31:05Z</time>
      </trkpt>
      <trkpt lat="43.59692" lon="3.06315">
        <ele>498.3</ele>
        <time>2017-06-18T08:31:14Z</time>
      </trkpt>
      <trkpt lat="43.59684" lon="3.06313">
        <ele>497.2</ele>
        <time>2017-06-18T08:31:18Z</time>
      </trkpt>
      <trkpt lat="43.59674" lon="3.06313">
        <ele>496.4</ele>
        <time>2017-06-18T08:31:21Z</time>
      </trkpt>
      <trkpt lat="43.5967" lon="3.06322">
        <ele>495</ele>
        <time>2017-06-18T08:31:25Z</time>
      </trkpt>
      <trkpt lat="43.59673" lon="3.06336">
        <ele>493.8</ele>
        <time>2017-06-18T08:31:28Z</time>
      </trkpt>
      <trkpt lat="43.59671" lon="3.0635">
        <ele>492.5</ele>
        <time>2017-06-18T08:31:31Z</time>
      </trkpt>
      <trkpt lat="43.59668" lon="3.06359">
        <ele>491.2</ele>
        <time>2017-06-18T08:31:34Z</time>
      </trkpt>
      <trkpt lat="43.59666" lon="3.06371">
        <ele>485.6</ele>
        <time>2017-06-18T08:31:37Z</time>
      </trkpt>
      <trkpt lat="43.59666" lon="3.06381">
        <ele>484.1</ele>
        <time>2017-06-18T08:31:43Z</time>
      </trkpt>
      <trkpt lat="43.59675" lon="3.06388">
        <ele>482.9</ele>
        <time>2017-06-18T08:31:49Z</time>
      </trkpt>
      <trkpt lat="43.59683" lon="3.06392">
        <ele>482.4</ele>
        <time>2017-06-18T08:31:52Z</time>
      </trkpt>
      <trkpt lat="43.59688" lon="3.06396">
        <ele>482</ele>
        <time>2017-06-18T08:31:59Z</time>
      </trkpt>
      <trkpt lat="43.59688" lon="3.06408">
        <ele>479.3</ele>
        <time>2017-06-18T08:32:23Z</time>
      </trkpt>
      <trkpt lat="43.59687" lon="3.06412">
        <ele>479.1</ele>
        <time>2017-06-18T08:32:30Z</time>
      </trkpt>
      <trkpt lat="43.5969" lon="3.06408">
        <ele>477.3</ele>
        <time>2017-06-18T08:32:44Z</time>
      </trkpt>
      <trkpt lat="43.59689" lon="3.06404">
        <ele>476.7</ele>
        <time>2017-06-18T08:32:51Z</time>
      </trkpt>
      <trkpt lat="43.59685" lon="3.06405">
        <ele>477</ele>
        <time>2017-06-18T08:32:58Z</time>
      </trkpt>
      <trkpt lat="43.59685" lon="3.06406">
        <ele>476.4</ele>
        <time>2017-06-18T08:33:05Z</time>
      </trkpt>
      <trkpt lat="43.59687" lon="3.06408">
        <ele>475.2</ele>
        <time>2017-06-18T08:33:13Z</time>
      </trkpt>
      <trkpt lat="43.59691" lon="3.06406">
        <ele>475.2</ele>
        <time>2017-06-18T08:33:20Z</time>
      </trkpt>
      <trkpt lat="43.5969" lon="3.06403">
        <ele>474.4</ele>
        <time>2017-06-18T08:33:27Z</time>
      </trkpt>
      <trkpt lat="43.59685" lon="3.06398">
        <ele>473.4</ele>
        <time>2017-06-18T08:33:34Z</time>
      </trkpt>
      <trkpt lat="43.59689" lon="3.06401">
        <ele>471.5</ele>
        <time>2017-06-18T08:33:46Z</time>
      </trkpt>
      <trkpt lat="43.59689" lon="3.06413">
        <ele>470.3</ele>
        <time>2017-06-18T08:34:05Z</time>
      </trkpt>
      <trkpt lat="43.59687" lon="3.06424">
        <ele>469.7</ele>
        <time>2017-06-18T08:34:07Z</time>
      </trkpt>
      <trkpt lat="43.59685" lon="3.06435">
        <ele>468.9</ele>
        <time>2017-06-18T08:34:12Z</time>
      </trkpt>
      <trkpt lat="43.59685" lon="3.06446">
        <ele>468.1</ele>
        <time>2017-06-18T08:34:17Z</time>
      </trkpt>
      <trkpt lat="43.59682" lon="3.06449">
        <ele>467.7</ele>
        <time>2017-06-18T08:34:24Z</time>
      </trkpt>
      <trkpt lat="43.59678" lon="3.06452">
        <ele>467.6</ele>
        <time>2017-06-18T08:34:31Z</time>
      </trkpt>
      <trkpt lat="43.59678" lon="3.06463">
        <ele>467.4</ele>
        <time>2017-06-18T08:34:34Z</time>
      </trkpt>
      <trkpt lat="43.59675" lon="3.06474">
        <ele>466.5</ele>
        <time>2017-06-18T08:34:40Z</time>
      </trkpt>
      <trkpt lat="43.59675" lon="3.06485">
        <ele>465.6</ele>
        <time>2017-06-18T08:34:43Z</time>
      </trkpt>
      <trkpt lat="43.59669" lon="3.06492">
        <ele>464.4</ele>
        <time>2017-06-18T08:34:47Z</time>
      </trkpt>
      <trkpt lat="43.59665" lon="3.06503">
        <ele>462.8</ele>
        <time>2017-06-18T08:34:51Z</time>
      </trkpt>
      <trkpt lat="43.59657" lon="3.06503">
        <ele>461.1</ele>
        <time>2017-06-18T08:34:57Z</time>
      </trkpt>
      <trkpt lat="43.59654" lon="3.06513">
        <ele>460.4</ele>
        <time>2017-06-18T08:35:00Z</time>
      </trkpt>
      <trkpt lat="43.5965" lon="3.06525">
        <ele>459</ele>
        <time>2017-06-18T08:35:04Z</time>
      </trkpt>
      <trkpt lat="43.59644" lon="3.06535">
        <ele>457.6</ele>
        <time>2017-06-18T08:35:07Z</time>
      </trkpt>
      <trkpt lat="43.59641" lon="3.06546">
        <ele>456.4</ele>
        <time>2017-06-18T08:35:10Z</time>
      </trkpt>
      <trkpt lat="43.59646" lon="3.06555">
        <ele>453.8</ele>
        <time>2017-06-18T08:35:16Z</time>
      </trkpt>
      <trkpt lat="43.59651" lon="3.06565">
        <ele>452.3</ele>
        <time>2017-06-18T08:35:20Z</time>
      </trkpt>
      <trkpt lat="43.59654" lon="3.06577">
        <ele>450.8</ele>
        <time>2017-06-18T08:35:23Z</time>
      </trkpt>
      <trkpt lat="43.59653" lon="3.06578">
        <ele>446.6</ele>
        <time>2017-06-18T08:35:30Z</time>
      </trkpt>
      <trkpt lat="43.59659" lon="3.06575">
        <ele>444.1</ele>
        <time>2017-06-18T08:35:39Z</time>
      </trkpt>
      <trkpt lat="43.5965" lon="3.0658">
        <ele>439.3</ele>
        <time>2017-06-18T08:36:03Z</time>
      </trkpt>
      <trkpt lat="43.59646" lon="3.0659">
        <ele>437.6</ele>
        <time>2017-06-18T08:36:07Z</time>
      </trkpt>
      <trkpt lat="43.59647" lon="3.06604">
        <ele>432.1</ele>
        <time>2017-06-18T08:36:10Z</time>
      </trkpt>
      <trkpt lat="43.59651" lon="3.06619">
        <ele>424.6</ele>
        <time>2017-06-18T08:36:12Z</time>
      </trkpt>
      <trkpt lat="43.59657" lon="3.0663">
        <ele>418.8</ele>
        <time>2017-06-18T08:36:14Z</time>
      </trkpt>
      <trkpt lat="43.5966" lon="3.06638">
        <ele>418</ele>
        <time>2017-06-18T08:36:21Z</time>
      </trkpt>
      <trkpt lat="43.59657" lon="3.06643">
        <ele>418.2</ele>
        <time>2017-06-18T08:36:38Z</time>
      </trkpt>
      <trkpt lat="43.59652" lon="3.0665">
        <ele>418.5</ele>
        <time>2017-06-18T08:36:42Z</time>
      </trkpt>
      <trkpt lat="43.59643" lon="3.06657">
        <ele>418.4</ele>
        <time>2017-06-18T08:36:46Z</time>
      </trkpt>
      <trkpt lat="43.59636" lon="3.06662">
        <ele>418.4</ele>
        <time>2017-06-18T08:36:49Z</time>
      </trkpt>
      <trkpt lat="43.59626" lon="3.06666">
        <ele>418.4</ele>
        <time>2017-06-18T08:36:53Z</time>
      </trkpt>
      <trkpt lat="43.59618" lon="3.06667">
        <ele>418.5</ele>
        <time>2017-06-18T08:36:57Z</time>
      </trkpt>
      <trkpt lat="43.59611" lon="3.0667">
        <ele>418.8</ele>
        <time>2017-06-18T08:37:00Z</time>
      </trkpt>
      <trkpt lat="43.59603" lon="3.06675">
        <ele>418.9</ele>
        <time>2017-06-18T08:37:04Z</time>
      </trkpt>
      <trkpt lat="43.59596" lon="3.06681">
        <ele>418.9</ele>
        <time>2017-06-18T08:37:07Z</time>
      </trkpt>
      <trkpt lat="43.59588" lon="3.06685">
        <ele>419.2</ele>
        <time>2017-06-18T08:37:10Z</time>
      </trkpt>
      <trkpt lat="43.59582" lon="3.0669">
        <ele>419.3</ele>
        <time>2017-06-18T08:37:13Z</time>
      </trkpt>
      <trkpt lat="43.59575" lon="3.06695">
        <ele>419.5</ele>
        <time>2017-06-18T08:37:16Z</time>
      </trkpt>
      <trkpt lat="43.59567" lon="3.06699">
        <ele>419.8</ele>
        <time>2017-06-18T08:37:19Z</time>
      </trkpt>
      <trkpt lat="43.59559" lon="3.06703">
        <ele>420</ele>
        <time>2017-06-18T08:37:23Z</time>
      </trkpt>
      <trkpt lat="43.59552" lon="3.06708">
        <ele>420.3</ele>
        <time>2017-06-18T08:37:26Z</time>
      </trkpt>
      <trkpt lat="43.59544" lon="3.06715">
        <ele>420.6</ele>
        <time>2017-06-18T08:37:30Z</time>
      </trkpt>
      <trkpt lat="43.59537" lon="3.0672">
        <ele>420.9</ele>
        <time>2017-06-18T08:37:33Z</time>
      </trkpt>
      <trkpt lat="43.59528" lon="3.06727">
        <ele>421.2</ele>
        <time>2017-06-18T08:37:36Z</time>
      </trkpt>
      <trkpt lat="43.59526" lon="3.06739">
        <ele>421.3</ele>
        <time>2017-06-18T08:37:40Z</time>
      </trkpt>
      <trkpt lat="43.59528" lon="3.06751">
        <ele>421.3</ele>
        <time>2017-06-18T08:37:45Z</time>
      </trkpt>
      <trkpt lat="43.59534" lon="3.06759">
        <ele>421.6</ele>
        <time>2017-06-18T08:37:50Z</time>
      </trkpt>
      <trkpt lat="43.5954" lon="3.06765">
        <ele>421.7</ele>
        <time>2017-06-18T08:37:53Z</time>
      </trkpt>
      <trkpt lat="43.59548" lon="3.06771">
        <ele>421.8</ele>
        <time>2017-06-18T08:37:56Z</time>
      </trkpt>
      <trkpt lat="43.59555" lon="3.06774">
        <ele>421.9</ele>
        <time>2017-06-18T08:37:59Z</time>
      </trkpt>
      <trkpt lat="43.59563" lon="3.06776">
        <ele>422.2</ele>
        <time>2017-06-18T08:38:03Z</time>
      </trkpt>
      <trkpt lat="43.59571" lon="3.06777">
        <ele>423</ele>
        <time>2017-06-18T08:38:08Z</time>
      </trkpt>
      <trkpt lat="43.59581" lon="3.06776">
        <ele>423.6</ele>
        <time>2017-06-18T08:38:12Z</time>
      </trkpt>
      <trkpt lat="43.59588" lon="3.06775">
        <ele>424.1</ele>
        <time>2017-06-18T08:38:15Z</time>
      </trkpt>
      <trkpt lat="43.59597" lon="3.06771">
        <ele>424.8</ele>
        <time>2017-06-18T08:38:19Z</time>
      </trkpt>
      <trkpt lat="43.59605" lon="3.0677">
        <ele>425.7</ele>
        <time>2017-06-18T08:38:23Z</time>
      </trkpt>
      <trkpt lat="43.59607" lon="3.0678">
        <ele>426.4</ele>
        <time>2017-06-18T08:38:28Z</time>
      </trkpt>
      <trkpt lat="43.59611" lon="3.06789">
        <ele>427.6</ele>
        <time>2017-06-18T08:38:33Z</time>
      </trkpt>
      <trkpt lat="43.59619" lon="3.06795">
        <ele>428.5</ele>
        <time>2017-06-18T08:38:38Z</time>
      </trkpt>
      <trkpt lat="43.59628" lon="3.06799">
        <ele>429.2</ele>
        <time>2017-06-18T08:38:42Z</time>
      </trkpt>
      <trkpt lat="43.59635" lon="3.06804">
        <ele>429.7</ele>
        <time>2017-06-18T08:38:46Z</time>
      </trkpt>
      <trkpt lat="43.59643" lon="3.06806">
        <ele>430.5</ele>
        <time>2017-06-18T08:38:52Z</time>
      </trkpt>
      <trkpt lat="43.5965" lon="3.06808">
        <ele>431.4</ele>
        <time>2017-06-18T08:38:57Z</time>
      </trkpt>
      <trkpt lat="43.59658" lon="3.06808">
        <ele>432.6</ele>
        <time>2017-06-18T08:39:03Z</time>
      </trkpt>
      <trkpt lat="43.59667" lon="3.06812">
        <ele>433</ele>
        <time>2017-06-18T08:39:10Z</time>
      </trkpt>
      <trkpt lat="43.59669" lon="3.06812">
        <ele>433.2</ele>
        <time>2017-06-18T08:39:17Z</time>
      </trkpt>
      <trkpt lat="43.59671" lon="3.06811">
        <ele>433.8</ele>
        <time>2017-06-18T08:39:42Z</time>
      </trkpt>
      <trkpt lat="43.59668" lon="3.06813">
        <ele>433.9</ele>
        <time>2017-06-18T08:39:49Z</time>
      </trkpt>
      <trkpt lat="43.5967" lon="3.06813">
        <ele>434</ele>
        <time>2017-06-18T08:39:56Z</time>
      </trkpt>
      <trkpt lat="43.59676" lon="3.06818">
        <ele>433</ele>
        <time>2017-06-18T08:40:10Z</time>
      </trkpt>
      <trkpt lat="43.59677" lon="3.06832">
        <ele>432</ele>
        <time>2017-06-18T08:40:17Z</time>
      </trkpt>
      <trkpt lat="43.59673" lon="3.06845">
        <ele>430.7</ele>
        <time>2017-06-18T08:40:19Z</time>
      </trkpt>
      <trkpt lat="43.59669" lon="3.06856">
        <ele>430.4</ele>
        <time>2017-06-18T08:40:21Z</time>
      </trkpt>
      <trkpt lat="43.5967" lon="3.06868">
        <ele>429.6</ele>
        <time>2017-06-18T08:40:27Z</time>
      </trkpt>
      <trkpt lat="43.59674" lon="3.06877">
        <ele>429.4</ele>
        <time>2017-06-18T08:40:29Z</time>
      </trkpt>
      <trkpt lat="43.59678" lon="3.06885">
        <ele>429.2</ele>
        <time>2017-06-18T08:40:31Z</time>
      </trkpt>
      <trkpt lat="43.59682" lon="3.06896">
        <ele>428.9</ele>
        <time>2017-06-18T08:40:33Z</time>
      </trkpt>
      <trkpt lat="43.59689" lon="3.06904">
        <ele>428.9</ele>
        <time>2017-06-18T08:40:36Z</time>
      </trkpt>
      <trkpt lat="43.59693" lon="3.06914">
        <ele>428.8</ele>
        <time>2017-06-18T08:40:40Z</time>
      </trkpt>
      <trkpt lat="43.59693" lon="3.06925">
        <ele>428.8</ele>
        <time>2017-06-18T08:40:42Z</time>
      </trkpt>
      <trkpt lat="43.59694" lon="3.0694">
        <ele>427.3</ele>
        <time>2017-06-18T08:40:44Z</time>
      </trkpt>
      <trkpt lat="43.59693" lon="3.06957">
        <ele>426.5</ele>
        <time>2017-06-18T08:40:46Z</time>
      </trkpt>
      <trkpt lat="43.5969" lon="3.06966">
        <ele>426.3</ele>
        <time>2017-06-18T08:40:49Z</time>
      </trkpt>
      <trkpt lat="43.59685" lon="3.06975">
        <ele>426.1</ele>
        <time>2017-06-18T08:40:51Z</time>
      </trkpt>
      <trkpt lat="43.5968" lon="3.06989">
        <ele>423.7</ele>
        <time>2017-06-18T08:40:54Z</time>
      </trkpt>
      <trkpt lat="43.59681" lon="3.07">
        <ele>423.4</ele>
        <time>2017-06-18T08:40:57Z</time>
      </trkpt>
      <trkpt lat="43.5968" lon="3.0701">
        <ele>422.9</ele>
        <time>2017-06-18T08:41:00Z</time>
      </trkpt>
      <trkpt lat="43.59674" lon="3.07021">
        <ele>422.2</ele>
        <time>2017-06-18T08:41:04Z</time>
      </trkpt>
      <trkpt lat="43.59669" lon="3.07031">
        <ele>421.8</ele>
        <time>2017-06-18T08:41:06Z</time>
      </trkpt>
      <trkpt lat="43.59661" lon="3.07039">
        <ele>419.2</ele>
        <time>2017-06-18T08:41:09Z</time>
      </trkpt>
      <trkpt lat="43.59657" lon="3.07052">
        <ele>418.5</ele>
        <time>2017-06-18T08:41:12Z</time>
      </trkpt>
      <trkpt lat="43.59647" lon="3.07062">
        <ele>417.9</ele>
        <time>2017-06-18T08:41:15Z</time>
      </trkpt>
      <trkpt lat="43.59639" lon="3.07072">
        <ele>417.1</ele>
        <time>2017-06-18T08:41:18Z</time>
      </trkpt>
      <trkpt lat="43.59639" lon="3.07082">
        <ele>416.2</ele>
        <time>2017-06-18T08:41:21Z</time>
      </trkpt>
      <trkpt lat="43.5964" lon="3.07093">
        <ele>415.6</ele>
        <time>2017-06-18T08:41:23Z</time>
      </trkpt>
      <trkpt lat="43.59638" lon="3.07109">
        <ele>410</ele>
        <time>2017-06-18T08:41:25Z</time>
      </trkpt>
      <trkpt lat="43.59636" lon="3.07122">
        <ele>407.4</ele>
        <time>2017-06-18T08:41:27Z</time>
      </trkpt>
      <trkpt lat="43.59634" lon="3.07132">
        <ele>407.2</ele>
        <time>2017-06-18T08:41:29Z</time>
      </trkpt>
      <trkpt lat="43.59628" lon="3.07138">
        <ele>406.7</ele>
        <time>2017-06-18T08:41:32Z</time>
      </trkpt>
      <trkpt lat="43.59621" lon="3.07144">
        <ele>404.2</ele>
        <time>2017-06-18T08:41:34Z</time>
      </trkpt>
      <trkpt lat="43.59617" lon="3.07157">
        <ele>399.2</ele>
        <time>2017-06-18T08:41:36Z</time>
      </trkpt>
      <trkpt lat="43.59612" lon="3.07167">
        <ele>398.8</ele>
        <time>2017-06-18T08:41:38Z</time>
      </trkpt>
      <trkpt lat="43.5961" lon="3.07169">
        <ele>395.5</ele>
        <time>2017-06-18T08:41:52Z</time>
      </trkpt>
      <trkpt lat="43.59612" lon="3.07168">
        <ele>393.8</ele>
        <time>2017-06-18T08:42:06Z</time>
      </trkpt>
      <trkpt lat="43.59615" lon="3.07166">
        <ele>393.3</ele>
        <time>2017-06-18T08:42:13Z</time>
      </trkpt>
      <trkpt lat="43.59614" lon="3.07167">
        <ele>392.8</ele>
        <time>2017-06-18T08:42:30Z</time>
      </trkpt>
      <trkpt lat="43.59617" lon="3.07168">
        <ele>391</ele>
        <time>2017-06-18T08:42:10Z</time>
      </trkpt>
      <trkpt lat="43.59617" lon="3.07167">
        <ele>390.8</ele>
        <time>2017-06-18T08:43:22Z</time>
      </trkpt>
      <trkpt lat="43.59622" lon="3.07163">
        <ele>390.7</ele>
        <time>2017-06-18T08:43:29Z</time>
      </trkpt>
      <trkpt lat="43.59619" lon="3.07165">
        <ele>390.5</ele>
        <time>2017-06-18T08:43:45Z</time>
      </trkpt>
      <trkpt lat="43.5962" lon="3.07177">
        <ele>390.7</ele>
        <time>2017-06-18T08:43:49Z</time>
      </trkpt>
      <trkpt lat="43.59626" lon="3.07183">
        <ele>390.1</ele>
        <time>2017-06-18T08:43:51Z</time>
      </trkpt>
      <trkpt lat="43.59632" lon="3.0719">
        <ele>389.1</ele>
        <time>2017-06-18T08:43:53Z</time>
      </trkpt>
      <trkpt lat="43.59633" lon="3.07202">
        <ele>388.6</ele>
        <time>2017-06-18T08:43:57Z</time>
      </trkpt>
      <trkpt lat="43.59634" lon="3.07215">
        <ele>388.2</ele>
        <time>2017-06-18T08:44:00Z</time>
      </trkpt>
      <trkpt lat="43.59628" lon="3.07224">
        <ele>387.3</ele>
        <time>2017-06-18T08:44:05Z</time>
      </trkpt>
      <trkpt lat="43.59619" lon="3.07231">
        <ele>386.8</ele>
        <time>2017-06-18T08:44:08Z</time>
      </trkpt>
      <trkpt lat="43.59617" lon="3.07234">
        <ele>386</ele>
        <time>2017-06-18T08:44:15Z</time>
      </trkpt>
      <trkpt lat="43.59621" lon="3.07234">
        <ele>385.3</ele>
        <time>2017-06-18T08:44:24Z</time>
      </trkpt>
      <trkpt lat="43.59622" lon="3.07244">
        <ele>383.4</ele>
        <time>2017-06-18T08:44:36Z</time>
      </trkpt>
      <trkpt lat="43.59631" lon="3.0725">
        <ele>382.9</ele>
        <time>2017-06-18T08:44:39Z</time>
      </trkpt>
      <trkpt lat="43.59639" lon="3.07249">
        <ele>382.4</ele>
        <time>2017-06-18T08:44:41Z</time>
      </trkpt>
      <trkpt lat="43.59647" lon="3.07254">
        <ele>381.8</ele>
        <time>2017-06-18T08:44:44Z</time>
      </trkpt>
      <trkpt lat="43.59655" lon="3.07255">
        <ele>381.3</ele>
        <time>2017-06-18T08:44:46Z</time>
      </trkpt>
      <trkpt lat="43.59664" lon="3.07259">
        <ele>380.5</ele>
        <time>2017-06-18T08:44:49Z</time>
      </trkpt>
      <trkpt lat="43.59669" lon="3.07269">
        <ele>379.6</ele>
        <time>2017-06-18T08:44:52Z</time>
      </trkpt>
      <trkpt lat="43.59677" lon="3.0727">
        <ele>378.1</ele>
        <time>2017-06-18T08:44:56Z</time>
      </trkpt>
      <trkpt lat="43.5968" lon="3.07277">
        <ele>375.4</ele>
        <time>2017-06-18T08:45:03Z</time>
      </trkpt>
      <trkpt lat="43.59675" lon="3.07293">
        <ele>370.4</ele>
        <time>2017-06-18T08:45:15Z</time>
      </trkpt>
      <trkpt lat="43.59674" lon="3.07303">
        <ele>368.8</ele>
        <time>2017-06-18T08:45:18Z</time>
      </trkpt>
      <trkpt lat="43.59667" lon="3.07308">
        <ele>367.4</ele>
        <time>2017-06-18T08:45:21Z</time>
      </trkpt>
      <trkpt lat="43.59659" lon="3.07313">
        <ele>366.1</ele>
        <time>2017-06-18T08:45:24Z</time>
      </trkpt>
      <trkpt lat="43.59652" lon="3.07315">
        <ele>364.5</ele>
        <time>2017-06-18T08:45:28Z</time>
      </trkpt>
      <trkpt lat="43.59644" lon="3.07325">
        <ele>363.7</ele>
        <time>2017-06-18T08:45:31Z</time>
      </trkpt>
      <trkpt lat="43.59637" lon="3.07327">
        <ele>362.8</ele>
        <time>2017-06-18T08:45:34Z</time>
      </trkpt>
      <trkpt lat="43.59626" lon="3.07331">
        <ele>362.1</ele>
        <time>2017-06-18T08:45:37Z</time>
      </trkpt>
      <trkpt lat="43.59619" lon="3.07336">
        <ele>361.5</ele>
        <time>2017-06-18T08:45:39Z</time>
      </trkpt>
      <trkpt lat="43.59611" lon="3.07342">
        <ele>360.7</ele>
        <time>2017-06-18T08:45:42Z</time>
      </trkpt>
      <trkpt lat="43.59605" lon="3.07348">
        <ele>360.1</ele>
        <time>2017-06-18T08:45:45Z</time>
      </trkpt>
      <trkpt lat="43.59598" lon="3.07358">
        <ele>359.6</ele>
        <time>2017-06-18T08:45:48Z</time>
      </trkpt>
      <trkpt lat="43.59593" lon="3.07368">
        <ele>358.9</ele>
        <time>2017-06-18T08:45:51Z</time>
      </trkpt>
      <trkpt lat="43.59588" lon="3.07377">
        <ele>358.3</ele>
        <time>2017-06-18T08:45:55Z</time>
      </trkpt>
      <trkpt lat="43.59584" lon="3.07386">
        <ele>357.5</ele>
        <time>2017-06-18T08:46:01Z</time>
      </trkpt>
      <trkpt lat="43.59581" lon="3.07388">
        <ele>355.8</ele>
        <time>2017-06-18T08:46:08Z</time>
      </trkpt>
      <trkpt lat="43.59583" lon="3.07391">
        <ele>354.1</ele>
        <time>2017-06-18T08:46:20Z</time>
      </trkpt>
      <trkpt lat="43.59588" lon="3.07388">
        <ele>353.7</ele>
        <time>2017-06-18T08:46:35Z</time>
      </trkpt>
      <trkpt lat="43.59587" lon="3.07401">
        <ele>354</ele>
        <time>2017-06-18T08:47:20Z</time>
      </trkpt>
      <trkpt lat="43.59586" lon="3.07414">
        <ele>353.6</ele>
        <time>2017-06-18T08:47:22Z</time>
      </trkpt>
      <trkpt lat="43.59581" lon="3.07423">
        <ele>352.5</ele>
        <time>2017-06-18T08:47:27Z</time>
      </trkpt>
      <trkpt lat="43.59573" lon="3.07424">
        <ele>350.9</ele>
        <time>2017-06-18T08:47:30Z</time>
      </trkpt>
      <trkpt lat="43.59566" lon="3.07429">
        <ele>350.5</ele>
        <time>2017-06-18T08:47:32Z</time>
      </trkpt>
      <trkpt lat="43.59562" lon="3.07438">
        <ele>349.4</ele>
        <time>2017-06-18T08:47:35Z</time>
      </trkpt>
      <trkpt lat="43.5956" lon="3.07449">
        <ele>348.5</ele>
        <time>2017-06-18T08:47:38Z</time>
      </trkpt>
      <trkpt lat="43.59556" lon="3.07457">
        <ele>346.4</ele>
        <time>2017-06-18T08:47:43Z</time>
      </trkpt>
      <trkpt lat="43.59547" lon="3.07461">
        <ele>343.2</ele>
        <time>2017-06-18T08:47:50Z</time>
      </trkpt>
      <trkpt lat="43.5954" lon="3.07455">
        <ele>341</ele>
        <time>2017-06-18T08:47:54Z</time>
      </trkpt>
      <trkpt lat="43.59533" lon="3.0745">
        <ele>339.6</ele>
        <time>2017-06-18T08:47:57Z</time>
      </trkpt>
      <trkpt lat="43.59523" lon="3.07453">
        <ele>338.4</ele>
        <time>2017-06-18T08:48:00Z</time>
      </trkpt>
      <trkpt lat="43.59515" lon="3.07454">
        <ele>337.5</ele>
        <time>2017-06-18T08:48:02Z</time>
      </trkpt>
      <trkpt lat="43.59505" lon="3.07458">
        <ele>336.7</ele>
        <time>2017-06-18T08:48:04Z</time>
      </trkpt>
      <trkpt lat="43.59495" lon="3.07465">
        <ele>331.1</ele>
        <time>2017-06-18T08:48:07Z</time>
      </trkpt>
      <trkpt lat="43.59486" lon="3.07474">
        <ele>323.6</ele>
        <time>2017-06-18T08:48:09Z</time>
      </trkpt>
      <trkpt lat="43.59479" lon="3.0748">
        <ele>322.9</ele>
        <time>2017-06-18T08:48:11Z</time>
      </trkpt>
      <trkpt lat="43.59474" lon="3.0749">
        <ele>322</ele>
        <time>2017-06-18T08:48:14Z</time>
      </trkpt>
      <trkpt lat="43.59467" lon="3.07494">
        <ele>320.9</ele>
        <time>2017-06-18T08:48:17Z</time>
      </trkpt>
      <trkpt lat="43.59463" lon="3.07503">
        <ele>319.4</ele>
        <time>2017-06-18T08:48:23Z</time>
      </trkpt>
      <trkpt lat="43.5946" lon="3.07504">
        <ele>318.8</ele>
        <time>2017-06-18T08:48:39Z</time>
      </trkpt>
      <trkpt lat="43.59471" lon="3.07507">
        <ele>317.9</ele>
        <time>2017-06-18T08:48:45Z</time>
      </trkpt>
      <trkpt lat="43.59469" lon="3.07505">
        <ele>316.1</ele>
        <time>2017-06-18T08:48:52Z</time>
      </trkpt>
      <trkpt lat="43.59462" lon="3.07501">
        <ele>314.8</ele>
        <time>2017-06-18T08:48:57Z</time>
      </trkpt>
      <trkpt lat="43.59457" lon="3.07495">
        <ele>313.2</ele>
        <time>2017-06-18T08:49:04Z</time>
      </trkpt>
      <trkpt lat="43.59453" lon="3.07489">
        <ele>311.6</ele>
        <time>2017-06-18T08:49:11Z</time>
      </trkpt>
      <trkpt lat="43.59451" lon="3.07485">
        <ele>310.9</ele>
        <time>2017-06-18T08:49:18Z</time>
      </trkpt>
      <trkpt lat="43.59447" lon="3.07484">
        <ele>310</ele>
        <time>2017-06-18T08:49:25Z</time>
      </trkpt>
      <trkpt lat="43.59441" lon="3.0748">
        <ele>309.2</ele>
        <time>2017-06-18T08:49:32Z</time>
      </trkpt>
      <trkpt lat="43.59436" lon="3.07476">
        <ele>309</ele>
        <time>2017-06-18T08:49:39Z</time>
      </trkpt>
      <trkpt lat="43.59429" lon="3.07472">
        <ele>309.3</ele>
        <time>2017-06-18T08:49:46Z</time>
      </trkpt>
      <trkpt lat="43.59422" lon="3.07468">
        <ele>309.8</ele>
        <time>2017-06-18T08:49:53Z</time>
      </trkpt>
      <trkpt lat="43.5942" lon="3.07466">
        <ele>310.1</ele>
        <time>2017-06-18T08:50:00Z</time>
      </trkpt>
      <trkpt lat="43.59416" lon="3.07468">
        <ele>310.4</ele>
        <time>2017-06-18T08:50:07Z</time>
      </trkpt>
      <trkpt lat="43.59412" lon="3.07469">
        <ele>311.4</ele>
        <time>2017-06-18T08:50:14Z</time>
      </trkpt>
      <trkpt lat="43.59406" lon="3.07474">
        <ele>313</ele>
        <time>2017-06-18T08:50:28Z</time>
      </trkpt>
      <trkpt lat="43.59398" lon="3.07476">
        <ele>315.4</ele>
        <time>2017-06-18T08:50:42Z</time>
      </trkpt>
      <trkpt lat="43.59394" lon="3.07477">
        <ele>316.8</ele>
        <time>2017-06-18T08:50:49Z</time>
      </trkpt>
      <trkpt lat="43.59393" lon="3.0748">
        <ele>318.1</ele>
        <time>2017-06-18T08:50:56Z</time>
      </trkpt>
      <trkpt lat="43.59394" lon="3.07487">
        <ele>319.3</ele>
        <time>2017-06-18T08:51:03Z</time>
      </trkpt>
      <trkpt lat="43.59395" lon="3.07494">
        <ele>320.7</ele>
        <time>2017-06-18T08:51:10Z</time>
      </trkpt>
      <trkpt lat="43.59398" lon="3.07503">
        <ele>322</ele>
        <time>2017-06-18T08:51:17Z</time>
      </trkpt>
      <trkpt lat="43.59398" lon="3.07509">
        <ele>323.3</ele>
        <time>2017-06-18T08:51:24Z</time>
      </trkpt>
      <trkpt lat="43.59401" lon="3.07519">
        <ele>325.1</ele>
        <time>2017-06-18T08:51:38Z</time>
      </trkpt>
      <trkpt lat="43.59401" lon="3.07528">
        <ele>325.7</ele>
        <time>2017-06-18T08:51:45Z</time>
      </trkpt>
      <trkpt lat="43.59402" lon="3.07533">
        <ele>326.1</ele>
        <time>2017-06-18T08:51:52Z</time>
      </trkpt>
      <trkpt lat="43.59404" lon="3.07537">
        <ele>326.9</ele>
        <time>2017-06-18T08:51:59Z</time>
      </trkpt>
      <trkpt lat="43.59405" lon="3.07545">
        <ele>328.5</ele>
        <time>2017-06-18T08:52:06Z</time>
      </trkpt>
      <trkpt lat="43.59405" lon="3.0755">
        <ele>329.9</ele>
        <time>2017-06-18T08:52:13Z</time>
      </trkpt>
      <trkpt lat="43.59399" lon="3.0755">
        <ele>331.7</ele>
        <time>2017-06-18T08:52:27Z</time>
      </trkpt>
      <trkpt lat="43.59391" lon="3.07548">
        <ele>332.8</ele>
        <time>2017-06-18T08:52:34Z</time>
      </trkpt>
      <trkpt lat="43.59383" lon="3.07548">
        <ele>333.4</ele>
        <time>2017-06-18T08:52:39Z</time>
      </trkpt>
      <trkpt lat="43.59378" lon="3.07552">
        <ele>334.5</ele>
        <time>2017-06-18T08:52:46Z</time>
      </trkpt>
      <trkpt lat="43.59372" lon="3.07552">
        <ele>335.6</ele>
        <time>2017-06-18T08:52:53Z</time>
      </trkpt>
      <trkpt lat="43.59367" lon="3.07555">
        <ele>335.6</ele>
        <time>2017-06-18T08:53:07Z</time>
      </trkpt>
      <trkpt lat="43.5937" lon="3.07561">
        <ele>336.1</ele>
        <time>2017-06-18T08:53:14Z</time>
      </trkpt>
      <trkpt lat="43.59373" lon="3.07568">
        <ele>336.6</ele>
        <time>2017-06-18T08:53:21Z</time>
      </trkpt>
      <trkpt lat="43.59374" lon="3.0757">
        <ele>337.3</ele>
        <time>2017-06-18T08:53:28Z</time>
      </trkpt>
      <trkpt lat="43.59369" lon="3.07575">
        <ele>338.1</ele>
        <time>2017-06-18T08:53:35Z</time>
      </trkpt>
      <trkpt lat="43.59369" lon="3.07576">
        <ele>339.4</ele>
        <time>2017-06-18T08:53:49Z</time>
      </trkpt>
      <trkpt lat="43.59367" lon="3.07583">
        <ele>339.7</ele>
        <time>2017-06-18T08:54:03Z</time>
      </trkpt>
      <trkpt lat="43.59366" lon="3.07596">
        <ele>340</ele>
        <time>2017-06-18T08:54:07Z</time>
      </trkpt>
      <trkpt lat="43.59364" lon="3.07606">
        <ele>340</ele>
        <time>2017-06-18T08:54:11Z</time>
      </trkpt>
      <trkpt lat="43.59367" lon="3.07615">
        <ele>340.2</ele>
        <time>2017-06-18T08:54:14Z</time>
      </trkpt>
      <trkpt lat="43.59374" lon="3.07623">
        <ele>340.2</ele>
        <time>2017-06-18T08:54:16Z</time>
      </trkpt>
      <trkpt lat="43.59376" lon="3.07634">
        <ele>340.2</ele>
        <time>2017-06-18T08:54:19Z</time>
      </trkpt>
      <trkpt lat="43.59374" lon="3.07643">
        <ele>338.9</ele>
        <time>2017-06-18T08:54:31Z</time>
      </trkpt>
      <trkpt lat="43.5937" lon="3.07654">
        <ele>337.2</ele>
        <time>2017-06-18T08:54:33Z</time>
      </trkpt>
      <trkpt lat="43.59363" lon="3.07665">
        <ele>334.7</ele>
        <time>2017-06-18T08:54:35Z</time>
      </trkpt>
      <trkpt lat="43.59356" lon="3.07677">
        <ele>333.7</ele>
        <time>2017-06-18T08:54:37Z</time>
      </trkpt>
      <trkpt lat="43.59356" lon="3.07689">
        <ele>333.7</ele>
        <time>2017-06-18T08:54:40Z</time>
      </trkpt>
      <trkpt lat="43.59367" lon="3.0769">
        <ele>333.7</ele>
        <time>2017-06-18T08:54:43Z</time>
      </trkpt>
      <trkpt lat="43.59377" lon="3.07698">
        <ele>334.1</ele>
        <time>2017-06-18T08:54:44Z</time>
      </trkpt>
      <trkpt lat="43.59384" lon="3.07703">
        <ele>332.6</ele>
        <time>2017-06-18T08:54:46Z</time>
      </trkpt>
      <trkpt lat="43.59393" lon="3.07708">
        <ele>330.5</ele>
        <time>2017-06-18T08:54:48Z</time>
      </trkpt>
      <trkpt lat="43.59403" lon="3.07718">
        <ele>329.1</ele>
        <time>2017-06-18T08:54:50Z</time>
      </trkpt>
      <trkpt lat="43.59412" lon="3.07728">
        <ele>327.2</ele>
        <time>2017-06-18T08:54:52Z</time>
      </trkpt>
      <trkpt lat="43.59418" lon="3.07739">
        <ele>325.8</ele>
        <time>2017-06-18T08:54:54Z</time>
      </trkpt>
      <trkpt lat="43.59422" lon="3.07747">
        <ele>325.1</ele>
        <time>2017-06-18T08:54:56Z</time>
      </trkpt>
      <trkpt lat="43.59433" lon="3.07752">
        <ele>325</ele>
        <time>2017-06-18T08:54:59Z</time>
      </trkpt>
      <trkpt lat="43.59441" lon="3.07753">
        <ele>324.8</ele>
        <time>2017-06-18T08:55:01Z</time>
      </trkpt>
      <trkpt lat="43.5945" lon="3.07752">
        <ele>324.1</ele>
        <time>2017-06-18T08:55:08Z</time>
      </trkpt>
      <trkpt lat="43.59453" lon="3.07762">
        <ele>323.5</ele>
        <time>2017-06-18T08:55:10Z</time>
      </trkpt>
      <trkpt lat="43.59456" lon="3.07773">
        <ele>322.8</ele>
        <time>2017-06-18T08:55:12Z</time>
      </trkpt>
      <trkpt lat="43.59452" lon="3.07782">
        <ele>322.2</ele>
        <time>2017-06-18T08:55:14Z</time>
      </trkpt>
      <trkpt lat="43.59446" lon="3.07789">
        <ele>321.8</ele>
        <time>2017-06-18T08:55:16Z</time>
      </trkpt>
      <trkpt lat="43.59439" lon="3.07794">
        <ele>319.2</ele>
        <time>2017-06-18T08:55:18Z</time>
      </trkpt>
      <trkpt lat="43.59431" lon="3.07801">
        <ele>318.9</ele>
        <time>2017-06-18T08:55:20Z</time>
      </trkpt>
      <trkpt lat="43.59424" lon="3.07808">
        <ele>318.5</ele>
        <time>2017-06-18T08:55:22Z</time>
      </trkpt>
      <trkpt lat="43.59419" lon="3.07819">
        <ele>317.9</ele>
        <time>2017-06-18T08:55:24Z</time>
      </trkpt>
      <trkpt lat="43.59412" lon="3.07824">
        <ele>316.8</ele>
        <time>2017-06-18T08:55:28Z</time>
      </trkpt>
      <trkpt lat="43.59405" lon="3.07819">
        <ele>315</ele>
        <time>2017-06-18T08:55:35Z</time>
      </trkpt>
      <trkpt lat="43.59402" lon="3.07815">
        <ele>314.2</ele>
        <time>2017-06-18T08:55:41Z</time>
      </trkpt>
      <trkpt lat="43.59398" lon="3.07812">
        <ele>314.2</ele>
        <time>2017-06-18T08:55:48Z</time>
      </trkpt>
      <trkpt lat="43.59394" lon="3.07806">
        <ele>311.1</ele>
        <time>2017-06-18T08:56:14Z</time>
      </trkpt>
      <trkpt lat="43.59389" lon="3.07801">
        <ele>309.1</ele>
        <time>2017-06-18T08:56:21Z</time>
      </trkpt>
      <trkpt lat="43.59385" lon="3.07795">
        <ele>307.7</ele>
        <time>2017-06-18T08:56:29Z</time>
      </trkpt>
      <trkpt lat="43.59383" lon="3.07789">
        <ele>306.9</ele>
        <time>2017-06-18T08:56:35Z</time>
      </trkpt>
      <trkpt lat="43.59383" lon="3.07785">
        <ele>307.2</ele>
        <time>2017-06-18T08:56:42Z</time>
      </trkpt>
      <trkpt lat="43.59382" lon="3.0778">
        <ele>307.8</ele>
        <time>2017-06-18T08:56:49Z</time>
      </trkpt>
      <trkpt lat="43.59375" lon="3.07773">
        <ele>307.7</ele>
        <time>2017-06-18T08:56:56Z</time>
      </trkpt>
      <trkpt lat="43.5937" lon="3.07765">
        <ele>307.7</ele>
        <time>2017-06-18T08:57:00Z</time>
      </trkpt>
      <trkpt lat="43.59364" lon="3.07759">
        <ele>308.1</ele>
        <time>2017-06-18T08:57:06Z</time>
      </trkpt>
      <trkpt lat="43.59356" lon="3.07754">
        <ele>308.8</ele>
        <time>2017-06-18T08:57:11Z</time>
      </trkpt>
      <trkpt lat="43.59348" lon="3.07751">
        <ele>309.4</ele>
        <time>2017-06-18T08:57:15Z</time>
      </trkpt>
      <trkpt lat="43.5934" lon="3.07745">
        <ele>309.9</ele>
        <time>2017-06-18T08:57:20Z</time>
      </trkpt>
      <trkpt lat="43.59331" lon="3.07743">
        <ele>311.5</ele>
        <time>2017-06-18T08:57:27Z</time>
      </trkpt>
      <trkpt lat="43.59322" lon="3.0774">
        <ele>312.4</ele>
        <time>2017-06-18T08:57:32Z</time>
      </trkpt>
      <trkpt lat="43.59313" lon="3.07742">
        <ele>313.5</ele>
        <time>2017-06-18T08:57:36Z</time>
      </trkpt>
      <trkpt lat="43.59306" lon="3.07747">
        <ele>314.6</ele>
        <time>2017-06-18T08:57:40Z</time>
      </trkpt>
      <trkpt lat="43.59298" lon="3.07752">
        <ele>315.3</ele>
        <time>2017-06-18T08:57:46Z</time>
      </trkpt>
      <trkpt lat="43.59291" lon="3.07752">
        <ele>316.1</ele>
        <time>2017-06-18T08:57:52Z</time>
      </trkpt>
      <trkpt lat="43.59282" lon="3.07752">
        <ele>316.7</ele>
        <time>2017-06-18T08:57:57Z</time>
      </trkpt>
      <trkpt lat="43.59273" lon="3.07752">
        <ele>317.4</ele>
        <time>2017-06-18T08:58:02Z</time>
      </trkpt>
      <trkpt lat="43.59264" lon="3.07751">
        <ele>317.9</ele>
        <time>2017-06-18T08:58:06Z</time>
      </trkpt>
      <trkpt lat="43.59256" lon="3.07747">
        <ele>318.3</ele>
        <time>2017-06-18T08:58:10Z</time>
      </trkpt>
      <trkpt lat="43.59246" lon="3.07745">
        <ele>319</ele>
        <time>2017-06-18T08:58:16Z</time>
      </trkpt>
      <trkpt lat="43.59238" lon="3.07747">
        <ele>318.9</ele>
        <time>2017-06-18T08:58:21Z</time>
      </trkpt>
      <trkpt lat="43.59231" lon="3.07745">
        <ele>319</ele>
        <time>2017-06-18T08:58:28Z</time>
      </trkpt>
      <trkpt lat="43.59223" lon="3.07747">
        <ele>319.9</ele>
        <time>2017-06-18T08:58:35Z</time>
      </trkpt>
      <trkpt lat="43.59217" lon="3.07746">
        <ele>320.6</ele>
        <time>2017-06-18T08:58:42Z</time>
      </trkpt>
      <trkpt lat="43.59208" lon="3.07744">
        <ele>321.6</ele>
        <time>2017-06-18T08:58:46Z</time>
      </trkpt>
      <trkpt lat="43.59201" lon="3.07744">
        <ele>322.9</ele>
        <time>2017-06-18T08:58:51Z</time>
      </trkpt>
      <trkpt lat="43.59192" lon="3.07745">
        <ele>324.1</ele>
        <time>2017-06-18T08:58:55Z</time>
      </trkpt>
      <trkpt lat="43.59185" lon="3.07746">
        <ele>325.6</ele>
        <time>2017-06-18T08:59:00Z</time>
      </trkpt>
      <trkpt lat="43.59177" lon="3.07746">
        <ele>326.8</ele>
        <time>2017-06-18T08:59:06Z</time>
      </trkpt>
      <trkpt lat="43.59162" lon="3.07744">
        <ele>329.2</ele>
        <time>2017-06-18T08:59:18Z</time>
      </trkpt>
      <trkpt lat="43.59153" lon="3.07746">
        <ele>330.4</ele>
        <time>2017-06-18T08:59:22Z</time>
      </trkpt>
      <trkpt lat="43.59145" lon="3.07746">
        <ele>332.1</ele>
        <time>2017-06-18T08:59:27Z</time>
      </trkpt>
      <trkpt lat="43.59137" lon="3.07746">
        <ele>333.2</ele>
        <time>2017-06-18T08:59:32Z</time>
      </trkpt>
      <trkpt lat="43.5913" lon="3.07747">
        <ele>334.4</ele>
        <time>2017-06-18T08:59:38Z</time>
      </trkpt>
      <trkpt lat="43.59123" lon="3.07745">
        <ele>335.1</ele>
        <time>2017-06-18T08:59:42Z</time>
      </trkpt>
      <trkpt lat="43.59117" lon="3.07741">
        <ele>335.7</ele>
        <time>2017-06-18T08:59:49Z</time>
      </trkpt>
      <trkpt lat="43.59113" lon="3.07738">
        <ele>336.8</ele>
        <time>2017-06-18T08:59:56Z</time>
      </trkpt>
      <trkpt lat="43.59107" lon="3.07732">
        <ele>337.6</ele>
        <time>2017-06-18T09:00:02Z</time>
      </trkpt>
      <trkpt lat="43.59101" lon="3.07723">
        <ele>337.9</ele>
        <time>2017-06-18T09:00:05Z</time>
      </trkpt>
      <trkpt lat="43.59094" lon="3.07712">
        <ele>340.5</ele>
        <time>2017-06-18T09:00:07Z</time>
      </trkpt>
      <trkpt lat="43.5909" lon="3.07704">
        <ele>341.1</ele>
        <time>2017-06-18T09:00:08Z</time>
      </trkpt>
      <trkpt lat="43.59084" lon="3.07694">
        <ele>340.4</ele>
        <time>2017-06-18T09:00:09Z</time>
      </trkpt>
      <trkpt lat="43.59077" lon="3.07686">
        <ele>339.5</ele>
        <time>2017-06-18T09:00:10Z</time>
      </trkpt>
      <trkpt lat="43.59071" lon="3.07675">
        <ele>339.3</ele>
        <time>2017-06-18T09:00:12Z</time>
      </trkpt>
      <trkpt lat="43.59064" lon="3.07663">
        <ele>339</ele>
        <time>2017-06-18T09:00:14Z</time>
      </trkpt>
      <trkpt lat="43.59063" lon="3.07651">
        <ele>337.9</ele>
        <time>2017-06-18T09:00:19Z</time>
      </trkpt>
      <trkpt lat="43.59065" lon="3.07641">
        <ele>337.1</ele>
        <time>2017-06-18T09:00:24Z</time>
      </trkpt>
      <trkpt lat="43.59068" lon="3.07631">
        <ele>336</ele>
        <time>2017-06-18T09:00:30Z</time>
      </trkpt>
      <trkpt lat="43.59071" lon="3.07622">
        <ele>335.1</ele>
        <time>2017-06-18T09:00:35Z</time>
      </trkpt>
      <trkpt lat="43.59073" lon="3.07614">
        <ele>334.1</ele>
        <time>2017-06-18T09:00:42Z</time>
      </trkpt>
      <trkpt lat="43.59073" lon="3.07602">
        <ele>333.4</ele>
        <time>2017-06-18T09:00:48Z</time>
      </trkpt>
      <trkpt lat="43.59072" lon="3.07591">
        <ele>332.9</ele>
        <time>2017-06-18T09:00:51Z</time>
      </trkpt>
      <trkpt lat="43.59069" lon="3.07581">
        <ele>332.2</ele>
        <time>2017-06-18T09:00:54Z</time>
      </trkpt>
      <trkpt lat="43.59063" lon="3.07572">
        <ele>331.4</ele>
        <time>2017-06-18T09:00:57Z</time>
      </trkpt>
      <trkpt lat="43.59063" lon="3.0756">
        <ele>329.7</ele>
        <time>2017-06-18T09:01:02Z</time>
      </trkpt>
      <trkpt lat="43.59066" lon="3.07548">
        <ele>328.5</ele>
        <time>2017-06-18T09:01:05Z</time>
      </trkpt>
      <trkpt lat="43.59068" lon="3.07537">
        <ele>327.1</ele>
        <time>2017-06-18T09:01:08Z</time>
      </trkpt>
      <trkpt lat="43.59057" lon="3.07537">
        <ele>324.9</ele>
        <time>2017-06-18T09:01:13Z</time>
      </trkpt>
      <trkpt lat="43.59048" lon="3.07537">
        <ele>323.8</ele>
        <time>2017-06-18T09:01:16Z</time>
      </trkpt>
      <trkpt lat="43.59047" lon="3.07538">
        <ele>322.5</ele>
        <time>2017-06-18T09:01:23Z</time>
      </trkpt>
      <trkpt lat="43.59039" lon="3.07544">
        <ele>320.3</ele>
        <time>2017-06-18T09:01:30Z</time>
      </trkpt>
      <trkpt lat="43.59028" lon="3.07549">
        <ele>319</ele>
        <time>2017-06-18T09:01:33Z</time>
      </trkpt>
      <trkpt lat="43.59022" lon="3.07556">
        <ele>310.6</ele>
        <time>2017-06-18T09:01:35Z</time>
      </trkpt>
      <trkpt lat="43.59014" lon="3.07564">
        <ele>305.1</ele>
        <time>2017-06-18T09:01:37Z</time>
      </trkpt>
      <trkpt lat="43.59006" lon="3.07573">
        <ele>301.5</ele>
        <time>2017-06-18T09:01:39Z</time>
      </trkpt>
      <trkpt lat="43.59001" lon="3.07582">
        <ele>300</ele>
        <time>2017-06-18T09:01:41Z</time>
      </trkpt>
      <trkpt lat="43.58993" lon="3.07589">
        <ele>299.2</ele>
        <time>2017-06-18T09:01:44Z</time>
      </trkpt>
      <trkpt lat="43.58985" lon="3.07596">
        <ele>298</ele>
        <time>2017-06-18T09:01:46Z</time>
      </trkpt>
      <trkpt lat="43.58973" lon="3.076">
        <ele>296.8</ele>
        <time>2017-06-18T09:01:48Z</time>
      </trkpt>
      <trkpt lat="43.58965" lon="3.07604">
        <ele>296.4</ele>
        <time>2017-06-18T09:01:50Z</time>
      </trkpt>
      <trkpt lat="43.58956" lon="3.07607">
        <ele>296.6</ele>
        <time>2017-06-18T09:01:52Z</time>
      </trkpt>
      <trkpt lat="43.58951" lon="3.076">
        <ele>296.8</ele>
        <time>2017-06-18T09:01:58Z</time>
      </trkpt>
      <trkpt lat="43.58947" lon="3.07595">
        <ele>294.7</ele>
        <time>2017-06-18T09:02:22Z</time>
      </trkpt>
      <trkpt lat="43.58955" lon="3.07584">
        <ele>294.3</ele>
        <time>2017-06-18T09:02:28Z</time>
      </trkpt>
      <trkpt lat="43.5895" lon="3.07575">
        <ele>292.2</ele>
        <time>2017-06-18T09:02:33Z</time>
      </trkpt>
      <trkpt lat="43.58941" lon="3.07575">
        <ele>290.3</ele>
        <time>2017-06-18T09:02:35Z</time>
      </trkpt>
      <trkpt lat="43.5893" lon="3.07575">
        <ele>288.9</ele>
        <time>2017-06-18T09:02:37Z</time>
      </trkpt>
      <trkpt lat="43.58918" lon="3.07578">
        <ele>288.4</ele>
        <time>2017-06-18T09:02:39Z</time>
      </trkpt>
      <trkpt lat="43.58909" lon="3.07579">
        <ele>288.1</ele>
        <time>2017-06-18T09:02:41Z</time>
      </trkpt>
      <trkpt lat="43.58903" lon="3.07571">
        <ele>288.5</ele>
        <time>2017-06-18T09:02:44Z</time>
      </trkpt>
      <trkpt lat="43.58909" lon="3.07559">
        <ele>287.9</ele>
        <time>2017-06-18T09:02:46Z</time>
      </trkpt>
      <trkpt lat="43.58915" lon="3.07549">
        <ele>287.2</ele>
        <time>2017-06-18T09:02:48Z</time>
      </trkpt>
      <trkpt lat="43.58922" lon="3.07542">
        <ele>285.6</ele>
        <time>2017-06-18T09:02:50Z</time>
      </trkpt>
      <trkpt lat="43.58926" lon="3.07532">
        <ele>285.3</ele>
        <time>2017-06-18T09:02:53Z</time>
      </trkpt>
      <trkpt lat="43.58916" lon="3.0753">
        <ele>284.8</ele>
        <time>2017-06-18T09:02:57Z</time>
      </trkpt>
      <trkpt lat="43.58905" lon="3.07531">
        <ele>280.8</ele>
        <time>2017-06-18T09:02:59Z</time>
      </trkpt>
      <trkpt lat="43.58894" lon="3.0753">
        <ele>276.4</ele>
        <time>2017-06-18T09:03:01Z</time>
      </trkpt>
      <trkpt lat="43.58882" lon="3.07531">
        <ele>273</ele>
        <time>2017-06-18T09:03:03Z</time>
      </trkpt>
      <trkpt lat="43.5887" lon="3.07539">
        <ele>270.1</ele>
        <time>2017-06-18T09:03:05Z</time>
      </trkpt>
      <trkpt lat="43.58863" lon="3.07544">
        <ele>268.9</ele>
        <time>2017-06-18T09:03:07Z</time>
      </trkpt>
      <trkpt lat="43.58858" lon="3.07547">
        <ele>268.3</ele>
        <time>2017-06-18T09:03:14Z</time>
      </trkpt>
      <trkpt lat="43.58856" lon="3.07549">
        <ele>267.7</ele>
        <time>2017-06-18T09:03:21Z</time>
      </trkpt>
      <trkpt lat="43.58859" lon="3.07549">
        <ele>265.6</ele>
        <time>2017-06-18T09:03:46Z</time>
      </trkpt>
      <trkpt lat="43.58861" lon="3.07546">
        <ele>263</ele>
        <time>2017-06-18T09:03:53Z</time>
      </trkpt>
      <trkpt lat="43.58855" lon="3.07556">
        <ele>262.3</ele>
        <time>2017-06-18T09:04:16Z</time>
      </trkpt>
      <trkpt lat="43.58857" lon="3.07567">
        <ele>262.1</ele>
        <time>2017-06-18T09:04:18Z</time>
      </trkpt>
      <trkpt lat="43.58857" lon="3.0758">
        <ele>261.2</ele>
        <time>2017-06-18T09:04:20Z</time>
      </trkpt>
      <trkpt lat="43.58856" lon="3.07595">
        <ele>260.7</ele>
        <time>2017-06-18T09:04:22Z</time>
      </trkpt>
      <trkpt lat="43.58852" lon="3.07609">
        <ele>261.1</ele>
        <time>2017-06-18T09:04:25Z</time>
      </trkpt>
      <trkpt lat="43.58846" lon="3.07624">
        <ele>260.8</ele>
        <time>2017-06-18T09:04:26Z</time>
      </trkpt>
      <trkpt lat="43.58842" lon="3.07641">
        <ele>260.7</ele>
        <time>2017-06-18T09:04:29Z</time>
      </trkpt>
      <trkpt lat="43.58841" lon="3.07658">
        <ele>260.1</ele>
        <time>2017-06-18T09:04:30Z</time>
      </trkpt>
      <trkpt lat="43.58845" lon="3.07671">
        <ele>258.7</ele>
        <time>2017-06-18T09:04:32Z</time>
      </trkpt>
      <trkpt lat="43.58853" lon="3.07679">
        <ele>257.5</ele>
        <time>2017-06-18T09:04:34Z</time>
      </trkpt>
      <trkpt lat="43.58859" lon="3.07688">
        <ele>257.3</ele>
        <time>2017-06-18T09:04:36Z</time>
      </trkpt>
      <trkpt lat="43.58862" lon="3.07698">
        <ele>257.2</ele>
        <time>2017-06-18T09:04:38Z</time>
      </trkpt>
      <trkpt lat="43.58858" lon="3.07708">
        <ele>257</ele>
        <time>2017-06-18T09:04:42Z</time>
      </trkpt>
      <trkpt lat="43.58851" lon="3.07719">
        <ele>256.9</ele>
        <time>2017-06-18T09:04:45Z</time>
      </trkpt>
      <trkpt lat="43.58845" lon="3.07726">
        <ele>256.8</ele>
        <time>2017-06-18T09:04:47Z</time>
      </trkpt>
      <trkpt lat="43.58838" lon="3.0773">
        <ele>256.6</ele>
        <time>2017-06-18T09:04:50Z</time>
      </trkpt>
      <trkpt lat="43.58832" lon="3.07738">
        <ele>256.3</ele>
        <time>2017-06-18T09:04:51Z</time>
      </trkpt>
      <trkpt lat="43.58829" lon="3.07751">
        <ele>255.7</ele>
        <time>2017-06-18T09:04:54Z</time>
      </trkpt>
      <trkpt lat="43.58827" lon="3.07759">
        <ele>254</ele>
        <time>2017-06-18T09:05:01Z</time>
      </trkpt>
      <trkpt lat="43.58828" lon="3.07762">
        <ele>250.9</ele>
        <time>2017-06-18T09:05:15Z</time>
      </trkpt>
      <trkpt lat="43.58827" lon="3.07759">
        <ele>250.1</ele>
        <time>2017-06-18T09:05:22Z</time>
      </trkpt>
      <trkpt lat="43.58828" lon="3.07745">
        <ele>250.2</ele>
        <time>2017-06-18T09:05:26Z</time>
      </trkpt>
      <trkpt lat="43.58829" lon="3.07735">
        <ele>250.9</ele>
        <time>2017-06-18T09:05:27Z</time>
      </trkpt>
      <trkpt lat="43.58829" lon="3.07721">
        <ele>250.9</ele>
        <time>2017-06-18T09:05:30Z</time>
      </trkpt>
      <trkpt lat="43.58829" lon="3.07708">
        <ele>250.5</ele>
        <time>2017-06-18T09:05:32Z</time>
      </trkpt>
      <trkpt lat="43.58829" lon="3.07697">
        <ele>249.7</ele>
        <time>2017-06-18T09:05:34Z</time>
      </trkpt>
      <trkpt lat="43.58829" lon="3.07684">
        <ele>249.6</ele>
        <time>2017-06-18T09:05:36Z</time>
      </trkpt>
      <trkpt lat="43.58828" lon="3.07672">
        <ele>249.6</ele>
        <time>2017-06-18T09:05:38Z</time>
      </trkpt>
      <trkpt lat="43.58828" lon="3.07655">
        <ele>249</ele>
        <time>2017-06-18T09:05:40Z</time>
      </trkpt>
      <trkpt lat="43.58827" lon="3.07641">
        <ele>248</ele>
        <time>2017-06-18T09:05:42Z</time>
      </trkpt>
      <trkpt lat="43.58826" lon="3.07627">
        <ele>246.8</ele>
        <time>2017-06-18T09:05:44Z</time>
      </trkpt>
      <trkpt lat="43.58825" lon="3.07612">
        <ele>246.1</ele>
        <time>2017-06-18T09:05:46Z</time>
      </trkpt>
      <trkpt lat="43.58824" lon="3.076">
        <ele>246.4</ele>
        <time>2017-06-18T09:05:48Z</time>
      </trkpt>
      <trkpt lat="43.58823" lon="3.07584">
        <ele>247.5</ele>
        <time>2017-06-18T09:05:50Z</time>
      </trkpt>
      <trkpt lat="43.5882" lon="3.07568">
        <ele>246.7</ele>
        <time>2017-06-18T09:05:52Z</time>
      </trkpt>
      <trkpt lat="43.58819" lon="3.07553">
        <ele>245.2</ele>
        <time>2017-06-18T09:05:54Z</time>
      </trkpt>
      <trkpt lat="43.58817" lon="3.07541">
        <ele>243.6</ele>
        <time>2017-06-18T09:05:56Z</time>
      </trkpt>
      <trkpt lat="43.58816" lon="3.07529">
        <ele>242.6</ele>
        <time>2017-06-18T09:05:58Z</time>
      </trkpt>
      <trkpt lat="43.58813" lon="3.07516">
        <ele>242.6</ele>
        <time>2017-06-18T09:06:01Z</time>
      </trkpt>
      <trkpt lat="43.58811" lon="3.07504">
        <ele>242.6</ele>
        <time>2017-06-18T09:06:04Z</time>
      </trkpt>
      <trkpt lat="43.5881" lon="3.07508">
        <ele>242.5</ele>
        <time>2017-06-18T09:06:11Z</time>
      </trkpt>
      <trkpt lat="43.58811" lon="3.07521">
        <ele>242.4</ele>
        <time>2017-06-18T09:06:14Z</time>
      </trkpt>
      <trkpt lat="43.58813" lon="3.07531">
        <ele>242.1</ele>
        <time>2017-06-18T09:06:16Z</time>
      </trkpt>
      <trkpt lat="43.58816" lon="3.07544">
        <ele>241.6</ele>
        <time>2017-06-18T09:06:18Z</time>
      </trkpt>
      <trkpt lat="43.58818" lon="3.07556">
        <ele>241</ele>
        <time>2017-06-18T09:06:20Z</time>
      </trkpt>
      <trkpt lat="43.5882" lon="3.07566">
        <ele>240.1</ele>
        <time>2017-06-18T09:06:22Z</time>
      </trkpt>
      <trkpt lat="43.58821" lon="3.07578">
        <ele>240</ele>
        <time>2017-06-18T09:06:24Z</time>
      </trkpt>
      <trkpt lat="43.58821" lon="3.07592">
        <ele>240</ele>
        <time>2017-06-18T09:06:27Z</time>
      </trkpt>
      <trkpt lat="43.58822" lon="3.07605">
        <ele>239.9</ele>
        <time>2017-06-18T09:06:30Z</time>
      </trkpt>
      <trkpt lat="43.58824" lon="3.07617">
        <ele>240</ele>
        <time>2017-06-18T09:06:32Z</time>
      </trkpt>
      <trkpt lat="43.58824" lon="3.07627">
        <ele>240.4</ele>
        <time>2017-06-18T09:06:34Z</time>
      </trkpt>
      <trkpt lat="43.58825" lon="3.07638">
        <ele>240.8</ele>
        <time>2017-06-18T09:06:36Z</time>
      </trkpt>
      <trkpt lat="43.58826" lon="3.07654">
        <ele>240.7</ele>
        <time>2017-06-18T09:06:39Z</time>
      </trkpt>
      <trkpt lat="43.58829" lon="3.07665">
        <ele>239.9</ele>
        <time>2017-06-18T09:06:41Z</time>
      </trkpt>
      <trkpt lat="43.58829" lon="3.07677">
        <ele>239.8</ele>
        <time>2017-06-18T09:06:43Z</time>
      </trkpt>
      <trkpt lat="43.58829" lon="3.07688">
        <ele>239.5</ele>
        <time>2017-06-18T09:06:45Z</time>
      </trkpt>
      <trkpt lat="43.5883" lon="3.07703">
        <ele>238.1</ele>
        <time>2017-06-18T09:06:47Z</time>
      </trkpt>
      <trkpt lat="43.5883" lon="3.07714">
        <ele>237.4</ele>
        <time>2017-06-18T09:06:49Z</time>
      </trkpt>
      <trkpt lat="43.58829" lon="3.07728">
        <ele>237.2</ele>
        <time>2017-06-18T09:06:51Z</time>
      </trkpt>
      <trkpt lat="43.58829" lon="3.07742">
        <ele>236.5</ele>
        <time>2017-06-18T09:06:53Z</time>
      </trkpt>
      <trkpt lat="43.5883" lon="3.07755">
        <ele>237.3</ele>
        <time>2017-06-18T09:06:55Z</time>
      </trkpt>
      <trkpt lat="43.5883" lon="3.07768">
        <ele>238.6</ele>
        <time>2017-06-18T09:06:58Z</time>
      </trkpt>
      <trkpt lat="43.58829" lon="3.0778">
        <ele>239.9</ele>
        <time>2017-06-18T09:06:59Z</time>
      </trkpt>
      <trkpt lat="43.58829" lon="3.07793">
        <ele>240.9</ele>
        <time>2017-06-18T09:07:01Z</time>
      </trkpt>
      <trkpt lat="43.58829" lon="3.07807">
        <ele>241.6</ele>
        <time>2017-06-18T09:07:03Z</time>
      </trkpt>
      <trkpt lat="43.58828" lon="3.0782">
        <ele>242.3</ele>
        <time>2017-06-18T09:07:05Z</time>
      </trkpt>
      <trkpt lat="43.58827" lon="3.07833">
        <ele>242.6</ele>
        <time>2017-06-18T09:07:07Z</time>
      </trkpt>
      <trkpt lat="43.58826" lon="3.07847">
        <ele>243.5</ele>
        <time>2017-06-18T09:07:09Z</time>
      </trkpt>
      <trkpt lat="43.58824" lon="3.07859">
        <ele>243.9</ele>
        <time>2017-06-18T09:07:11Z</time>
      </trkpt>
      <trkpt lat="43.58823" lon="3.0787">
        <ele>243.6</ele>
        <time>2017-06-18T09:07:13Z</time>
      </trkpt>
      <trkpt lat="43.58821" lon="3.07883">
        <ele>244.3</ele>
        <time>2017-06-18T09:07:15Z</time>
      </trkpt>
      <trkpt lat="43.58819" lon="3.07896">
        <ele>245.3</ele>
        <time>2017-06-18T09:07:17Z</time>
      </trkpt>
      <trkpt lat="43.58816" lon="3.07909">
        <ele>244.6</ele>
        <time>2017-06-18T09:07:19Z</time>
      </trkpt>
      <trkpt lat="43.58814" lon="3.07921">
        <ele>243.7</ele>
        <time>2017-06-18T09:07:21Z</time>
      </trkpt>
      <trkpt lat="43.58812" lon="3.07932">
        <ele>243.6</ele>
        <time>2017-06-18T09:07:23Z</time>
      </trkpt>
      <trkpt lat="43.58811" lon="3.07943">
        <ele>243.6</ele>
        <time>2017-06-18T09:07:25Z</time>
      </trkpt>
      <trkpt lat="43.5881" lon="3.07952">
        <ele>243.3</ele>
        <time>2017-06-18T09:07:27Z</time>
      </trkpt>
      <trkpt lat="43.58809" lon="3.07965">
        <ele>243.3</ele>
        <time>2017-06-18T09:07:30Z</time>
      </trkpt>
      <trkpt lat="43.58811" lon="3.07979">
        <ele>243.1</ele>
        <time>2017-06-18T09:07:33Z</time>
      </trkpt>
      <trkpt lat="43.58809" lon="3.07988">
        <ele>242.9</ele>
        <time>2017-06-18T09:07:35Z</time>
      </trkpt>
      <trkpt lat="43.58806" lon="3.08001">
        <ele>242.6</ele>
        <time>2017-06-18T09:07:38Z</time>
      </trkpt>
      <trkpt lat="43.58803" lon="3.08014">
        <ele>242.4</ele>
        <time>2017-06-18T09:07:41Z</time>
      </trkpt>
      <trkpt lat="43.58801" lon="3.08028">
        <ele>242.2</ele>
        <time>2017-06-18T09:07:44Z</time>
      </trkpt>
      <trkpt lat="43.58802" lon="3.08041">
        <ele>241.9</ele>
        <time>2017-06-18T09:07:47Z</time>
      </trkpt>
      <trkpt lat="43.58805" lon="3.08053">
        <ele>241.7</ele>
        <time>2017-06-18T09:07:50Z</time>
      </trkpt>
      <trkpt lat="43.58808" lon="3.08065">
        <ele>241.4</ele>
        <time>2017-06-18T09:07:53Z</time>
      </trkpt>
      <trkpt lat="43.58811" lon="3.08077">
        <ele>241.2</ele>
        <time>2017-06-18T09:07:56Z</time>
      </trkpt>
      <trkpt lat="43.58817" lon="3.08079">
        <ele>240.8</ele>
        <time>2017-06-18T09:08:03Z</time>
      </trkpt>
      <trkpt lat="43.58817" lon="3.08083">
        <ele>238.8</ele>
        <time>2017-06-18T09:08:20Z</time>
      </trkpt>
      <trkpt lat="43.58814" lon="3.08081">
        <ele>238.6</ele>
        <time>2017-06-18T09:08:27Z</time>
      </trkpt>
    </trkseg>
  </trk>
</gpx>